Saint Francis River (Missouri), Wappapello (07039500)

StateMissouriLatestGood (1490 cfs)
RiverSaint Francis RiverRatingObservedEstimated
Updated2020-08-06 11:00 (40 minutes ago)Flood - The river is flooding. Obstacles can be treacherous or deadly. The river should be avoided at this stage for casual trips and definitely for the inexperienced. Trips should be attempted only with protective gear and equipment.Flood(none)7958
Discharge1490 cfs (median: 186 cfs)High - The river is high and potentially dangerous, especially for the young and / or inexperienced. Normal stream obstacles are sometimes difficult to navigate. Extended distances can be attempted, but canoe travel may not be advisable.High(none)2240
Height11.3 feetGood - Conditions are ideal for a canoe or kayak. Boats typically will drag on fewer than one-quarter of riffles, if at all, and portages are unnecessary or rare. Normal float lengths can be attempted without a problem.Good(none)676
TrendRising (rising over 24 hours)Low - River is low but can still be floated. Some riffles are okay but most come with significant dragging and might need a portage. Float lengths should be reduced to accommodate low flow, dragging, and portages.Low(none)255
USGSExternal icon USGS Site (External icon Google Maps)Poor - River is too low to float comfortably. Most or all riffles will drag or must be portaged and some obstacles (such as slick shelf rock) cause undue problems. Avoid the river at this stage for casual paddling trips.Poor(none)40

Trending Data

Plot Image

Trips for Saint Francis River (Missouri), Wappapello (07039500)

DateStartEndDistanceConditionDischargeHeightFishingDetails

A total of 0 rows are displayed.

Condition Descriptions

Fishing Conditions

Fish Species

Notes

Classic Trip List

The classic River Trips application is still available for use. It is updated with the new system using a data retrofit. It is no longer maintained. The original River Trips application is no longer updated (as of 1 Dec 2016) but can be checked for errors or for the condition of the data before it was converted to the new system.

Gauge Data Table

ObservationHeightDischargeMaximum
Discharge
Minimum
Discharge
Mean
Discharge
P05P10P20P25P50
(Median)
P75P80P90P95
2020-08-06 11:00 11.30 1490 4510 (1945) 30 (1947) 400 37 40 40 69 186 360 565 992 1830
2020-08-06 10:00 11.14 1440 4510 (1945) 30 (1947) 400 37 40 40 69 186 360 565 992 1830
2020-08-06 09:00 10.88 1380 4510 (1945) 30 (1947) 400 37 40 40 69 186 360 565 992 1830
2020-08-06 08:00 10.71 1330 4510 (1945) 30 (1947) 400 37 40 40 69 186 360 565 992 1830
2020-08-06 07:00 10.70 1330 4510 (1945) 30 (1947) 400 37 40 40 69 186 360 565 992 1830
2020-08-06 06:00 10.69 1330 4510 (1945) 30 (1947) 400 37 40 40 69 186 360 565 992 1830
2020-08-06 05:00 10.67 1320 4510 (1945) 30 (1947) 400 37 40 40 69 186 360 565 992 1830
2020-08-06 04:00 10.65 1320 4510 (1945) 30 (1947) 400 37 40 40 69 186 360 565 992 1830
2020-08-06 03:00 10.63 1310 4510 (1945) 30 (1947) 400 37 40 40 69 186 360 565 992 1830
2020-08-06 02:00 10.60 1310 4510 (1945) 30 (1947) 400 37 40 40 69 186 360 565 992 1830
2020-08-06 01:00 10.57 1300 4510 (1945) 30 (1947) 400 37 40 40 69 186 360 565 992 1830
2020-08-06 00:00 10.54 1290 4510 (1945) 30 (1947) 400 37 40 40 69 186 360 565 992 1830
2020-08-05 23:00 10.49 1280 4550 (1945) 24 (1982) 426 39 40 61 72 200 416 468 999 2050
2020-08-05 22:00 10.45 1270 4550 (1945) 24 (1982) 426 39 40 61 72 200 416 468 999 2050
2020-08-05 21:00 10.40 1260 4550 (1945) 24 (1982) 426 39 40 61 72 200 416 468 999 2050
2020-08-05 20:00 10.36 1250 4550 (1945) 24 (1982) 426 39 40 61 72 200 416 468 999 2050
2020-08-05 19:00 10.24 1220 4550 (1945) 24 (1982) 426 39 40 61 72 200 416 468 999 2050
2020-08-05 18:00 10.15 1200 4550 (1945) 24 (1982) 426 39 40 61 72 200 416 468 999 2050
2020-08-05 17:00 10.03 1170 4550 (1945) 24 (1982) 426 39 40 61 72 200 416 468 999 2050
2020-08-05 16:00 9.87 1130 4550 (1945) 24 (1982) 426 39 40 61 72 200 416 468 999 2050
2020-08-05 15:00 9.65 1080 4550 (1945) 24 (1982) 426 39 40 61 72 200 416 468 999 2050
2020-08-05 14:00 9.27 991 4550 (1945) 24 (1982) 426 39 40 61 72 200 416 468 999 2050
2020-08-05 13:00 9.27 991 4550 (1945) 24 (1982) 426 39 40 61 72 200 416 468 999 2050
2020-08-05 12:00 9.28 993 4550 (1945) 24 (1982) 426 39 40 61 72 200 416 468 999 2050
2020-08-05 11:00 9.27 991 4550 (1945) 24 (1982) 426 39 40 61 72 200 416 468 999 2050
2020-08-05 10:00 9.28 993 4550 (1945) 24 (1982) 426 39 40 61 72 200 416 468 999 2050
2020-08-05 09:00 9.29 995 4550 (1945) 24 (1982) 426 39 40 61 72 200 416 468 999 2050
2020-08-05 08:00 9.29 995 4550 (1945) 24 (1982) 426 39 40 61 72 200 416 468 999 2050
2020-08-05 07:00 9.29 995 4550 (1945) 24 (1982) 426 39 40 61 72 200 416 468 999 2050
2020-08-05 06:00 9.29 995 4550 (1945) 24 (1982) 426 39 40 61 72 200 416 468 999 2050
2020-08-05 05:00 9.29 995 4550 (1945) 24 (1982) 426 39 40 61 72 200 416 468 999 2050
2020-08-05 04:00 9.29 995 4550 (1945) 24 (1982) 426 39 40 61 72 200 416 468 999 2050
2020-08-05 03:00 9.29 995 4550 (1945) 24 (1982) 426 39 40 61 72 200 416 468 999 2050
2020-08-05 02:00 9.28 993 4550 (1945) 24 (1982) 426 39 40 61 72 200 416 468 999 2050
2020-08-05 01:00 9.27 991 4550 (1945) 24 (1982) 426 39 40 61 72 200 416 468 999 2050
2020-08-05 00:00 9.28 993 4550 (1945) 24 (1982) 426 39 40 61 72 200 416 468 999 2050
2020-08-04 23:00 9.27 991 4650 (1945) 0 (1982) 444 40 40 67 88 192 370 544 1040 2160
2020-08-04 22:00 9.26 988 4650 (1945) 0 (1982) 444 40 40 67 88 192 370 544 1040 2160
2020-08-04 21:00 9.26 988 4650 (1945) 0 (1982) 444 40 40 67 88 192 370 544 1040 2160
2020-08-04 20:00 9.26 988 4650 (1945) 0 (1982) 444 40 40 67 88 192 370 544 1040 2160
2020-08-04 19:00 9.26 988 4650 (1945) 0 (1982) 444 40 40 67 88 192 370 544 1040 2160
2020-08-04 18:00 9.25 986 4650 (1945) 0 (1982) 444 40 40 67 88 192 370 544 1040 2160
2020-08-04 17:00 9.24 984 4650 (1945) 0 (1982) 444 40 40 67 88 192 370 544 1040 2160
2020-08-04 16:00 9.24 984 4650 (1945) 0 (1982) 444 40 40 67 88 192 370 544 1040 2160
2020-08-04 15:00 9.22 979 4650 (1945) 0 (1982) 444 40 40 67 88 192 370 544 1040 2160
2020-08-04 14:00 9.22 979 4650 (1945) 0 (1982) 444 40 40 67 88 192 370 544 1040 2160
2020-08-04 13:00 9.22 979 4650 (1945) 0 (1982) 444 40 40 67 88 192 370 544 1040 2160
2020-08-04 12:00 9.21 977 4650 (1945) 0 (1982) 444 40 40 67 88 192 370 544 1040 2160
2020-08-04 11:00 9.20 975 4650 (1945) 0 (1982) 444 40 40 67 88 192 370 544 1040 2160
2020-08-04 10:00 9.21 977 4650 (1945) 0 (1982) 444 40 40 67 88 192 370 544 1040 2160
2020-08-04 09:00 9.20 975 4650 (1945) 0 (1982) 444 40 40 67 88 192 370 544 1040 2160
2020-08-04 08:00 9.19 973 4650 (1945) 0 (1982) 444 40 40 67 88 192 370 544 1040 2160
2020-08-04 07:00 9.19 973 4650 (1945) 0 (1982) 444 40 40 67 88 192 370 544 1040 2160
2020-08-04 06:00 9.17 968 4650 (1945) 0 (1982) 444 40 40 67 88 192 370 544 1040 2160
2020-08-04 05:00 9.15 964 4650 (1945) 0 (1982) 444 40 40 67 88 192 370 544 1040 2160
2020-08-04 04:00 9.14 961 4650 (1945) 0 (1982) 444 40 40 67 88 192 370 544 1040 2160
2020-08-04 03:00 9.11 955 4650 (1945) 0 (1982) 444 40 40 67 88 192 370 544 1040 2160
2020-08-04 02:00 9.09 950 4650 (1945) 0 (1982) 444 40 40 67 88 192 370 544 1040 2160
2020-08-04 01:00 9.06 944 4650 (1945) 0 (1982) 444 40 40 67 88 192 370 544 1040 2160
2020-08-04 00:00 9.03 937 4650 (1945) 0 (1982) 444 40 40 67 88 192 370 544 1040 2160
2020-08-03 23:00 9.01 933 4700 (1945) 0 (1982) 450 39 40 50 72 200 422 520 1170 2270
2020-08-03 22:00 8.95 920 4700 (1945) 0 (1982) 450 39 40 50 72 200 422 520 1170 2270
2020-08-03 21:00 8.91 911 4700 (1945) 0 (1982) 450 39 40 50 72 200 422 520 1170 2270
2020-08-03 20:00 8.85 898 4700 (1945) 0 (1982) 450 39 40 50 72 200 422 520 1170 2270
2020-08-03 19:00 8.80 887 4700 (1945) 0 (1982) 450 39 40 50 72 200 422 520 1170 2270
2020-08-03 18:00 8.72 870 4700 (1945) 0 (1982) 450 39 40 50 72 200 422 520 1170 2270
2020-08-03 17:00 8.64 853 4700 (1945) 0 (1982) 450 39 40 50 72 200 422 520 1170 2270
2020-08-03 16:00 8.52 827 4700 (1945) 0 (1982) 450 39 40 50 72 200 422 520 1170 2270
2020-08-03 15:00 8.39 800 4700 (1945) 0 (1982) 450 39 40 50 72 200 422 520 1170 2270
2020-08-03 14:00 8.22 765 4700 (1945) 0 (1982) 450 39 40 50 72 200 422 520 1170 2270
2020-08-03 13:00 7.99 719 4700 (1945) 0 (1982) 450 39 40 50 72 200 422 520 1170 2270
2020-08-03 12:00 7.48 620 4700 (1945) 0 (1982) 450 39 40 50 72 200 422 520 1170 2270
2020-08-03 11:00 7.48 620 4700 (1945) 0 (1982) 450 39 40 50 72 200 422 520 1170 2270
2020-08-03 10:00 7.48 620 4700 (1945) 0 (1982) 450 39 40 50 72 200 422 520 1170 2270
2020-08-03 09:00 7.48 620 4700 (1945) 0 (1982) 450 39 40 50 72 200 422 520 1170 2270
2020-08-03 08:00 7.49 622 4700 (1945) 0 (1982) 450 39 40 50 72 200 422 520 1170 2270
2020-08-03 07:00 7.49 622 4700 (1945) 0 (1982) 450 39 40 50 72 200 422 520 1170 2270
2020-08-03 06:00 7.49 622 4700 (1945) 0 (1982) 450 39 40 50 72 200 422 520 1170 2270
2020-08-03 05:00 7.48 620 4700 (1945) 0 (1982) 450 39 40 50 72 200 422 520 1170 2270
2020-08-03 04:00 7.48 620 4700 (1945) 0 (1982) 450 39 40 50 72 200 422 520 1170 2270
2020-08-03 03:00 7.48 620 4700 (1945) 0 (1982) 450 39 40 50 72 200 422 520 1170 2270
2020-08-03 02:00 7.48 620 4700 (1945) 0 (1982) 450 39 40 50 72 200 422 520 1170 2270
2020-08-03 01:00 7.47 618 4700 (1945) 0 (1982) 450 39 40 50 72 200 422 520 1170 2270
2020-08-03 00:00 7.48 620 4700 (1945) 0 (1982) 450 39 40 50 72 200 422 520 1170 2270
2020-08-02 23:00 7.47 618 4740 (1945) 34 (1944) 456 39 40 52 68 192 390 528 1280 2260
2020-08-02 22:00 7.47 618 4740 (1945) 34 (1944) 456 39 40 52 68 192 390 528 1280 2260
2020-08-02 21:00 7.47 618 4740 (1945) 34 (1944) 456 39 40 52 68 192 390 528 1280 2260
2020-08-02 20:00 7.47 618 4740 (1945) 34 (1944) 456 39 40 52 68 192 390 528 1280 2260
2020-08-02 19:00 7.46 616 4740 (1945) 34 (1944) 456 39 40 52 68 192 390 528 1280 2260
2020-08-02 18:00 7.46 616 4740 (1945) 34 (1944) 456 39 40 52 68 192 390 528 1280 2260
2020-08-02 17:00 7.46 616 4740 (1945) 34 (1944) 456 39 40 52 68 192 390 528 1280 2260
2020-08-02 16:00 7.46 616 4740 (1945) 34 (1944) 456 39 40 52 68 192 390 528 1280 2260
2020-08-02 15:00 7.45 614 4740 (1945) 34 (1944) 456 39 40 52 68 192 390 528 1280 2260
2020-08-02 14:00 7.45 614 4740 (1945) 34 (1944) 456 39 40 52 68 192 390 528 1280 2260
2020-08-02 13:00 7.45 614 4740 (1945) 34 (1944) 456 39 40 52 68 192 390 528 1280 2260
2020-08-02 12:00 7.45 614 4740 (1945) 34 (1944) 456 39 40 52 68 192 390 528 1280 2260
2020-08-02 11:00 7.45 614 4740 (1945) 34 (1944) 456 39 40 52 68 192 390 528 1280 2260
2020-08-02 10:00 7.45 614 4740 (1945) 34 (1944) 456 39 40 52 68 192 390 528 1280 2260
2020-08-02 09:00 7.45 614 4740 (1945) 34 (1944) 456 39 40 52 68 192 390 528 1280 2260
2020-08-02 08:00 7.45 614 4740 (1945) 34 (1944) 456 39 40 52 68 192 390 528 1280 2260
2020-08-02 07:00 7.45 614 4740 (1945) 34 (1944) 456 39 40 52 68 192 390 528 1280 2260
2020-08-02 06:00 7.45 614 4740 (1945) 34 (1944) 456 39 40 52 68 192 390 528 1280 2260
2020-08-02 05:00 7.45 614 4740 (1945) 34 (1944) 456 39 40 52 68 192 390 528 1280 2260
2020-08-02 04:00 7.44 612 4740 (1945) 34 (1944) 456 39 40 52 68 192 390 528 1280 2260
2020-08-02 03:00 7.44 612 4740 (1945) 34 (1944) 456 39 40 52 68 192 390 528 1280 2260
2020-08-02 02:00 7.44 612 4740 (1945) 34 (1944) 456 39 40 52 68 192 390 528 1280 2260
2020-08-02 01:00 7.43 610 4740 (1945) 34 (1944) 456 39 40 52 68 192 390 528 1280 2260
2020-08-02 00:00 7.43 610 4740 (1945) 34 (1944) 456 39 40 52 68 192 390 528 1280 2260
2020-08-01 23:00 7.42 608 4790 (1945) 15 (2011) 461 40 40 64 80 191 400 430 1250 2570
2020-08-01 22:00 7.41 606 4790 (1945) 15 (2011) 461 40 40 64 80 191 400 430 1250 2570
2020-08-01 20:00 7.40 605 4790 (1945) 15 (2011) 461 40 40 64 80 191 400 430 1250 2570
2020-08-01 19:00 7.40 605 4790 (1945) 15 (2011) 461 40 40 64 80 191 400 430 1250 2570
2020-08-01 18:00 7.39 603 4790 (1945) 15 (2011) 461 40 40 64 80 191 400 430 1250 2570
2020-08-01 17:00 7.40 605 4790 (1945) 15 (2011) 461 40 40 64 80 191 400 430 1250 2570
2020-08-01 16:00 7.39 603 4790 (1945) 15 (2011) 461 40 40 64 80 191 400 430 1250 2570
2020-08-01 15:00 7.39 603 4790 (1945) 15 (2011) 461 40 40 64 80 191 400 430 1250 2570
2020-08-01 14:00 7.39 603 4790 (1945) 15 (2011) 461 40 40 64 80 191 400 430 1250 2570
2020-08-01 13:00 7.39 603 4790 (1945) 15 (2011) 461 40 40 64 80 191 400 430 1250 2570
2020-08-01 12:00 7.39 603 4790 (1945) 15 (2011) 461 40 40 64 80 191 400 430 1250 2570
2020-08-01 11:00 7.39 603 4790 (1945) 15 (2011) 461 40 40 64 80 191 400 430 1250 2570
2020-08-01 10:00 7.38 601 4790 (1945) 15 (2011) 461 40 40 64 80 191 400 430 1250 2570
2020-08-01 09:00 7.39 603 4790 (1945) 15 (2011) 461 40 40 64 80 191 400 430 1250 2570
2020-08-01 08:00 7.38 601 4790 (1945) 15 (2011) 461 40 40 64 80 191 400 430 1250 2570
2020-08-01 07:00 7.38 601 4790 (1945) 15 (2011) 461 40 40 64 80 191 400 430 1250 2570
2020-08-01 06:00 7.37 599 4790 (1945) 15 (2011) 461 40 40 64 80 191 400 430 1250 2570
2020-08-01 05:00 7.37 599 4790 (1945) 15 (2011) 461 40 40 64 80 191 400 430 1250 2570
2020-08-01 04:00 7.36 597 4790 (1945) 15 (2011) 461 40 40 64 80 191 400 430 1250 2570
2020-08-01 03:00 7.35 595 4790 (1945) 15 (2011) 461 40 40 64 80 191 400 430 1250 2570
2020-08-01 02:00 7.33 592 4790 (1945) 15 (2011) 461 40 40 64 80 191 400 430 1250 2570
2020-08-01 01:00 7.33 592 4790 (1945) 15 (2011) 461 40 40 64 80 191 400 430 1250 2570
2020-08-01 00:00 7.30 586 4790 (1945) 15 (2011) 461 40 40 64 80 191 400 430 1250 2570
2020-07-31 23:00 7.27 580 4840 (1945) 16 (2011) 466 40 40 56 70 192 424 508 1280 2640
2020-07-31 22:00 7.22 571 4840 (1945) 16 (2011) 466 40 40 56 70 192 424 508 1280 2640
2020-07-31 21:00 7.12 553 4840 (1945) 16 (2011) 466 40 40 56 70 192 424 508 1280 2640
2020-07-31 20:00 7.05 540 4840 (1945) 16 (2011) 466 40 40 56 70 192 424 508 1280 2640
2020-07-31 19:00 7.00 532 4840 (1945) 16 (2011) 466 40 40 56 70 192 424 508 1280 2640
2020-07-31 18:00 6.95 523 4840 (1945) 16 (2011) 466 40 40 56 70 192 424 508 1280 2640
2020-07-31 17:00 6.88 511 4840 (1945) 16 (2011) 466 40 40 56 70 192 424 508 1280 2640
2020-07-31 16:00 6.81 499 4840 (1945) 16 (2011) 466 40 40 56 70 192 424 508 1280 2640
2020-07-31 15:00 6.71 481 4840 (1945) 16 (2011) 466 40 40 56 70 192 424 508 1280 2640
2020-07-31 14:00 6.60 462 4840 (1945) 16 (2011) 466 40 40 56 70 192 424 508 1280 2640
2020-07-31 13:00 6.44 434 4840 (1945) 16 (2011) 466 40 40 56 70 192 424 508 1280 2640
2020-07-31 12:00 6.20 395 4840 (1945) 16 (2011) 466 40 40 56 70 192 424 508 1280 2640
2020-07-31 11:00 6.16 389 4840 (1945) 16 (2011) 466 40 40 56 70 192 424 508 1280 2640
2020-07-31 10:00 5.97 355 4840 (1945) 16 (2011) 466 40 40 56 70 192 424 508 1280 2640
2020-07-31 09:00 5.82 329 4840 (1945) 16 (2011) 466 40 40 56 70 192 424 508 1280 2640
2020-07-31 08:00 5.82 329 4840 (1945) 16 (2011) 466 40 40 56 70 192 424 508 1280 2640
2020-07-31 07:00 5.82 329 4840 (1945) 16 (2011) 466 40 40 56 70 192 424 508 1280 2640
2020-07-31 06:00 5.83 330 4840 (1945) 16 (2011) 466 40 40 56 70 192 424 508 1280 2640
2020-07-31 05:00 5.83 330 4840 (1945) 16 (2011) 466 40 40 56 70 192 424 508 1280 2640
2020-07-31 04:00 5.83 330 4840 (1945) 16 (2011) 466 40 40 56 70 192 424 508 1280 2640
2020-07-31 03:00 5.83 330 4840 (1945) 16 (2011) 466 40 40 56 70 192 424 508 1280 2640
2020-07-31 02:00 5.83 330 4840 (1945) 16 (2011) 466 40 40 56 70 192 424 508 1280 2640
2020-07-31 01:00 5.83 330 4840 (1945) 16 (2011) 466 40 40 56 70 192 424 508 1280 2640
2020-07-31 00:00 5.83 330 4840 (1945) 16 (2011) 466 40 40 56 70 192 424 508 1280 2640
2020-07-30 23:00 5.84 332 4840 (1945) 16 (2011) 506 40 40 71 89 262 430 553 1420 2460
2020-07-30 22:00 5.84 332 4840 (1945) 16 (2011) 506 40 40 71 89 262 430 553 1420 2460
2020-07-30 21:00 5.84 332 4840 (1945) 16 (2011) 506 40 40 71 89 262 430 553 1420 2460
2020-07-30 20:00 5.85 334 4840 (1945) 16 (2011) 506 40 40 71 89 262 430 553 1420 2460
2020-07-30 19:00 5.85 334 4840 (1945) 16 (2011) 506 40 40 71 89 262 430 553 1420 2460
2020-07-30 18:00 5.86 336 4840 (1945) 16 (2011) 506 40 40 71 89 262 430 553 1420 2460
2020-07-30 17:00 5.86 336 4840 (1945) 16 (2011) 506 40 40 71 89 262 430 553 1420 2460
2020-07-30 16:00 5.87 337 4840 (1945) 16 (2011) 506 40 40 71 89 262 430 553 1420 2460
2020-07-30 15:00 5.88 339 4840 (1945) 16 (2011) 506 40 40 71 89 262 430 553 1420 2460
2020-07-30 14:00 5.89 341 4840 (1945) 16 (2011) 506 40 40 71 89 262 430 553 1420 2460
2020-07-30 13:00 5.90 342 4840 (1945) 16 (2011) 506 40 40 71 89 262 430 553 1420 2460
2020-07-30 12:00 5.91 344 4840 (1945) 16 (2011) 506 40 40 71 89 262 430 553 1420 2460
2020-07-30 11:00 5.93 348 4840 (1945) 16 (2011) 506 40 40 71 89 262 430 553 1420 2460
2020-07-30 10:00 5.94 349 4840 (1945) 16 (2011) 506 40 40 71 89 262 430 553 1420 2460
2020-07-30 09:00 5.94 349 4840 (1945) 16 (2011) 506 40 40 71 89 262 430 553 1420 2460
2020-07-30 08:00 5.96 353 4840 (1945) 16 (2011) 506 40 40 71 89 262 430 553 1420 2460
2020-07-30 07:00 5.95 351 4840 (1945) 16 (2011) 506 40 40 71 89 262 430 553 1420 2460
2020-07-30 06:00 5.95 351 4840 (1945) 16 (2011) 506 40 40 71 89 262 430 553 1420 2460
2020-07-30 05:00 5.92 346 4840 (1945) 16 (2011) 506 40 40 71 89 262 430 553 1420 2460
2020-07-30 04:00 5.90 342 4840 (1945) 16 (2011) 506 40 40 71 89 262 430 553 1420 2460
2020-07-30 03:00 5.78 322 4840 (1945) 16 (2011) 506 40 40 71 89 262 430 553 1420 2460
2020-07-30 02:00 5.77 320 4840 (1945) 16 (2011) 506 40 40 71 89 262 430 553 1420 2460
2020-07-30 01:00 5.77 320 4840 (1945) 16 (2011) 506 40 40 71 89 262 430 553 1420 2460
2020-07-30 00:00 5.77 320 4840 (1945) 16 (2011) 506 40 40 71 89 262 430 553 1420 2460
2020-07-29 23:00 5.76 319 4880 (1945) 17 (2011) 526 40 40 70 101 262 530 639 1350 2540
2020-07-29 21:00 5.76 319 4880 (1945) 17 (2011) 526 40 40 70 101 262 530 639 1350 2540
2020-07-29 20:00 5.76 319 4880 (1945) 17 (2011) 526 40 40 70 101 262 530 639 1350 2540
2020-07-29 19:00 5.76 319 4880 (1945) 17 (2011) 526 40 40 70 101 262 530 639 1350 2540
2020-07-29 18:00 5.76 319 4880 (1945) 17 (2011) 526 40 40 70 101 262 530 639 1350 2540
2020-07-29 17:00 5.76 319 4880 (1945) 17 (2011) 526 40 40 70 101 262 530 639 1350 2540
2020-07-29 16:00 5.76 319 4880 (1945) 17 (2011) 526 40 40 70 101 262 530 639 1350 2540
2020-07-29 15:00 5.76 319 4880 (1945) 17 (2011) 526 40 40 70 101 262 530 639 1350 2540
2020-07-29 14:00 5.76 319 4880 (1945) 17 (2011) 526 40 40 70 101 262 530 639 1350 2540
2020-07-29 13:00 5.76 319 4880 (1945) 17 (2011) 526 40 40 70 101 262 530 639 1350 2540
2020-07-29 12:00 5.76 319 4880 (1945) 17 (2011) 526 40 40 70 101 262 530 639 1350 2540
2020-07-29 11:00 5.76 319 4880 (1945) 17 (2011) 526 40 40 70 101 262 530 639 1350 2540
2020-07-29 10:00 5.77 320 4880 (1945) 17 (2011) 526 40 40 70 101 262 530 639 1350 2540
2020-07-29 09:00 5.77 320 4880 (1945) 17 (2011) 526 40 40 70 101 262 530 639 1350 2540
2020-07-29 08:00 5.77 320 4880 (1945) 17 (2011) 526 40 40 70 101 262 530 639 1350 2540
2020-07-29 07:00 5.77 320 4880 (1945) 17 (2011) 526 40 40 70 101 262 530 639 1350 2540
2020-07-29 06:00 5.77 320 4880 (1945) 17 (2011) 526 40 40 70 101 262 530 639 1350 2540
2020-07-29 05:00 5.77 320 4880 (1945) 17 (2011) 526 40 40 70 101 262 530 639 1350 2540
2020-07-29 04:00 5.77 320 4880 (1945) 17 (2011) 526 40 40 70 101 262 530 639 1350 2540
2020-07-29 03:00 5.77 320 4880 (1945) 17 (2011) 526 40 40 70 101 262 530 639 1350 2540
2020-07-29 02:00 5.77 320 4880 (1945) 17 (2011) 526 40 40 70 101 262 530 639 1350 2540
2020-07-29 01:00 5.76 319 4880 (1945) 17 (2011) 526 40 40 70 101 262 530 639 1350 2540
2020-07-29 00:00 5.76 319 4880 (1945) 17 (2011) 526 40 40 70 101 262 530 639 1350 2540
2020-07-28 23:00 5.76 319 4930 (1945) 18 (2011) 490 40 40 76 88 275 455 547 1270 2240
2020-07-28 22:00 5.76 319 4930 (1945) 18 (2011) 490 40 40 76 88 275 455 547 1270 2240
2020-07-28 21:00 5.76 319 4930 (1945) 18 (2011) 490 40 40 76 88 275 455 547 1270 2240
2020-07-28 20:00 5.76 319 4930 (1945) 18 (2011) 490 40 40 76 88 275 455 547 1270 2240
2020-07-28 19:00 5.76 319 4930 (1945) 18 (2011) 490 40 40 76 88 275 455 547 1270 2240
2020-07-28 18:00 5.76 319 4930 (1945) 18 (2011) 490 40 40 76 88 275 455 547 1270 2240
2020-07-28 17:00 5.76 319 4930 (1945) 18 (2011) 490 40 40 76 88 275 455 547 1270 2240
2020-07-28 16:00 5.76 319 4930 (1945) 18 (2011) 490 40 40 76 88 275 455 547 1270 2240
2020-07-28 15:00 5.76 319 4930 (1945) 18 (2011) 490 40 40 76 88 275 455 547 1270 2240
2020-07-28 14:00 5.76 319 4930 (1945) 18 (2011) 490 40 40 76 88 275 455 547 1270 2240
2020-07-28 13:00 5.77 320 4930 (1945) 18 (2011) 490 40 40 76 88 275 455 547 1270 2240
2020-07-28 12:00 5.77 320 4930 (1945) 18 (2011) 490 40 40 76 88 275 455 547 1270 2240
2020-07-28 11:00 5.77 320 4930 (1945) 18 (2011) 490 40 40 76 88 275 455 547 1270 2240
2020-07-28 10:00 5.78 322 4930 (1945) 18 (2011) 490 40 40 76 88 275 455 547 1270 2240
2020-07-28 09:00 5.78 322 4930 (1945) 18 (2011) 490 40 40 76 88 275 455 547 1270 2240
2020-07-28 08:00 5.78 322 4930 (1945) 18 (2011) 490 40 40 76 88 275 455 547 1270 2240
2020-07-28 07:00 5.78 322 4930 (1945) 18 (2011) 490 40 40 76 88 275 455 547 1270 2240
2020-07-28 06:00 5.78 322 4930 (1945) 18 (2011) 490 40 40 76 88 275 455 547 1270 2240
2020-07-28 05:00 5.78 322 4930 (1945) 18 (2011) 490 40 40 76 88 275 455 547 1270 2240
2020-07-28 04:00 5.78 322 4930 (1945) 18 (2011) 490 40 40 76 88 275 455 547 1270 2240
2020-07-28 03:00 5.78 322 4930 (1945) 18 (2011) 490 40 40 76 88 275 455 547 1270 2240
2020-07-28 02:00 5.78 322 4930 (1945) 18 (2011) 490 40 40 76 88 275 455 547 1270 2240
2020-07-28 01:00 5.78 322 4930 (1945) 18 (2011) 490 40 40 76 88 275 455 547 1270 2240
2020-07-28 00:00 5.78 322 4930 (1945) 18 (2011) 490 40 40 76 88 275 455 547 1270 2240
2020-07-27 23:00 5.77 320 4930 (1945) 19 (2011) 501 40 40 73 80 220 463 536 1420 2370
2020-07-27 22:00 5.77 320 4930 (1945) 19 (2011) 501 40 40 73 80 220 463 536 1420 2370
2020-07-27 21:00 5.77 320 4930 (1945) 19 (2011) 501 40 40 73 80 220 463 536 1420 2370
2020-07-27 20:00 5.77 320 4930 (1945) 19 (2011) 501 40 40 73 80 220 463 536 1420 2370
2020-07-27 19:00 5.77 320 4930 (1945) 19 (2011) 501 40 40 73 80 220 463 536 1420 2370
2020-07-27 18:00 5.77 320 4930 (1945) 19 (2011) 501 40 40 73 80 220 463 536 1420 2370
2020-07-27 17:00 5.78 322 4930 (1945) 19 (2011) 501 40 40 73 80 220 463 536 1420 2370
2020-07-27 16:00 5.78 322 4930 (1945) 19 (2011) 501 40 40 73 80 220 463 536 1420 2370
2020-07-27 15:00 5.78 322 4930 (1945) 19 (2011) 501 40 40 73 80 220 463 536 1420 2370
2020-07-27 14:00 5.78 322 4930 (1945) 19 (2011) 501 40 40 73 80 220 463 536 1420 2370
2020-07-27 13:00 5.78 322 4930 (1945) 19 (2011) 501 40 40 73 80 220 463 536 1420 2370
2020-07-27 12:00 5.78 322 4930 (1945) 19 (2011) 501 40 40 73 80 220 463 536 1420 2370
2020-07-27 11:00 5.78 322 4930 (1945) 19 (2011) 501 40 40 73 80 220 463 536 1420 2370
2020-07-27 10:00 5.78 322 4930 (1945) 19 (2011) 501 40 40 73 80 220 463 536 1420 2370
2020-07-27 09:00 5.79 324 4930 (1945) 19 (2011) 501 40 40 73 80 220 463 536 1420 2370
2020-07-27 08:00 5.79 324 4930 (1945) 19 (2011) 501 40 40 73 80 220 463 536 1420 2370
2020-07-27 07:00 5.79 324 4930 (1945) 19 (2011) 501 40 40 73 80 220 463 536 1420 2370
2020-07-27 06:00 5.79 324 4930 (1945) 19 (2011) 501 40 40 73 80 220 463 536 1420 2370
2020-07-27 05:00 5.79 324 4930 (1945) 19 (2011) 501 40 40 73 80 220 463 536 1420 2370
2020-07-27 04:00 5.79 324 4930 (1945) 19 (2011) 501 40 40 73 80 220 463 536 1420 2370
2020-07-27 03:00 5.79 324 4930 (1945) 19 (2011) 501 40 40 73 80 220 463 536 1420 2370
2020-07-27 02:00 5.79 324 4930 (1945) 19 (2011) 501 40 40 73 80 220 463 536 1420 2370
2020-07-27 01:00 5.79 324 4930 (1945) 19 (2011) 501 40 40 73 80 220 463 536 1420 2370
2020-07-27 00:00 5.79 324 4930 (1945) 19 (2011) 501 40 40 73 80 220 463 536 1420 2370
2020-07-26 23:00 5.79 324 4980 (1945) 20 (2011) 537 38 40 76 85 200 429 466 1900 2390
2020-07-26 22:00 5.79 324 4980 (1945) 20 (2011) 537 38 40 76 85 200 429 466 1900 2390
2020-07-26 21:00 5.78 322 4980 (1945) 20 (2011) 537 38 40 76 85 200 429 466 1900 2390
2020-07-26 20:00 5.79 324 4980 (1945) 20 (2011) 537 38 40 76 85 200 429 466 1900 2390
2020-07-26 19:00 5.78 322 4980 (1945) 20 (2011) 537 38 40 76 85 200 429 466 1900 2390
2020-07-26 18:00 5.78 322 4980 (1945) 20 (2011) 537 38 40 76 85 200 429 466 1900 2390
2020-07-26 17:00 5.78 322 4980 (1945) 20 (2011) 537 38 40 76 85 200 429 466 1900 2390
2020-07-26 16:00 5.78 322 4980 (1945) 20 (2011) 537 38 40 76 85 200 429 466 1900 2390
2020-07-26 15:00 5.79 324 4980 (1945) 20 (2011) 537 38 40 76 85 200 429 466 1900 2390
2020-07-26 14:00 5.79 324 4980 (1945) 20 (2011) 537 38 40 76 85 200 429 466 1900 2390
2020-07-26 13:00 5.79 324 4980 (1945) 20 (2011) 537 38 40 76 85 200 429 466 1900 2390
2020-07-26 12:00 5.79 324 4980 (1945) 20 (2011) 537 38 40 76 85 200 429 466 1900 2390
2020-07-26 11:00 5.79 324 4980 (1945) 20 (2011) 537 38 40 76 85 200 429 466 1900 2390
2020-07-26 10:00 5.79 324 4980 (1945) 20 (2011) 537 38 40 76 85 200 429 466 1900 2390
2020-07-26 09:00 5.80 325 4980 (1945) 20 (2011) 537 38 40 76 85 200 429 466 1900 2390
2020-07-26 08:00 5.80 325 4980 (1945) 20 (2011) 537 38 40 76 85 200 429 466 1900 2390
2020-07-26 07:00 5.80 325 4980 (1945) 20 (2011) 537 38 40 76 85 200 429 466 1900 2390
2020-07-26 06:00 5.80 325 4980 (1945) 20 (2011) 537 38 40 76 85 200 429 466 1900 2390
2020-07-26 05:00 5.80 325 4980 (1945) 20 (2011) 537 38 40 76 85 200 429 466 1900 2390
2020-07-26 04:00 5.80 325 4980 (1945) 20 (2011) 537 38 40 76 85 200 429 466 1900 2390
2020-07-26 03:00 5.79 324 4980 (1945) 20 (2011) 537 38 40 76 85 200 429 466 1900 2390
2020-07-26 02:00 5.80 325 4980 (1945) 20 (2011) 537 38 40 76 85 200 429 466 1900 2390
2020-07-26 01:00 5.80 325 4980 (1945) 20 (2011) 537 38 40 76 85 200 429 466 1900 2390
2020-07-26 00:00 5.80 325 4980 (1945) 20 (2011) 537 38 40 76 85 200 429 466 1900 2390
2020-07-25 23:00 5.80 325 4980 (1945) 22 (2011) 556 37 40 70 80 200 453 630 1950 2620
2020-07-25 22:00 5.80 325 4980 (1945) 22 (2011) 556 37 40 70 80 200 453 630 1950 2620
2020-07-25 21:00 5.79 324 4980 (1945) 22 (2011) 556 37 40 70 80 200 453 630 1950 2620
2020-07-25 20:00 5.79 324 4980 (1945) 22 (2011) 556 37 40 70 80 200 453 630 1950 2620
2020-07-25 19:00 5.79 324 4980 (1945) 22 (2011) 556 37 40 70 80 200 453 630 1950 2620
2020-07-25 18:00 5.80 325 4980 (1945) 22 (2011) 556 37 40 70 80 200 453 630 1950 2620
2020-07-25 17:00 5.79 324 4980 (1945) 22 (2011) 556 37 40 70 80 200 453 630 1950 2620
2020-07-25 16:00 5.79 324 4980 (1945) 22 (2011) 556 37 40 70 80 200 453 630 1950 2620
2020-07-25 15:00 5.80 325 4980 (1945) 22 (2011) 556 37 40 70 80 200 453 630 1950 2620
2020-07-25 14:00 5.80 325 4980 (1945) 22 (2011) 556 37 40 70 80 200 453 630 1950 2620
2020-07-25 13:00 5.80 325 4980 (1945) 22 (2011) 556 37 40 70 80 200 453 630 1950 2620
2020-07-25 12:00 5.80 325 4980 (1945) 22 (2011) 556 37 40 70 80 200 453 630 1950 2620
2020-07-25 11:00 5.80 325 4980 (1945) 22 (2011) 556 37 40 70 80 200 453 630 1950 2620
2020-07-25 10:00 5.81 327 4980 (1945) 22 (2011) 556 37 40 70 80 200 453 630 1950 2620
2020-07-25 09:00 5.80 325 4980 (1945) 22 (2011) 556 37 40 70 80 200 453 630 1950 2620
2020-07-25 08:00 5.80 325 4980 (1945) 22 (2011) 556 37 40 70 80 200 453 630 1950 2620
2020-07-25 07:00 5.80 325 4980 (1945) 22 (2011) 556 37 40 70 80 200 453 630 1950 2620
2020-07-25 06:00 5.80 325 4980 (1945) 22 (2011) 556 37 40 70 80 200 453 630 1950 2620
2020-07-25 05:00 5.80 325 4980 (1945) 22 (2011) 556 37 40 70 80 200 453 630 1950 2620
2020-07-25 04:00 5.80 325 4980 (1945) 22 (2011) 556 37 40 70 80 200 453 630 1950 2620
2020-07-25 03:00 5.80 325 4980 (1945) 22 (2011) 556 37 40 70 80 200 453 630 1950 2620
2020-07-25 02:00 5.80 325 4980 (1945) 22 (2011) 556 37 40 70 80 200 453 630 1950 2620
2020-07-25 01:00 5.80 325 4980 (1945) 22 (2011) 556 37 40 70 80 200 453 630 1950 2620
2020-07-25 00:00 5.80 325 4980 (1945) 22 (2011) 556 37 40 70 80 200 453 630 1950 2620
2020-07-24 23:00 5.79 324 5620 (1958) 25 (2011) 557 40 40 69 80 201 405 488 2140 2840
2020-07-24 22:00 5.79 324 5620 (1958) 25 (2011) 557 40 40 69 80 201 405 488 2140 2840
2020-07-24 21:00 5.79 324 5620 (1958) 25 (2011) 557 40 40 69 80 201 405 488 2140 2840
2020-07-24 20:00 5.79 324 5620 (1958) 25 (2011) 557 40 40 69 80 201 405 488 2140 2840
2020-07-24 19:00 5.79 324 5620 (1958) 25 (2011) 557 40 40 69 80 201 405 488 2140 2840
2020-07-24 18:00 5.78 322 5620 (1958) 25 (2011) 557 40 40 69 80 201 405 488 2140 2840
2020-07-24 17:00 5.78 322 5620 (1958) 25 (2011) 557 40 40 69 80 201 405 488 2140 2840
2020-07-24 16:00 5.79 324 5620 (1958) 25 (2011) 557 40 40 69 80 201 405 488 2140 2840
2020-07-24 15:00 5.79 324 5620 (1958) 25 (2011) 557 40 40 69 80 201 405 488 2140 2840
2020-07-24 14:00 5.79 324 5620 (1958) 25 (2011) 557 40 40 69 80 201 405 488 2140 2840
2020-07-24 13:00 5.80 325 5620 (1958) 25 (2011) 557 40 40 69 80 201 405 488 2140 2840
2020-07-24 12:00 5.79 324 5620 (1958) 25 (2011) 557 40 40 69 80 201 405 488 2140 2840
2020-07-24 11:00 5.79 324 5620 (1958) 25 (2011) 557 40 40 69 80 201 405 488 2140 2840
2020-07-24 10:00 5.80 325 5620 (1958) 25 (2011) 557 40 40 69 80 201 405 488 2140 2840
2020-07-24 09:00 5.80 325 5620 (1958) 25 (2011) 557 40 40 69 80 201 405 488 2140 2840
2020-07-24 08:00 5.81 327 5620 (1958) 25 (2011) 557 40 40 69 80 201 405 488 2140 2840
2020-07-24 07:00 5.81 327 5620 (1958) 25 (2011) 557 40 40 69 80 201 405 488 2140 2840
2020-07-24 06:00 5.81 327 5620 (1958) 25 (2011) 557 40 40 69 80 201 405 488 2140 2840
2020-07-24 05:00 5.81 327 5620 (1958) 25 (2011) 557 40 40 69 80 201 405 488 2140 2840
2020-07-24 04:00 5.81 327 5620 (1958) 25 (2011) 557 40 40 69 80 201 405 488 2140 2840
2020-07-24 03:00 5.80 325 5620 (1958) 25 (2011) 557 40 40 69 80 201 405 488 2140 2840
2020-07-24 02:00 5.81 327 5620 (1958) 25 (2011) 557 40 40 69 80 201 405 488 2140 2840
2020-07-24 01:00 5.81 327 5620 (1958) 25 (2011) 557 40 40 69 80 201 405 488 2140 2840
2020-07-24 00:00 5.80 325 5620 (1958) 25 (2011) 557 40 40 69 80 201 405 488 2140 2840
2020-07-23 23:00 5.80 325 6390 (1958) 29 (2011) 562 40 40 49 75 204 387 479 2160 2890
2020-07-23 22:00 5.80 325 6390 (1958) 29 (2011) 562 40 40 49 75 204 387 479 2160 2890
2020-07-23 21:00 5.80 325 6390 (1958) 29 (2011) 562 40 40 49 75 204 387 479 2160 2890
2020-07-23 20:00 5.80 325 6390 (1958) 29 (2011) 562 40 40 49 75 204 387 479 2160 2890
2020-07-23 19:00 5.80 325 6390 (1958) 29 (2011) 562 40 40 49 75 204 387 479 2160 2890
2020-07-23 18:00 5.80 325 6390 (1958) 29 (2011) 562 40 40 49 75 204 387 479 2160 2890
2020-07-23 17:00 5.80 325 6390 (1958) 29 (2011) 562 40 40 49 75 204 387 479 2160 2890
2020-07-23 16:00 5.80 325 6390 (1958) 29 (2011) 562 40 40 49 75 204 387 479 2160 2890
2020-07-23 15:00 5.80 325 6390 (1958) 29 (2011) 562 40 40 49 75 204 387 479 2160 2890
2020-07-23 14:00 5.81 327 6390 (1958) 29 (2011) 562 40 40 49 75 204 387 479 2160 2890
2020-07-23 13:00 5.81 327 6390 (1958) 29 (2011) 562 40 40 49 75 204 387 479 2160 2890
2020-07-23 12:00 5.81 327 6390 (1958) 29 (2011) 562 40 40 49 75 204 387 479 2160 2890
2020-07-23 11:00 5.82 329 6390 (1958) 29 (2011) 562 40 40 49 75 204 387 479 2160 2890
2020-07-23 10:00 5.82 329 6390 (1958) 29 (2011) 562 40 40 49 75 204 387 479 2160 2890
2020-07-23 09:00 5.83 330 6390 (1958) 29 (2011) 562 40 40 49 75 204 387 479 2160 2890
2020-07-23 08:00 5.83 330 6390 (1958) 29 (2011) 562 40 40 49 75 204 387 479 2160 2890
2020-07-23 07:00 5.84 332 6390 (1958) 29 (2011) 562 40 40 49 75 204 387 479 2160 2890
2020-07-23 06:00 5.84 332 6390 (1958) 29 (2011) 562 40 40 49 75 204 387 479 2160 2890
2020-07-23 05:00 5.85 334 6390 (1958) 29 (2011) 562 40 40 49 75 204 387 479 2160 2890
2020-07-23 04:00 5.85 334 6390 (1958) 29 (2011) 562 40 40 49 75 204 387 479 2160 2890
2020-07-23 03:00 5.86 336 6390 (1958) 29 (2011) 562 40 40 49 75 204 387 479 2160 2890
2020-07-23 02:00 5.85 334 6390 (1958) 29 (2011) 562 40 40 49 75 204 387 479 2160 2890
2020-07-23 01:00 5.86 336 6390 (1958) 29 (2011) 562 40 40 49 75 204 387 479 2160 2890
2020-07-23 00:00 5.86 336 6390 (1958) 29 (2011) 562 40 40 49 75 204 387 479 2160 2890
2020-07-22 23:00 5.87 337 6760 (1958) 34 (2011) 609 40 40 79 92 210 457 571 2400 2850
2020-07-22 22:00 5.87 337 6760 (1958) 34 (2011) 609 40 40 79 92 210 457 571 2400 2850
2020-07-22 21:00 5.88 339 6760 (1958) 34 (2011) 609 40 40 79 92 210 457 571 2400 2850
2020-07-22 20:00 5.88 339 6760 (1958) 34 (2011) 609 40 40 79 92 210 457 571 2400 2850
2020-07-22 19:00 5.88 339 6760 (1958) 34 (2011) 609 40 40 79 92 210 457 571 2400 2850
2020-07-22 18:00 5.87 337 6760 (1958) 34 (2011) 609 40 40 79 92 210 457 571 2400 2850
2020-07-22 17:00 5.87 337 6760 (1958) 34 (2011) 609 40 40 79 92 210 457 571 2400 2850
2020-07-22 16:00 5.85 334 6760 (1958) 34 (2011) 609 40 40 79 92 210 457 571 2400 2850
2020-07-22 15:00 5.77 320 6760 (1958) 34 (2011) 609 40 40 79 92 210 457 571 2400 2850
2020-07-22 14:00 5.77 320 6760 (1958) 34 (2011) 609 40 40 79 92 210 457 571 2400 2850
2020-07-22 13:00 5.77 320 6760 (1958) 34 (2011) 609 40 40 79 92 210 457 571 2400 2850
2020-07-22 12:00 5.76 319 6760 (1958) 34 (2011) 609 40 40 79 92 210 457 571 2400 2850
2020-07-22 11:00 5.76 319 6760 (1958) 34 (2011) 609 40 40 79 92 210 457 571 2400 2850
2020-07-22 10:00 5.76 319 6760 (1958) 34 (2011) 609 40 40 79 92 210 457 571 2400 2850
2020-07-22 09:00 5.76 319 6760 (1958) 34 (2011) 609 40 40 79 92 210 457 571 2400 2850
2020-07-22 08:00 5.76 319 6760 (1958) 34 (2011) 609 40 40 79 92 210 457 571 2400 2850
2020-07-22 07:00 5.75 317 6760 (1958) 34 (2011) 609 40 40 79 92 210 457 571 2400 2850
2020-07-22 06:00 5.75 317 6760 (1958) 34 (2011) 609 40 40 79 92 210 457 571 2400 2850
2020-07-22 05:00 5.74 315 6760 (1958) 34 (2011) 609 40 40 79 92 210 457 571 2400 2850
2020-07-22 04:00 5.74 315 6760 (1958) 34 (2011) 609 40 40 79 92 210 457 571 2400 2850
2020-07-22 03:00 5.73 314 6760 (1958) 34 (2011) 609 40 40 79 92 210 457 571 2400 2850
2020-07-22 02:00 5.72 312 6760 (1958) 34 (2011) 609 40 40 79 92 210 457 571 2400 2850
2020-07-22 01:00 5.71 310 6760 (1958) 34 (2011) 609 40 40 79 92 210 457 571 2400 2850
2020-07-22 00:00 5.70 309 6760 (1958) 34 (2011) 609 40 40 79 92 210 457 571 2400 2850
2020-07-21 23:00 5.69 307 7150 (1958) 40 (1948) 633 40 40 70 92 212 504 637 2060 2920
2020-07-21 22:00 5.67 304 7150 (1958) 40 (1948) 633 40 40 70 92 212 504 637 2060 2920
2020-07-21 21:00 5.66 302 7150 (1958) 40 (1948) 633 40 40 70 92 212 504 637 2060 2920
2020-07-21 20:00 5.61 294 7150 (1958) 40 (1948) 633 40 40 70 92 212 504 637 2060 2920
2020-07-21 19:00 5.59 291 7150 (1958) 40 (1948) 633 40 40 70 92 212 504 637 2060 2920
2020-07-21 18:00 5.56 286 7150 (1958) 40 (1948) 633 40 40 70 92 212 504 637 2060 2920
2020-07-21 17:00 5.54 283 7150 (1958) 40 (1948) 633 40 40 70 92 212 504 637 2060 2920
2020-07-21 16:00 5.48 273 7150 (1958) 40 (1948) 633 40 40 70 92 212 504 637 2060 2920
2020-07-21 15:00 5.43 265 7150 (1958) 40 (1948) 633 40 40 70 92 212 504 637 2060 2920
2020-07-21 14:00 5.38 257 7150 (1958) 40 (1948) 633 40 40 70 92 212 504 637 2060 2920
2020-07-21 13:00 5.32 248 7150 (1958) 40 (1948) 633 40 40 70 92 212 504 637 2060 2920
2020-07-21 12:00 5.25 237 7150 (1958) 40 (1948) 633 40 40 70 92 212 504 637 2060 2920
2020-07-21 11:00 5.15 221 7150 (1958) 40 (1948) 633 40 40 70 92 212 504 637 2060 2920
2020-07-21 10:00 4.83 169 7150 (1958) 40 (1948) 633 40 40 70 92 212 504 637 2060 2920
2020-07-21 09:00 4.71 149 7150 (1958) 40 (1948) 633 40 40 70 92 212 504 637 2060 2920
2020-07-21 08:00 4.71 149 7150 (1958) 40 (1948) 633 40 40 70 92 212 504 637 2060 2920
2020-07-21 07:00 4.71 149 7150 (1958) 40 (1948) 633 40 40 70 92 212 504 637 2060 2920
2020-07-21 06:00 4.72 151 7150 (1958) 40 (1948) 633 40 40 70 92 212 504 637 2060 2920
2020-07-21 05:00 4.72 151 7150 (1958) 40 (1948) 633 40 40 70 92 212 504 637 2060 2920
2020-07-21 04:00 4.72 151 7150 (1958) 40 (1948) 633 40 40 70 92 212 504 637 2060 2920
2020-07-21 03:00 4.72 151 7150 (1958) 40 (1948) 633 40 40 70 92 212 504 637 2060 2920
2020-07-21 02:00 4.72 151 7150 (1958) 40 (1948) 633 40 40 70 92 212 504 637 2060 2920
2020-07-21 01:00 4.73 152 7150 (1958) 40 (1948) 633 40 40 70 92 212 504 637 2060 2920
2020-07-21 00:00 4.73 152 7150 (1958) 40 (1948) 633 40 40 70 92 212 504 637 2060 2920
2020-07-20 23:00 4.73 152 7880 (1958) 31 (1944) 647 40 40 71 123 220 488 665 2290 3150
2020-07-20 22:00 4.73 152 7880 (1958) 31 (1944) 647 40 40 71 123 220 488 665 2290 3150
2020-07-20 21:00 4.74 154 7880 (1958) 31 (1944) 647 40 40 71 123 220 488 665 2290 3150
2020-07-20 20:00 4.74 154 7880 (1958) 31 (1944) 647 40 40 71 123 220 488 665 2290 3150
2020-07-20 19:00 4.75 156 7880 (1958) 31 (1944) 647 40 40 71 123 220 488 665 2290 3150
2020-07-20 18:00 4.76 157 7880 (1958) 31 (1944) 647 40 40 71 123 220 488 665 2290 3150
2020-07-20 17:00 4.76 157 7880 (1958) 31 (1944) 647 40 40 71 123 220 488 665 2290 3150
2020-07-20 16:00 4.75 156 7880 (1958) 31 (1944) 647 40 40 71 123 220 488 665 2290 3150
2020-07-20 15:00 4.76 157 7880 (1958) 31 (1944) 647 40 40 71 123 220 488 665 2290 3150
2020-07-20 14:00 4.77 159 7880 (1958) 31 (1944) 647 40 40 71 123 220 488 665 2290 3150
2020-07-20 13:00 4.79 162 7880 (1958) 31 (1944) 647 40 40 71 123 220 488 665 2290 3150
2020-07-20 12:00 4.84 170 7880 (1958) 31 (1944) 647 40 40 71 123 220 488 665 2290 3150
2020-07-20 11:00 4.86 174 7880 (1958) 31 (1944) 647 40 40 71 123 220 488 665 2290 3150
2020-07-20 10:00 4.87 175 7880 (1958) 31 (1944) 647 40 40 71 123 220 488 665 2290 3150
2020-07-20 09:00 4.87 175 7880 (1958) 31 (1944) 647 40 40 71 123 220 488 665 2290 3150
2020-07-20 08:00 4.87 175 7880 (1958) 31 (1944) 647 40 40 71 123 220 488 665 2290 3150
2020-07-20 07:00 4.88 177 7880 (1958) 31 (1944) 647 40 40 71 123 220 488 665 2290 3150
2020-07-20 06:00 4.88 177 7880 (1958) 31 (1944) 647 40 40 71 123 220 488 665 2290 3150
2020-07-20 05:00 4.88 177 7880 (1958) 31 (1944) 647 40 40 71 123 220 488 665 2290 3150
2020-07-20 04:00 4.88 177 7880 (1958) 31 (1944) 647 40 40 71 123 220 488 665 2290 3150
2020-07-20 03:00 4.88 177 7880 (1958) 31 (1944) 647 40 40 71 123 220 488 665 2290 3150
2020-07-20 02:00 4.88 177 7880 (1958) 31 (1944) 647 40 40 71 123 220 488 665 2290 3150
2020-07-20 01:00 4.88 177 7880 (1958) 31 (1944) 647 40 40 71 123 220 488 665 2290 3150
2020-07-20 00:00 4.88 177 7880 (1958) 31 (1944) 647 40 40 71 123 220 488 665 2290 3150
2020-07-19 22:00 4.87 175 6740 (1958) 31 (1944) 615 40 40 52 74 214 499 522 2080 3440
2020-07-19 21:00 4.87 175 6740 (1958) 31 (1944) 615 40 40 52 74 214 499 522 2080 3440
2020-07-19 20:00 4.87 175 6740 (1958) 31 (1944) 615 40 40 52 74 214 499 522 2080 3440
2020-07-19 19:00 4.87 175 6740 (1958) 31 (1944) 615 40 40 52 74 214 499 522 2080 3440
2020-07-19 18:00 4.87 175 6740 (1958) 31 (1944) 615 40 40 52 74 214 499 522 2080 3440
2020-07-19 17:00 4.87 175 6740 (1958) 31 (1944) 615 40 40 52 74 214 499 522 2080 3440
2020-07-19 16:00 4.87 175 6740 (1958) 31 (1944) 615 40 40 52 74 214 499 522 2080 3440
2020-07-19 15:00 4.87 175 6740 (1958) 31 (1944) 615 40 40 52 74 214 499 522 2080 3440
2020-07-19 14:00 4.87 175 6740 (1958) 31 (1944) 615 40 40 52 74 214 499 522 2080 3440
2020-07-19 13:00 4.87 175 6740 (1958) 31 (1944) 615 40 40 52 74 214 499 522 2080 3440
2020-07-19 12:00 4.87 175 6740 (1958) 31 (1944) 615 40 40 52 74 214 499 522 2080 3440
2020-07-19 11:00 4.87 175 6740 (1958) 31 (1944) 615 40 40 52 74 214 499 522 2080 3440
2020-07-19 10:00 4.88 177 6740 (1958) 31 (1944) 615 40 40 52 74 214 499 522 2080 3440
2020-07-19 09:00 4.88 177 6740 (1958) 31 (1944) 615 40 40 52 74 214 499 522 2080 3440
2020-07-19 08:00 4.89 179 6740 (1958) 31 (1944) 615 40 40 52 74 214 499 522 2080 3440
2020-07-19 07:00 4.89 179 6740 (1958) 31 (1944) 615 40 40 52 74 214 499 522 2080 3440
2020-07-19 06:00 4.89 179 6740 (1958) 31 (1944) 615 40 40 52 74 214 499 522 2080 3440
2020-07-19 05:00 4.89 179 6740 (1958) 31 (1944) 615 40 40 52 74 214 499 522 2080 3440
2020-07-19 04:00 4.89 179 6740 (1958) 31 (1944) 615 40 40 52 74 214 499 522 2080 3440
2020-07-19 03:00 4.89 179 6740 (1958) 31 (1944) 615 40 40 52 74 214 499 522 2080 3440
2020-07-19 02:00 4.89 179 6740 (1958) 31 (1944) 615 40 40 52 74 214 499 522 2080 3440
2020-07-19 01:00 4.89 179 6740 (1958) 31 (1944) 615 40 40 52 74 214 499 522 2080 3440
2020-07-19 00:00 4.89 179 6740 (1958) 31 (1944) 615 40 40 52 74 214 499 522 2080 3440
2020-07-18 23:00 4.89 179 4650 (1945) 39 (1944) 609 40 40 54 75 213 470 540 1860 3610
2020-07-18 22:00 4.89 179 4650 (1945) 39 (1944) 609 40 40 54 75 213 470 540 1860 3610
2020-07-18 21:00 4.89 179 4650 (1945) 39 (1944) 609 40 40 54 75 213 470 540 1860 3610
2020-07-18 20:00 4.89 179 4650 (1945) 39 (1944) 609 40 40 54 75 213 470 540 1860 3610
2020-07-18 19:00 4.88 177 4650 (1945) 39 (1944) 609 40 40 54 75 213 470 540 1860 3610
2020-07-18 18:00 4.88 177 4650 (1945) 39 (1944) 609 40 40 54 75 213 470 540 1860 3610
2020-07-18 17:00 4.89 179 4650 (1945) 39 (1944) 609 40 40 54 75 213 470 540 1860 3610
2020-07-18 16:00 4.89 179 4650 (1945) 39 (1944) 609 40 40 54 75 213 470 540 1860 3610
2020-07-18 15:00 4.89 179 4650 (1945) 39 (1944) 609 40 40 54 75 213 470 540 1860 3610
2020-07-18 14:00 4.89 179 4650 (1945) 39 (1944) 609 40 40 54 75 213 470 540 1860 3610
2020-07-18 13:00 4.89 179 4650 (1945) 39 (1944) 609 40 40 54 75 213 470 540 1860 3610
2020-07-18 12:00 4.90 181 4650 (1945) 39 (1944) 609 40 40 54 75 213 470 540 1860 3610
2020-07-18 11:00 4.91 182 4650 (1945) 39 (1944) 609 40 40 54 75 213 470 540 1860 3610
2020-07-18 10:00 4.91 182 4650 (1945) 39 (1944) 609 40 40 54 75 213 470 540 1860 3610
2020-07-18 09:00 4.91 182 4650 (1945) 39 (1944) 609 40 40 54 75 213 470 540 1860 3610
2020-07-18 08:00 4.91 182 4650 (1945) 39 (1944) 609 40 40 54 75 213 470 540 1860 3610
2020-07-18 07:00 4.92 184 4650 (1945) 39 (1944) 609 40 40 54 75 213 470 540 1860 3610
2020-07-18 06:00 4.92 184 4650 (1945) 39 (1944) 609 40 40 54 75 213 470 540 1860 3610
2020-07-18 05:00 4.92 184 4650 (1945) 39 (1944) 609 40 40 54 75 213 470 540 1860 3610
2020-07-18 04:00 4.92 184 4650 (1945) 39 (1944) 609 40 40 54 75 213 470 540 1860 3610
2020-07-18 03:00 4.92 184 4650 (1945) 39 (1944) 609 40 40 54 75 213 470 540 1860 3610
2020-07-18 02:00 4.92 184 4650 (1945) 39 (1944) 609 40 40 54 75 213 470 540 1860 3610
2020-07-18 01:00 4.92 184 4650 (1945) 39 (1944) 609 40 40 54 75 213 470 540 1860 3610
2020-07-18 00:00 4.92 184 4650 (1945) 39 (1944) 609 40 40 54 75 213 470 540 1860 3610
2020-07-17 23:00 4.92 184 5240 (1951) 40 (1947) 630 40 40 81 91 220 580 793 1650 3360
2020-07-17 22:00 4.92 184 5240 (1951) 40 (1947) 630 40 40 81 91 220 580 793 1650 3360
2020-07-17 21:00 4.92 184 5240 (1951) 40 (1947) 630 40 40 81 91 220 580 793 1650 3360
2020-07-17 20:00 4.92 184 5240 (1951) 40 (1947) 630 40 40 81 91 220 580 793 1650 3360
2020-07-17 19:00 4.92 184 5240 (1951) 40 (1947) 630 40 40 81 91 220 580 793 1650 3360
2020-07-17 18:00 4.92 184 5240 (1951) 40 (1947) 630 40 40 81 91 220 580 793 1650 3360
2020-07-17 17:00 4.92 184 5240 (1951) 40 (1947) 630 40 40 81 91 220 580 793 1650 3360
2020-07-17 16:00 4.91 182 5240 (1951) 40 (1947) 630 40 40 81 91 220 580 793 1650 3360
2020-07-17 14:00 4.90 181 5240 (1951) 40 (1947) 630 40 40 81 91 220 580 793 1650 3360
2020-07-17 13:00 4.89 179 5240 (1951) 40 (1947) 630 40 40 81 91 220 580 793 1650 3360
2020-07-17 12:00 4.89 179 5240 (1951) 40 (1947) 630 40 40 81 91 220 580 793 1650 3360
2020-07-17 11:00 4.89 179 5240 (1951) 40 (1947) 630 40 40 81 91 220 580 793 1650 3360
2020-07-17 10:00 4.90 181 5240 (1951) 40 (1947) 630 40 40 81 91 220 580 793 1650 3360
2020-07-17 09:00 4.90 181 5240 (1951) 40 (1947) 630 40 40 81 91 220 580 793 1650 3360
2020-07-17 08:00 4.90 181 5240 (1951) 40 (1947) 630 40 40 81 91 220 580 793 1650 3360
2020-07-17 07:00 4.90 181 5240 (1951) 40 (1947) 630 40 40 81 91 220 580 793 1650 3360
2020-07-17 06:00 4.90 181 5240 (1951) 40 (1947) 630 40 40 81 91 220 580 793 1650 3360
2020-07-17 05:00 4.90 181 5240 (1951) 40 (1947) 630 40 40 81 91 220 580 793 1650 3360
2020-07-17 04:00 4.90 181 5240 (1951) 40 (1947) 630 40 40 81 91 220 580 793 1650 3360
2020-07-17 03:00 4.90 181 5240 (1951) 40 (1947) 630 40 40 81 91 220 580 793 1650 3360
2020-07-17 02:00 4.90 181 5240 (1951) 40 (1947) 630 40 40 81 91 220 580 793 1650 3360
2020-07-17 01:00 4.90 181 5240 (1951) 40 (1947) 630 40 40 81 91 220 580 793 1650 3360
2020-07-17 00:00 4.90 181 5240 (1951) 40 (1947) 630 40 40 81 91 220 580 793 1650 3360
2020-07-16 23:00 4.90 181 5900 (1951) 38 (1953) 637 40 40 87 112 220 571 799 1750 3410
2020-07-16 21:00 4.89 179 5900 (1951) 38 (1953) 637 40 40 87 112 220 571 799 1750 3410
2020-07-16 20:00 4.89 179 5900 (1951) 38 (1953) 637 40 40 87 112 220 571 799 1750 3410
2020-07-16 19:00 4.89 179 5900 (1951) 38 (1953) 637 40 40 87 112 220 571 799 1750 3410
2020-07-16 18:00 4.89 179 5900 (1951) 38 (1953) 637 40 40 87 112 220 571 799 1750 3410
2020-07-16 17:00 4.89 179 5900 (1951) 38 (1953) 637 40 40 87 112 220 571 799 1750 3410
2020-07-16 16:00 4.89 179 5900 (1951) 38 (1953) 637 40 40 87 112 220 571 799 1750 3410
2020-07-16 15:00 4.90 181 5900 (1951) 38 (1953) 637 40 40 87 112 220 571 799 1750 3410
2020-07-16 14:00 4.90 181 5900 (1951) 38 (1953) 637 40 40 87 112 220 571 799 1750 3410
2020-07-16 13:00 4.90 181 5900 (1951) 38 (1953) 637 40 40 87 112 220 571 799 1750 3410
2020-07-16 12:00 4.90 181 5900 (1951) 38 (1953) 637 40 40 87 112 220 571 799 1750 3410
2020-07-16 11:00 4.91 182 5900 (1951) 38 (1953) 637 40 40 87 112 220 571 799 1750 3410
2020-07-16 10:00 4.91 182 5900 (1951) 38 (1953) 637 40 40 87 112 220 571 799 1750 3410
2020-07-16 09:00 4.91 182 5900 (1951) 38 (1953) 637 40 40 87 112 220 571 799 1750 3410
2020-07-16 08:00 4.91 182 5900 (1951) 38 (1953) 637 40 40 87 112 220 571 799 1750 3410
2020-07-16 07:00 4.91 182 5900 (1951) 38 (1953) 637 40 40 87 112 220 571 799 1750 3410
2020-07-16 06:00 4.91 182 5900 (1951) 38 (1953) 637 40 40 87 112 220 571 799 1750 3410
2020-07-16 05:00 4.91 182 5900 (1951) 38 (1953) 637 40 40 87 112 220 571 799 1750 3410
2020-07-16 04:00 4.91 182 5900 (1951) 38 (1953) 637 40 40 87 112 220 571 799 1750 3410
2020-07-16 03:00 4.91 182 5900 (1951) 38 (1953) 637 40 40 87 112 220 571 799 1750 3410
2020-07-16 02:00 4.91 182 5900 (1951) 38 (1953) 637 40 40 87 112 220 571 799 1750 3410
2020-07-16 01:00 4.92 184 5900 (1951) 38 (1953) 637 40 40 87 112 220 571 799 1750 3410
2020-07-16 00:00 4.92 184 5900 (1951) 38 (1953) 637 40 40 87 112 220 571 799 1750 3410
2020-07-15 23:00 4.91 182 6390 (1951) 40 (1947) 633 40 40 83 150 216 450 643 2010 3450
2020-07-15 22:00 4.90 181 6390 (1951) 40 (1947) 633 40 40 83 150 216 450 643 2010 3450
2020-07-15 21:00 4.91 182 6390 (1951) 40 (1947) 633 40 40 83 150 216 450 643 2010 3450
2020-07-15 20:00 4.91 182 6390 (1951) 40 (1947) 633 40 40 83 150 216 450 643 2010 3450
2020-07-15 19:00 4.91 182 6390 (1951) 40 (1947) 633 40 40 83 150 216 450 643 2010 3450
2020-07-15 18:00 4.91 182 6390 (1951) 40 (1947) 633 40 40 83 150 216 450 643 2010 3450
2020-07-15 17:00 4.91 182 6390 (1951) 40 (1947) 633 40 40 83 150 216 450 643 2010 3450
2020-07-15 16:00 4.91 182 6390 (1951) 40 (1947) 633 40 40 83 150 216 450 643 2010 3450
2020-07-15 15:00 4.91 182 6390 (1951) 40 (1947) 633 40 40 83 150 216 450 643 2010 3450
2020-07-15 14:00 4.91 182 6390 (1951) 40 (1947) 633 40 40 83 150 216 450 643 2010 3450
2020-07-15 13:00 4.92 184 6390 (1951) 40 (1947) 633 40 40 83 150 216 450 643 2010 3450
2020-07-15 12:00 4.92 184 6390 (1951) 40 (1947) 633 40 40 83 150 216 450 643 2010 3450
2020-07-15 11:00 4.92 184 6390 (1951) 40 (1947) 633 40 40 83 150 216 450 643 2010 3450
2020-07-15 10:00 4.92 184 6390 (1951) 40 (1947) 633 40 40 83 150 216 450 643 2010 3450
2020-07-15 09:00 4.93 186 6390 (1951) 40 (1947) 633 40 40 83 150 216 450 643 2010 3450
2020-07-15 08:00 4.93 186 6390 (1951) 40 (1947) 633 40 40 83 150 216 450 643 2010 3450
2020-07-15 07:00 4.93 186 6390 (1951) 40 (1947) 633 40 40 83 150 216 450 643 2010 3450
2020-07-15 06:00 4.94 187 6390 (1951) 40 (1947) 633 40 40 83 150 216 450 643 2010 3450
2020-07-15 05:00 4.94 187 6390 (1951) 40 (1947) 633 40 40 83 150 216 450 643 2010 3450
2020-07-15 04:00 4.94 187 6390 (1951) 40 (1947) 633 40 40 83 150 216 450 643 2010 3450
2020-07-15 03:00 4.95 189 6390 (1951) 40 (1947) 633 40 40 83 150 216 450 643 2010 3450
2020-07-15 02:00 4.95 189 6390 (1951) 40 (1947) 633 40 40 83 150 216 450 643 2010 3450
2020-07-15 01:00 4.96 191 6390 (1951) 40 (1947) 633 40 40 83 150 216 450 643 2010 3450
2020-07-15 00:00 4.97 192 6390 (1951) 40 (1947) 633 40 40 83 150 216 450 643 2010 3450
2020-07-14 23:00 4.97 192 5450 (1951) 40 (1956) 622 40 40 91 108 220 538 711 1890 3480
2020-07-14 22:00 4.98 194 5450 (1951) 40 (1956) 622 40 40 91 108 220 538 711 1890 3480
2020-07-14 21:00 4.99 196 5450 (1951) 40 (1956) 622 40 40 91 108 220 538 711 1890 3480
2020-07-14 20:00 5.00 197 5450 (1951) 40 (1956) 622 40 40 91 108 220 538 711 1890 3480
2020-07-14 19:00 5.02 201 5450 (1951) 40 (1956) 622 40 40 91 108 220 538 711 1890 3480
2020-07-14 18:00 5.04 204 5450 (1951) 40 (1956) 622 40 40 91 108 220 538 711 1890 3480
2020-07-14 17:00 5.06 207 5450 (1951) 40 (1956) 622 40 40 91 108 220 538 711 1890 3480
2020-07-14 16:00 5.10 214 5450 (1951) 40 (1956) 622 40 40 91 108 220 538 711 1890 3480
2020-07-14 15:00 5.14 220 5450 (1951) 40 (1956) 622 40 40 91 108 220 538 711 1890 3480
2020-07-14 14:00 5.18 226 5450 (1951) 40 (1956) 622 40 40 91 108 220 538 711 1890 3480
2020-07-14 13:00 5.23 234 5450 (1951) 40 (1956) 622 40 40 91 108 220 538 711 1890 3480
2020-07-14 12:00 5.30 245 5450 (1951) 40 (1956) 622 40 40 91 108 220 538 711 1890 3480
2020-07-14 11:00 5.38 257 5450 (1951) 40 (1956) 622 40 40 91 108 220 538 711 1890 3480
2020-07-14 10:00 5.50 276 5450 (1951) 40 (1956) 622 40 40 91 108 220 538 711 1890 3480
2020-07-14 09:00 5.69 307 5450 (1951) 40 (1956) 622 40 40 91 108 220 538 711 1890 3480
2020-07-14 08:00 5.70 309 5450 (1951) 40 (1956) 622 40 40 91 108 220 538 711 1890 3480
2020-07-14 07:00 5.70 309 5450 (1951) 40 (1956) 622 40 40 91 108 220 538 711 1890 3480
2020-07-14 06:00 5.71 310 5450 (1951) 40 (1956) 622 40 40 91 108 220 538 711 1890 3480
2020-07-14 05:00 5.71 310 5450 (1951) 40 (1956) 622 40 40 91 108 220 538 711 1890 3480
2020-07-14 04:00 5.72 312 5450 (1951) 40 (1956) 622 40 40 91 108 220 538 711 1890 3480
2020-07-14 03:00 5.73 314 5450 (1951) 40 (1956) 622 40 40 91 108 220 538 711 1890 3480
2020-07-14 02:00 5.73 314 5450 (1951) 40 (1956) 622 40 40 91 108 220 538 711 1890 3480
2020-07-14 01:00 5.75 317 5450 (1951) 40 (1956) 622 40 40 91 108 220 538 711 1890 3480
2020-07-14 00:00 5.76 319 5450 (1951) 40 (1956) 622 40 40 91 108 220 538 711 1890 3480
2020-07-13 23:00 5.77 320 4650 (1945) 31 (1944) 649 40 43 104 163 227 467 703 2480 3450
2020-07-13 22:00 5.79 324 4650 (1945) 31 (1944) 649 40 43 104 163 227 467 703 2480 3450
2020-07-13 21:00 5.80 325 4650 (1945) 31 (1944) 649 40 43 104 163 227 467 703 2480 3450
2020-07-13 20:00 5.82 329 4650 (1945) 31 (1944) 649 40 43 104 163 227 467 703 2480 3450
2020-07-13 19:00 5.84 332 4650 (1945) 31 (1944) 649 40 43 104 163 227 467 703 2480 3450
2020-07-13 18:00 5.87 337 4650 (1945) 31 (1944) 649 40 43 104 163 227 467 703 2480 3450
2020-07-13 17:00 5.90 342 4650 (1945) 31 (1944) 649 40 43 104 163 227 467 703 2480 3450
2020-07-13 16:00 5.94 349 4650 (1945) 31 (1944) 649 40 43 104 163 227 467 703 2480 3450
2020-07-13 15:00 5.99 358 4650 (1945) 31 (1944) 649 40 43 104 163 227 467 703 2480 3450
2020-07-13 14:00 6.04 367 4650 (1945) 31 (1944) 649 40 43 104 163 227 467 703 2480 3450
2020-07-13 13:00 6.10 378 4650 (1945) 31 (1944) 649 40 43 104 163 227 467 703 2480 3450
2020-07-13 12:00 6.19 393 4650 (1945) 31 (1944) 649 40 43 104 163 227 467 703 2480 3450
2020-07-13 11:00 6.29 410 4650 (1945) 31 (1944) 649 40 43 104 163 227 467 703 2480 3450
2020-07-13 10:00 6.45 436 4650 (1945) 31 (1944) 649 40 43 104 163 227 467 703 2480 3450
2020-07-13 09:00 6.52 448 4650 (1945) 31 (1944) 649 40 43 104 163 227 467 703 2480 3450
2020-07-13 08:00 6.53 450 4650 (1945) 31 (1944) 649 40 43 104 163 227 467 703 2480 3450
2020-07-13 07:00 6.53 450 4650 (1945) 31 (1944) 649 40 43 104 163 227 467 703 2480 3450
2020-07-13 06:00 6.53 450 4650 (1945) 31 (1944) 649 40 43 104 163 227 467 703 2480 3450
2020-07-13 05:00 6.53 450 4650 (1945) 31 (1944) 649 40 43 104 163 227 467 703 2480 3450
2020-07-13 04:00 6.53 450 4650 (1945) 31 (1944) 649 40 43 104 163 227 467 703 2480 3450
2020-07-13 03:00 6.53 450 4650 (1945) 31 (1944) 649 40 43 104 163 227 467 703 2480 3450
2020-07-13 02:00 6.53 450 4650 (1945) 31 (1944) 649 40 43 104 163 227 467 703 2480 3450
2020-07-13 01:00 6.53 450 4650 (1945) 31 (1944) 649 40 43 104 163 227 467 703 2480 3450
2020-07-13 00:00 6.53 450 4650 (1945) 31 (1944) 649 40 43 104 163 227 467 703 2480 3450
2020-07-12 23:00 6.53 450 4700 (1945) 12 (1978) 699 40 57 107 162 245 498 997 2470 3180
2020-07-12 22:00 6.53 450 4700 (1945) 12 (1978) 699 40 57 107 162 245 498 997 2470 3180
2020-07-12 21:00 6.53 450 4700 (1945) 12 (1978) 699 40 57 107 162 245 498 997 2470 3180
2020-07-12 20:00 6.53 450 4700 (1945) 12 (1978) 699 40 57 107 162 245 498 997 2470 3180
2020-07-12 19:00 6.53 450 4700 (1945) 12 (1978) 699 40 57 107 162 245 498 997 2470 3180
2020-07-12 18:00 6.53 450 4700 (1945) 12 (1978) 699 40 57 107 162 245 498 997 2470 3180
2020-07-12 17:00 6.53 450 4700 (1945) 12 (1978) 699 40 57 107 162 245 498 997 2470 3180
2020-07-12 16:00 6.53 450 4700 (1945) 12 (1978) 699 40 57 107 162 245 498 997 2470 3180
2020-07-12 15:00 6.53 450 4700 (1945) 12 (1978) 699 40 57 107 162 245 498 997 2470 3180
2020-07-12 14:00 6.53 450 4700 (1945) 12 (1978) 699 40 57 107 162 245 498 997 2470 3180
2020-07-12 13:00 6.54 451 4700 (1945) 12 (1978) 699 40 57 107 162 245 498 997 2470 3180
2020-07-12 12:00 6.54 451 4700 (1945) 12 (1978) 699 40 57 107 162 245 498 997 2470 3180
2020-07-12 11:00 6.54 451 4700 (1945) 12 (1978) 699 40 57 107 162 245 498 997 2470 3180
2020-07-12 10:00 6.54 451 4700 (1945) 12 (1978) 699 40 57 107 162 245 498 997 2470 3180
2020-07-12 09:00 6.54 451 4700 (1945) 12 (1978) 699 40 57 107 162 245 498 997 2470 3180
2020-07-12 08:00 6.55 453 4700 (1945) 12 (1978) 699 40 57 107 162 245 498 997 2470 3180
2020-07-12 07:00 6.55 453 4700 (1945) 12 (1978) 699 40 57 107 162 245 498 997 2470 3180
2020-07-12 06:00 6.55 453 4700 (1945) 12 (1978) 699 40 57 107 162 245 498 997 2470 3180
2020-07-12 05:00 6.55 453 4700 (1945) 12 (1978) 699 40 57 107 162 245 498 997 2470 3180
2020-07-12 04:00 6.55 453 4700 (1945) 12 (1978) 699 40 57 107 162 245 498 997 2470 3180
2020-07-12 03:00 6.55 453 4700 (1945) 12 (1978) 699 40 57 107 162 245 498 997 2470 3180
2020-07-12 02:00 6.54 451 4700 (1945) 12 (1978) 699 40 57 107 162 245 498 997 2470 3180
2020-07-12 01:00 6.54 451 4700 (1945) 12 (1978) 699 40 57 107 162 245 498 997 2470 3180
2020-07-12 00:00 6.54 451 4700 (1945) 12 (1978) 699 40 57 107 162 245 498 997 2470 3180
2020-07-11 22:00 6.54 451 4700 (1945) 11 (1978) 708 39 40 76 100 226 642 1070 2610 3390
2020-07-11 21:00 6.54 451 4700 (1945) 11 (1978) 708 39 40 76 100 226 642 1070 2610 3390
2020-07-11 20:00 6.54 451 4700 (1945) 11 (1978) 708 39 40 76 100 226 642 1070 2610 3390
2020-07-11 19:00 6.54 451 4700 (1945) 11 (1978) 708 39 40 76 100 226 642 1070 2610 3390
2020-07-11 18:00 6.54 451 4700 (1945) 11 (1978) 708 39 40 76 100 226 642 1070 2610 3390
2020-07-11 17:00 6.54 451 4700 (1945) 11 (1978) 708 39 40 76 100 226 642 1070 2610 3390
2020-07-11 16:00 6.54 451 4700 (1945) 11 (1978) 708 39 40 76 100 226 642 1070 2610 3390
2020-07-11 15:00 6.54 451 4700 (1945) 11 (1978) 708 39 40 76 100 226 642 1070 2610 3390
2020-07-11 14:00 6.55 453 4700 (1945) 11 (1978) 708 39 40 76 100 226 642 1070 2610 3390
2020-07-11 13:00 6.54 451 4700 (1945) 11 (1978) 708 39 40 76 100 226 642 1070 2610 3390
2020-07-11 12:00 6.54 451 4700 (1945) 11 (1978) 708 39 40 76 100 226 642 1070 2610 3390
2020-07-11 11:00 6.54 451 4700 (1945) 11 (1978) 708 39 40 76 100 226 642 1070 2610 3390
2020-07-11 10:00 6.55 453 4700 (1945) 11 (1978) 708 39 40 76 100 226 642 1070 2610 3390
2020-07-11 09:00 6.55 453 4700 (1945) 11 (1978) 708 39 40 76 100 226 642 1070 2610 3390
2020-07-11 08:00 6.55 453 4700 (1945) 11 (1978) 708 39 40 76 100 226 642 1070 2610 3390
2020-07-11 07:00 6.56 455 4700 (1945) 11 (1978) 708 39 40 76 100 226 642 1070 2610 3390
2020-07-11 06:00 6.56 455 4700 (1945) 11 (1978) 708 39 40 76 100 226 642 1070 2610 3390
2020-07-11 05:00 6.56 455 4700 (1945) 11 (1978) 708 39 40 76 100 226 642 1070 2610 3390
2020-07-11 04:00 6.56 455 4700 (1945) 11 (1978) 708 39 40 76 100 226 642 1070 2610 3390
2020-07-11 03:00 6.56 455 4700 (1945) 11 (1978) 708 39 40 76 100 226 642 1070 2610 3390
2020-07-11 02:00 6.55 453 4700 (1945) 11 (1978) 708 39 40 76 100 226 642 1070 2610 3390
2020-07-11 01:00 6.55 453 4700 (1945) 11 (1978) 708 39 40 76 100 226 642 1070 2610 3390
2020-07-11 00:00 6.55 453 4700 (1945) 11 (1978) 708 39 40 76 100 226 642 1070 2610 3390
2020-07-10 23:00 6.55 453 4750 (1957) 15 (1978) 723 40 43 102 167 240 693 1120 2540 3200
2020-07-10 22:00 6.55 453 4750 (1957) 15 (1978) 723 40 43 102 167 240 693 1120 2540 3200
2020-07-10 21:00 6.55 453 4750 (1957) 15 (1978) 723 40 43 102 167 240 693 1120 2540 3200
2020-07-10 20:00 6.55 453 4750 (1957) 15 (1978) 723 40 43 102 167 240 693 1120 2540 3200
2020-07-10 19:00 6.55 453 4750 (1957) 15 (1978) 723 40 43 102 167 240 693 1120 2540 3200
2020-07-10 18:00 6.55 453 4750 (1957) 15 (1978) 723 40 43 102 167 240 693 1120 2540 3200
2020-07-10 17:00 6.54 451 4750 (1957) 15 (1978) 723 40 43 102 167 240 693 1120 2540 3200
2020-07-10 16:00 6.55 453 4750 (1957) 15 (1978) 723 40 43 102 167 240 693 1120 2540 3200
2020-07-10 15:00 6.55 453 4750 (1957) 15 (1978) 723 40 43 102 167 240 693 1120 2540 3200
2020-07-10 14:00 6.55 453 4750 (1957) 15 (1978) 723 40 43 102 167 240 693 1120 2540 3200
2020-07-10 13:00 6.55 453 4750 (1957) 15 (1978) 723 40 43 102 167 240 693 1120 2540 3200
2020-07-10 12:00 6.55 453 4750 (1957) 15 (1978) 723 40 43 102 167 240 693 1120 2540 3200
2020-07-10 11:00 6.56 455 4750 (1957) 15 (1978) 723 40 43 102 167 240 693 1120 2540 3200
2020-07-10 10:00 6.56 455 4750 (1957) 15 (1978) 723 40 43 102 167 240 693 1120 2540 3200
2020-07-10 09:00 6.56 455 4750 (1957) 15 (1978) 723 40 43 102 167 240 693 1120 2540 3200
2020-07-10 08:00 6.57 457 4750 (1957) 15 (1978) 723 40 43 102 167 240 693 1120 2540 3200
2020-07-10 07:00 6.57 457 4750 (1957) 15 (1978) 723 40 43 102 167 240 693 1120 2540 3200
2020-07-10 06:00 6.57 457 4750 (1957) 15 (1978) 723 40 43 102 167 240 693 1120 2540 3200
2020-07-10 05:00 6.57 457 4750 (1957) 15 (1978) 723 40 43 102 167 240 693 1120 2540 3200
2020-07-10 04:00 6.57 457 4750 (1957) 15 (1978) 723 40 43 102 167 240 693 1120 2540 3200
2020-07-10 03:00 6.57 457 4750 (1957) 15 (1978) 723 40 43 102 167 240 693 1120 2540 3200
2020-07-10 02:00 6.58 458 4750 (1957) 15 (1978) 723 40 43 102 167 240 693 1120 2540 3200
2020-07-10 01:00 6.57 457 4750 (1957) 15 (1978) 723 40 43 102 167 240 693 1120 2540 3200
2020-07-10 00:00 6.58 458 4750 (1957) 15 (1978) 723 40 43 102 167 240 693 1120 2540 3200
2020-07-09 23:00 6.58 458 5620 (1957) 7 (1978) 758 40 40 81 161 253 720 1150 2520 3170
2020-07-09 21:00 6.58 458 5620 (1957) 7 (1978) 758 40 40 81 161 253 720 1150 2520 3170
2020-07-09 20:00 6.58 458 5620 (1957) 7 (1978) 758 40 40 81 161 253 720 1150 2520 3170
2020-07-09 19:00 6.57 457 5620 (1957) 7 (1978) 758 40 40 81 161 253 720 1150 2520 3170
2020-07-09 18:00 6.58 458 5620 (1957) 7 (1978) 758 40 40 81 161 253 720 1150 2520 3170
2020-07-09 17:00 6.58 458 5620 (1957) 7 (1978) 758 40 40 81 161 253 720 1150 2520 3170
2020-07-09 16:00 6.58 458 5620 (1957) 7 (1978) 758 40 40 81 161 253 720 1150 2520 3170
2020-07-09 15:00 6.59 460 5620 (1957) 7 (1978) 758 40 40 81 161 253 720 1150 2520 3170
2020-07-09 14:00 6.59 460 5620 (1957) 7 (1978) 758 40 40 81 161 253 720 1150 2520 3170
2020-07-09 13:00 6.59 460 5620 (1957) 7 (1978) 758 40 40 81 161 253 720 1150 2520 3170
2020-07-09 12:00 6.60 462 5620 (1957) 7 (1978) 758 40 40 81 161 253 720 1150 2520 3170
2020-07-09 11:00 6.60 462 5620 (1957) 7 (1978) 758 40 40 81 161 253 720 1150 2520 3170
2020-07-09 10:00 6.61 463 5620 (1957) 7 (1978) 758 40 40 81 161 253 720 1150 2520 3170
2020-07-09 09:00 6.62 465 5620 (1957) 7 (1978) 758 40 40 81 161 253 720 1150 2520 3170
2020-07-09 08:00 6.63 467 5620 (1957) 7 (1978) 758 40 40 81 161 253 720 1150 2520 3170
2020-07-09 07:00 6.64 469 5620 (1957) 7 (1978) 758 40 40 81 161 253 720 1150 2520 3170
2020-07-09 06:00 6.65 470 5620 (1957) 7 (1978) 758 40 40 81 161 253 720 1150 2520 3170
2020-07-09 05:00 6.66 472 5620 (1957) 7 (1978) 758 40 40 81 161 253 720 1150 2520 3170
2020-07-09 04:00 6.68 476 5620 (1957) 7 (1978) 758 40 40 81 161 253 720 1150 2520 3170
2020-07-09 03:00 6.69 477 5620 (1957) 7 (1978) 758 40 40 81 161 253 720 1150 2520 3170
2020-07-09 02:00 6.71 481 5620 (1957) 7 (1978) 758 40 40 81 161 253 720 1150 2520 3170
2020-07-09 01:00 6.73 484 5620 (1957) 7 (1978) 758 40 40 81 161 253 720 1150 2520 3170
2020-07-09 00:00 6.74 486 5620 (1957) 7 (1978) 758 40 40 81 161 253 720 1150 2520 3170
2020-07-08 23:00 6.76 490 6650 (1957) 11 (1978) 802 40 40 92 161 279 741 1160 2690 3350
2020-07-08 22:00 6.80 497 6650 (1957) 11 (1978) 802 40 40 92 161 279 741 1160 2690 3350
2020-07-08 21:00 6.83 502 6650 (1957) 11 (1978) 802 40 40 92 161 279 741 1160 2690 3350
2020-07-08 20:00 6.87 509 6650 (1957) 11 (1978) 802 40 40 92 161 279 741 1160 2690 3350
2020-07-08 19:00 6.91 517 6650 (1957) 11 (1978) 802 40 40 92 161 279 741 1160 2690 3350
2020-07-08 18:00 6.96 525 6650 (1957) 11 (1978) 802 40 40 92 161 279 741 1160 2690 3350
2020-07-08 17:00 7.03 537 6650 (1957) 11 (1978) 802 40 40 92 161 279 741 1160 2690 3350
2020-07-08 16:00 7.11 551 6650 (1957) 11 (1978) 802 40 40 92 161 279 741 1160 2690 3350
2020-07-08 15:00 7.22 571 6650 (1957) 11 (1978) 802 40 40 92 161 279 741 1160 2690 3350
2020-07-08 14:00 7.36 597 6650 (1957) 11 (1978) 802 40 40 92 161 279 741 1160 2690 3350
2020-07-08 13:00 7.51 625 6650 (1957) 11 (1978) 802 40 40 92 161 279 741 1160 2690 3350
2020-07-08 12:00 7.52 627 6650 (1957) 11 (1978) 802 40 40 92 161 279 741 1160 2690 3350
2020-07-08 11:00 7.52 627 6650 (1957) 11 (1978) 802 40 40 92 161 279 741 1160 2690 3350
2020-07-08 10:00 7.52 627 6650 (1957) 11 (1978) 802 40 40 92 161 279 741 1160 2690 3350
2020-07-08 09:00 7.53 629 6650 (1957) 11 (1978) 802 40 40 92 161 279 741 1160 2690 3350
2020-07-08 08:00 7.53 629 6650 (1957) 11 (1978) 802 40 40 92 161 279 741 1160 2690 3350
2020-07-08 07:00 7.53 629 6650 (1957) 11 (1978) 802 40 40 92 161 279 741 1160 2690 3350
2020-07-08 06:00 7.53 629 6650 (1957) 11 (1978) 802 40 40 92 161 279 741 1160 2690 3350
2020-07-08 05:00 7.53 629 6650 (1957) 11 (1978) 802 40 40 92 161 279 741 1160 2690 3350
2020-07-08 04:00 7.54 631 6650 (1957) 11 (1978) 802 40 40 92 161 279 741 1160 2690 3350
2020-07-08 03:00 7.53 629 6650 (1957) 11 (1978) 802 40 40 92 161 279 741 1160 2690 3350
2020-07-08 02:00 7.53 629 6650 (1957) 11 (1978) 802 40 40 92 161 279 741 1160 2690 3350
2020-07-08 01:00 7.53 629 6650 (1957) 11 (1978) 802 40 40 92 161 279 741 1160 2690 3350
2020-07-08 00:00 7.53 629 6650 (1957) 11 (1978) 802 40 40 92 161 279 741 1160 2690 3350
2020-07-07 23:00 7.53 629 7730 (1957) 9 (1978) 843 40 40 99 170 301 810 1150 2760 3410
2020-07-07 22:00 7.53 629 7730 (1957) 9 (1978) 843 40 40 99 170 301 810 1150 2760 3410
2020-07-07 21:00 7.53 629 7730 (1957) 9 (1978) 843 40 40 99 170 301 810 1150 2760 3410
2020-07-07 20:00 7.53 629 7730 (1957) 9 (1978) 843 40 40 99 170 301 810 1150 2760 3410
2020-07-07 19:00 7.53 629 7730 (1957) 9 (1978) 843 40 40 99 170 301 810 1150 2760 3410
2020-07-07 18:00 7.53 629 7730 (1957) 9 (1978) 843 40 40 99 170 301 810 1150 2760 3410
2020-07-07 17:00 7.54 631 7730 (1957) 9 (1978) 843 40 40 99 170 301 810 1150 2760 3410
2020-07-07 16:00 7.53 629 7730 (1957) 9 (1978) 843 40 40 99 170 301 810 1150 2760 3410
2020-07-07 15:00 7.54 631 7730 (1957) 9 (1978) 843 40 40 99 170 301 810 1150 2760 3410
2020-07-07 14:00 7.54 631 7730 (1957) 9 (1978) 843 40 40 99 170 301 810 1150 2760 3410
2020-07-07 13:00 7.54 631 7730 (1957) 9 (1978) 843 40 40 99 170 301 810 1150 2760 3410
2020-07-07 12:00 7.54 631 7730 (1957) 9 (1978) 843 40 40 99 170 301 810 1150 2760 3410
2020-07-07 11:00 7.54 631 7730 (1957) 9 (1978) 843 40 40 99 170 301 810 1150 2760 3410
2020-07-07 10:00 7.55 633 7730 (1957) 9 (1978) 843 40 40 99 170 301 810 1150 2760 3410
2020-07-07 09:00 7.55 633 7730 (1957) 9 (1978) 843 40 40 99 170 301 810 1150 2760 3410
2020-07-07 08:00 7.56 635 7730 (1957) 9 (1978) 843 40 40 99 170 301 810 1150 2760 3410
2020-07-07 07:00 7.55 633 7730 (1957) 9 (1978) 843 40 40 99 170 301 810 1150 2760 3410
2020-07-07 06:00 7.56 635 7730 (1957) 9 (1978) 843 40 40 99 170 301 810 1150 2760 3410
2020-07-07 05:00 7.56 635 7730 (1957) 9 (1978) 843 40 40 99 170 301 810 1150 2760 3410
2020-07-07 04:00 7.56 635 7730 (1957) 9 (1978) 843 40 40 99 170 301 810 1150 2760 3410
2020-07-07 03:00 7.55 633 7730 (1957) 9 (1978) 843 40 40 99 170 301 810 1150 2760 3410
2020-07-07 02:00 7.55 633 7730 (1957) 9 (1978) 843 40 40 99 170 301 810 1150 2760 3410
2020-07-07 01:00 7.55 633 7730 (1957) 9 (1978) 843 40 40 99 170 301 810 1150 2760 3410
2020-07-07 00:00 7.55 633 7730 (1957) 9 (1978) 843 40 40 99 170 301 810 1150 2760 3410
2020-07-06 23:00 7.55 633 8700 (1957) 6 (1978) 846 37 40 84 170 312 856 943 2900 3570
2020-07-06 22:00 7.55 633 8700 (1957) 6 (1978) 846 37 40 84 170 312 856 943 2900 3570
2020-07-06 21:00 7.55 633 8700 (1957) 6 (1978) 846 37 40 84 170 312 856 943 2900 3570
2020-07-06 20:00 7.55 633 8700 (1957) 6 (1978) 846 37 40 84 170 312 856 943 2900 3570
2020-07-06 19:00 7.55 633 8700 (1957) 6 (1978) 846 37 40 84 170 312 856 943 2900 3570
2020-07-06 18:00 7.55 633 8700 (1957) 6 (1978) 846 37 40 84 170 312 856 943 2900 3570
2020-07-06 17:00 7.55 633 8700 (1957) 6 (1978) 846 37 40 84 170 312 856 943 2900 3570
2020-07-06 16:00 7.55 633 8700 (1957) 6 (1978) 846 37 40 84 170 312 856 943 2900 3570
2020-07-06 15:00 7.55 633 8700 (1957) 6 (1978) 846 37 40 84 170 312 856 943 2900 3570
2020-07-06 14:00 7.54 631 8700 (1957) 6 (1978) 846 37 40 84 170 312 856 943 2900 3570
2020-07-06 13:00 7.54 631 8700 (1957) 6 (1978) 846 37 40 84 170 312 856 943 2900 3570
2020-07-06 12:00 7.55 633 8700 (1957) 6 (1978) 846 37 40 84 170 312 856 943 2900 3570
2020-07-06 11:00 7.55 633 8700 (1957) 6 (1978) 846 37 40 84 170 312 856 943 2900 3570
2020-07-06 10:00 7.54 631 8700 (1957) 6 (1978) 846 37 40 84 170 312 856 943 2900 3570
2020-07-06 09:00 7.55 633 8700 (1957) 6 (1978) 846 37 40 84 170 312 856 943 2900 3570
2020-07-06 08:00 7.54 631 8700 (1957) 6 (1978) 846 37 40 84 170 312 856 943 2900 3570
2020-07-06 07:00 7.55 633 8700 (1957) 6 (1978) 846 37 40 84 170 312 856 943 2900 3570
2020-07-06 06:00 7.54 631 8700 (1957) 6 (1978) 846 37 40 84 170 312 856 943 2900 3570
2020-07-06 05:00 7.54 631 8700 (1957) 6 (1978) 846 37 40 84 170 312 856 943 2900 3570
2020-07-06 04:00 7.53 629 8700 (1957) 6 (1978) 846 37 40 84 170 312 856 943 2900 3570
2020-07-06 03:00 7.52 627 8700 (1957) 6 (1978) 846 37 40 84 170 312 856 943 2900 3570
2020-07-06 02:00 7.52 627 8700 (1957) 6 (1978) 846 37 40 84 170 312 856 943 2900 3570
2020-07-06 01:00 7.51 625 8700 (1957) 6 (1978) 846 37 40 84 170 312 856 943 2900 3570
2020-07-06 00:00 7.50 623 8700 (1957) 6 (1978) 846 37 40 84 170 312 856 943 2900 3570
2020-07-05 23:00 7.49 622 9450 (1957) 10 (1978) 875 39 56 113 193 332 941 1050 2830 3780
2020-07-05 21:00 7.46 616 9450 (1957) 10 (1978) 875 39 56 113 193 332 941 1050 2830 3780
2020-07-05 20:00 7.44 612 9450 (1957) 10 (1978) 875 39 56 113 193 332 941 1050 2830 3780
2020-07-05 19:00 7.42 608 9450 (1957) 10 (1978) 875 39 56 113 193 332 941 1050 2830 3780
2020-07-05 18:00 7.40 605 9450 (1957) 10 (1978) 875 39 56 113 193 332 941 1050 2830 3780
2020-07-05 17:00 7.37 599 9450 (1957) 10 (1978) 875 39 56 113 193 332 941 1050 2830 3780
2020-07-05 16:00 7.35 595 9450 (1957) 10 (1978) 875 39 56 113 193 332 941 1050 2830 3780
2020-07-05 15:00 7.32 590 9450 (1957) 10 (1978) 875 39 56 113 193 332 941 1050 2830 3780
2020-07-05 14:00 7.28 582 9450 (1957) 10 (1978) 875 39 56 113 193 332 941 1050 2830 3780
2020-07-05 13:00 7.23 573 9450 (1957) 10 (1978) 875 39 56 113 193 332 941 1050 2830 3780
2020-07-05 12:00 7.18 564 9450 (1957) 10 (1978) 875 39 56 113 193 332 941 1050 2830 3780
2020-07-05 11:00 7.10 549 9450 (1957) 10 (1978) 875 39 56 113 193 332 941 1050 2830 3780
2020-07-05 10:00 7.01 533 9450 (1957) 10 (1978) 875 39 56 113 193 332 941 1050 2830 3780
2020-07-05 09:00 6.88 511 9450 (1957) 10 (1978) 875 39 56 113 193 332 941 1050 2830 3780
2020-07-05 08:00 6.63 467 9450 (1957) 10 (1978) 875 39 56 113 193 332 941 1050 2830 3780
2020-07-05 07:00 6.62 465 9450 (1957) 10 (1978) 875 39 56 113 193 332 941 1050 2830 3780
2020-07-05 06:00 6.62 465 9450 (1957) 10 (1978) 875 39 56 113 193 332 941 1050 2830 3780
2020-07-05 05:00 6.62 465 9450 (1957) 10 (1978) 875 39 56 113 193 332 941 1050 2830 3780
2020-07-05 04:00 6.62 465 9450 (1957) 10 (1978) 875 39 56 113 193 332 941 1050 2830 3780
2020-07-05 03:00 6.62 465 9450 (1957) 10 (1978) 875 39 56 113 193 332 941 1050 2830 3780
2020-07-05 02:00 6.61 463 9450 (1957) 10 (1978) 875 39 56 113 193 332 941 1050 2830 3780
2020-07-05 01:00 6.61 463 9450 (1957) 10 (1978) 875 39 56 113 193 332 941 1050 2830 3780
2020-07-05 00:00 6.61 463 9450 (1957) 10 (1978) 875 39 56 113 193 332 941 1050 2830 3780
2020-07-04 23:00 6.61 463 10000 (1957) 4 (1978) 982 45 86 180 199 342 1090 1510 2930 4030
2020-07-04 22:00 6.61 463 10000 (1957) 4 (1978) 982 45 86 180 199 342 1090 1510 2930 4030
2020-07-04 21:00 6.61 463 10000 (1957) 4 (1978) 982 45 86 180 199 342 1090 1510 2930 4030
2020-07-04 20:00 6.61 463 10000 (1957) 4 (1978) 982 45 86 180 199 342 1090 1510 2930 4030
2020-07-04 19:00 6.60 462 10000 (1957) 4 (1978) 982 45 86 180 199 342 1090 1510 2930 4030
2020-07-04 18:00 6.61 463 10000 (1957) 4 (1978) 982 45 86 180 199 342 1090 1510 2930 4030
2020-07-04 17:00 6.60 462 10000 (1957) 4 (1978) 982 45 86 180 199 342 1090 1510 2930 4030
2020-07-04 16:00 6.60 462 10000 (1957) 4 (1978) 982 45 86 180 199 342 1090 1510 2930 4030
2020-07-04 15:00 6.61 463 10000 (1957) 4 (1978) 982 45 86 180 199 342 1090 1510 2930 4030
2020-07-04 14:00 6.61 463 10000 (1957) 4 (1978) 982 45 86 180 199 342 1090 1510 2930 4030
2020-07-04 13:00 6.61 463 10000 (1957) 4 (1978) 982 45 86 180 199 342 1090 1510 2930 4030
2020-07-04 12:00 6.61 463 10000 (1957) 4 (1978) 982 45 86 180 199 342 1090 1510 2930 4030
2020-07-04 11:00 6.61 463 10000 (1957) 4 (1978) 982 45 86 180 199 342 1090 1510 2930 4030
2020-07-04 10:00 6.61 463 10000 (1957) 4 (1978) 982 45 86 180 199 342 1090 1510 2930 4030
2020-07-04 09:00 6.61 463 10000 (1957) 4 (1978) 982 45 86 180 199 342 1090 1510 2930 4030
2020-07-04 08:00 6.62 465 10000 (1957) 4 (1978) 982 45 86 180 199 342 1090 1510 2930 4030
2020-07-04 07:00 6.62 465 10000 (1957) 4 (1978) 982 45 86 180 199 342 1090 1510 2930 4030
2020-07-04 06:00 6.62 465 10000 (1957) 4 (1978) 982 45 86 180 199 342 1090 1510 2930 4030
2020-07-04 05:00 6.62 465 10000 (1957) 4 (1978) 982 45 86 180 199 342 1090 1510 2930 4030
2020-07-04 04:00 6.62 465 10000 (1957) 4 (1978) 982 45 86 180 199 342 1090 1510 2930 4030
2020-07-04 03:00 6.62 465 10000 (1957) 4 (1978) 982 45 86 180 199 342 1090 1510 2930 4030
2020-07-04 02:00 6.62 465 10000 (1957) 4 (1978) 982 45 86 180 199 342 1090 1510 2930 4030
2020-07-04 01:00 6.61 463 10000 (1957) 4 (1978) 982 45 86 180 199 342 1090 1510 2930 4030
2020-07-04 00:00 6.62 465 10000 (1957) 4 (1978) 982 45 86 180 199 342 1090 1510 2930 4030
2020-07-03 23:00 6.61 463 9980 (1957) 8 (1978) 1050 40 61 180 200 340 1270 1570 3240 4160
2020-07-03 22:00 6.61 463 9980 (1957) 8 (1978) 1050 40 61 180 200 340 1270 1570 3240 4160
2020-07-03 21:00 6.62 465 9980 (1957) 8 (1978) 1050 40 61 180 200 340 1270 1570 3240 4160
2020-07-03 20:00 6.61 463 9980 (1957) 8 (1978) 1050 40 61 180 200 340 1270 1570 3240 4160
2020-07-03 19:00 6.61 463 9980 (1957) 8 (1978) 1050 40 61 180 200 340 1270 1570 3240 4160
2020-07-03 18:00 6.61 463 9980 (1957) 8 (1978) 1050 40 61 180 200 340 1270 1570 3240 4160
2020-07-03 17:00 6.61 463 9980 (1957) 8 (1978) 1050 40 61 180 200 340 1270 1570 3240 4160
2020-07-03 16:00 6.61 463 9980 (1957) 8 (1978) 1050 40 61 180 200 340 1270 1570 3240 4160
2020-07-03 15:00 6.61 463 9980 (1957) 8 (1978) 1050 40 61 180 200 340 1270 1570 3240 4160
2020-07-03 14:00 6.62 465 9980 (1957) 8 (1978) 1050 40 61 180 200 340 1270 1570 3240 4160
2020-07-03 13:00 6.61 463 9980 (1957) 8 (1978) 1050 40 61 180 200 340 1270 1570 3240 4160
2020-07-03 12:00 6.61 463 9980 (1957) 8 (1978) 1050 40 61 180 200 340 1270 1570 3240 4160
2020-07-03 11:00 6.62 465 9980 (1957) 8 (1978) 1050 40 61 180 200 340 1270 1570 3240 4160
2020-07-03 10:00 6.62 465 9980 (1957) 8 (1978) 1050 40 61 180 200 340 1270 1570 3240 4160
2020-07-03 09:00 6.62 465 9980 (1957) 8 (1978) 1050 40 61 180 200 340 1270 1570 3240 4160
2020-07-03 08:00 6.63 467 9980 (1957) 8 (1978) 1050 40 61 180 200 340 1270 1570 3240 4160
2020-07-03 07:00 6.62 465 9980 (1957) 8 (1978) 1050 40 61 180 200 340 1270 1570 3240 4160
2020-07-03 06:00 6.63 467 9980 (1957) 8 (1978) 1050 40 61 180 200 340 1270 1570 3240 4160
2020-07-03 05:00 6.63 467 9980 (1957) 8 (1978) 1050 40 61 180 200 340 1270 1570 3240 4160
2020-07-03 04:00 6.63 467 9980 (1957) 8 (1978) 1050 40 61 180 200 340 1270 1570 3240 4160
2020-07-03 03:00 6.63 467 9980 (1957) 8 (1978) 1050 40 61 180 200 340 1270 1570 3240 4160
2020-07-03 02:00 6.62 465 9980 (1957) 8 (1978) 1050 40 61 180 200 340 1270 1570 3240 4160
2020-07-03 01:00 6.62 465 9980 (1957) 8 (1978) 1050 40 61 180 200 340 1270 1570 3240 4160
2020-07-03 00:00 6.62 465 9980 (1957) 8 (1978) 1050 40 61 180 200 340 1270 1570 3240 4160
2020-07-02 23:00 6.62 465 9800 (1957) 6 (1978) 1070 40 50 166 199 320 1240 1420 3260 4580
2020-07-02 22:00 6.62 465 9800 (1957) 6 (1978) 1070 40 50 166 199 320 1240 1420 3260 4580
2020-07-02 21:00 6.62 465 9800 (1957) 6 (1978) 1070 40 50 166 199 320 1240 1420 3260 4580
2020-07-02 20:00 6.62 465 9800 (1957) 6 (1978) 1070 40 50 166 199 320 1240 1420 3260 4580
2020-07-02 19:00 6.61 463 9800 (1957) 6 (1978) 1070 40 50 166 199 320 1240 1420 3260 4580
2020-07-02 18:00 6.62 465 9800 (1957) 6 (1978) 1070 40 50 166 199 320 1240 1420 3260 4580
2020-07-02 17:00 6.62 465 9800 (1957) 6 (1978) 1070 40 50 166 199 320 1240 1420 3260 4580
2020-07-02 16:00 6.62 465 9800 (1957) 6 (1978) 1070 40 50 166 199 320 1240 1420 3260 4580
2020-07-02 15:00 6.62 465 9800 (1957) 6 (1978) 1070 40 50 166 199 320 1240 1420 3260 4580
2020-07-02 14:00 6.62 465 9800 (1957) 6 (1978) 1070 40 50 166 199 320 1240 1420 3260 4580
2020-07-02 13:00 6.62 465 9800 (1957) 6 (1978) 1070 40 50 166 199 320 1240 1420 3260 4580
2020-07-02 12:00 6.63 467 9800 (1957) 6 (1978) 1070 40 50 166 199 320 1240 1420 3260 4580
2020-07-02 11:00 6.63 467 9800 (1957) 6 (1978) 1070 40 50 166 199 320 1240 1420 3260 4580
2020-07-02 10:00 6.63 467 9800 (1957) 6 (1978) 1070 40 50 166 199 320 1240 1420 3260 4580
2020-07-02 09:00 6.64 469 9800 (1957) 6 (1978) 1070 40 50 166 199 320 1240 1420 3260 4580
2020-07-02 08:00 6.64 469 9800 (1957) 6 (1978) 1070 40 50 166 199 320 1240 1420 3260 4580
2020-07-02 07:00 6.64 469 9800 (1957) 6 (1978) 1070 40 50 166 199 320 1240 1420 3260 4580
2020-07-02 06:00 6.64 469 9800 (1957) 6 (1978) 1070 40 50 166 199 320 1240 1420 3260 4580
2020-07-02 05:00 6.65 470 9800 (1957) 6 (1978) 1070 40 50 166 199 320 1240 1420 3260 4580
2020-07-02 04:00 6.64 469 9800 (1957) 6 (1978) 1070 40 50 166 199 320 1240 1420 3260 4580
2020-07-02 03:00 6.65 470 9800 (1957) 6 (1978) 1070 40 50 166 199 320 1240 1420 3260 4580
2020-07-02 02:00 6.65 470 9800 (1957) 6 (1978) 1070 40 50 166 199 320 1240 1420 3260 4580
2020-07-02 01:00 6.65 470 9800 (1957) 6 (1978) 1070 40 50 166 199 320 1240 1420 3260 4580
2020-07-02 00:00 6.65 470 9800 (1957) 6 (1978) 1070 40 50 166 199 320 1240 1420 3260 4580
2020-07-01 23:00 6.65 470 7220 (1957) 5 (1978) 1090 40 44 166 200 513 1450 1740 3230 4780
2020-07-01 22:00 6.65 470 7220 (1957) 5 (1978) 1090 40 44 166 200 513 1450 1740 3230 4780
2020-07-01 21:00 6.65 470 7220 (1957) 5 (1978) 1090 40 44 166 200 513 1450 1740 3230 4780
2020-07-01 20:00 6.66 472 7220 (1957) 5 (1978) 1090 40 44 166 200 513 1450 1740 3230 4780
2020-07-01 19:00 6.66 472 7220 (1957) 5 (1978) 1090 40 44 166 200 513 1450 1740 3230 4780
2020-07-01 18:00 6.65 470 7220 (1957) 5 (1978) 1090 40 44 166 200 513 1450 1740 3230 4780
2020-07-01 17:00 6.66 472 7220 (1957) 5 (1978) 1090 40 44 166 200 513 1450 1740 3230 4780
2020-07-01 16:00 6.66 472 7220 (1957) 5 (1978) 1090 40 44 166 200 513 1450 1740 3230 4780
2020-07-01 15:00 6.66 472 7220 (1957) 5 (1978) 1090 40 44 166 200 513 1450 1740 3230 4780
2020-07-01 14:00 6.66 472 7220 (1957) 5 (1978) 1090 40 44 166 200 513 1450 1740 3230 4780
2020-07-01 13:00 6.63 467 7220 (1957) 5 (1978) 1090 40 44 166 200 513 1450 1740 3230 4780
2020-07-01 12:00 6.62 465 7220 (1957) 5 (1978) 1090 40 44 166 200 513 1450 1740 3230 4780
2020-07-01 11:00 6.61 463 7220 (1957) 5 (1978) 1090 40 44 166 200 513 1450 1740 3230 4780
2020-07-01 10:00 6.62 465 7220 (1957) 5 (1978) 1090 40 44 166 200 513 1450 1740 3230 4780
2020-07-01 09:00 6.62 465 7220 (1957) 5 (1978) 1090 40 44 166 200 513 1450 1740 3230 4780
2020-07-01 08:00 6.62 465 7220 (1957) 5 (1978) 1090 40 44 166 200 513 1450 1740 3230 4780
2020-07-01 07:00 6.62 465 7220 (1957) 5 (1978) 1090 40 44 166 200 513 1450 1740 3230 4780
2020-07-01 06:00 6.62 465 7220 (1957) 5 (1978) 1090 40 44 166 200 513 1450 1740 3230 4780
2020-07-01 05:00 6.62 465 7220 (1957) 5 (1978) 1090 40 44 166 200 513 1450 1740 3230 4780
2020-07-01 04:00 6.62 465 7220 (1957) 5 (1978) 1090 40 44 166 200 513 1450 1740 3230 4780
2020-07-01 03:00 6.62 465 7220 (1957) 5 (1978) 1090 40 44 166 200 513 1450 1740 3230 4780
2020-07-01 02:00 6.62 465 7220 (1957) 5 (1978) 1090 40 44 166 200 513 1450 1740 3230 4780
2020-07-01 01:00 6.62 465 7220 (1957) 5 (1978) 1090 40 44 166 200 513 1450 1740 3230 4780
2020-07-01 00:00 6.61 463 7220 (1957) 5 (1978) 1090 40 44 166 200 513 1450 1740 3230 4780
2020-06-30 23:00 6.62 465 5200 (1947) 9 (1978) 1050 53 87 177 200 432 1600 1950 2870 4130
2020-06-30 22:00 6.61 463 5200 (1947) 9 (1978) 1050 53 87 177 200 432 1600 1950 2870 4130
2020-06-30 21:00 6.61 463 5200 (1947) 9 (1978) 1050 53 87 177 200 432 1600 1950 2870 4130
2020-06-30 20:00 6.61 463 5200 (1947) 9 (1978) 1050 53 87 177 200 432 1600 1950 2870 4130
2020-06-30 19:00 6.61 463 5200 (1947) 9 (1978) 1050 53 87 177 200 432 1600 1950 2870 4130
2020-06-30 18:00 6.61 463 5200 (1947) 9 (1978) 1050 53 87 177 200 432 1600 1950 2870 4130
2020-06-30 17:00 6.61 463 5200 (1947) 9 (1978) 1050 53 87 177 200 432 1600 1950 2870 4130
2020-06-30 16:00 6.61 463 5200 (1947) 9 (1978) 1050 53 87 177 200 432 1600 1950 2870 4130
2020-06-30 15:00 6.61 463 5200 (1947) 9 (1978) 1050 53 87 177 200 432 1600 1950 2870 4130
2020-06-30 14:00 6.61 463 5200 (1947) 9 (1978) 1050 53 87 177 200 432 1600 1950 2870 4130
2020-06-30 13:00 6.61 463 5200 (1947) 9 (1978) 1050 53 87 177 200 432 1600 1950 2870 4130
2020-06-30 12:00 6.61 463 5200 (1947) 9 (1978) 1050 53 87 177 200 432 1600 1950 2870 4130
2020-06-30 11:00 6.61 463 5200 (1947) 9 (1978) 1050 53 87 177 200 432 1600 1950 2870 4130
2020-06-30 10:00 6.61 463 5200 (1947) 9 (1978) 1050 53 87 177 200 432 1600 1950 2870 4130
2020-06-30 09:00 6.61 463 5200 (1947) 9 (1978) 1050 53 87 177 200 432 1600 1950 2870 4130
2020-06-30 08:00 6.61 463 5200 (1947) 9 (1978) 1050 53 87 177 200 432 1600 1950 2870 4130
2020-06-30 07:00 6.61 463 5200 (1947) 9 (1978) 1050 53 87 177 200 432 1600 1950 2870 4130
2020-06-30 06:00 6.62 465 5200 (1947) 9 (1978) 1050 53 87 177 200 432 1600 1950 2870 4130
2020-06-30 05:00 6.62 465 5200 (1947) 9 (1978) 1050 53 87 177 200 432 1600 1950 2870 4130
2020-06-30 04:00 6.61 463 5200 (1947) 9 (1978) 1050 53 87 177 200 432 1600 1950 2870 4130
2020-06-30 03:00 6.61 463 5200 (1947) 9 (1978) 1050 53 87 177 200 432 1600 1950 2870 4130
2020-06-30 02:00 6.61 463 5200 (1947) 9 (1978) 1050 53 87 177 200 432 1600 1950 2870 4130
2020-06-30 01:00 6.61 463 5200 (1947) 9 (1978) 1050 53 87 177 200 432 1600 1950 2870 4130
2020-06-30 00:00 6.61 463 5200 (1947) 9 (1978) 1050 53 87 177 200 432 1600 1950 2870 4130
2020-06-29 23:00 6.61 463 5750 (1947) 3 (1978) 1060 48 75 200 220 460 1670 2020 2840 4190
2020-06-29 22:00 6.61 463 5750 (1947) 3 (1978) 1060 48 75 200 220 460 1670 2020 2840 4190
2020-06-29 21:00 6.61 463 5750 (1947) 3 (1978) 1060 48 75 200 220 460 1670 2020 2840 4190
2020-06-29 20:00 6.61 463 5750 (1947) 3 (1978) 1060 48 75 200 220 460 1670 2020 2840 4190
2020-06-29 19:00 6.61 463 5750 (1947) 3 (1978) 1060 48 75 200 220 460 1670 2020 2840 4190
2020-06-29 18:00 6.61 463 5750 (1947) 3 (1978) 1060 48 75 200 220 460 1670 2020 2840 4190
2020-06-29 17:00 6.61 463 5750 (1947) 3 (1978) 1060 48 75 200 220 460 1670 2020 2840 4190
2020-06-29 16:00 6.61 463 5750 (1947) 3 (1978) 1060 48 75 200 220 460 1670 2020 2840 4190
2020-06-29 15:00 6.61 463 5750 (1947) 3 (1978) 1060 48 75 200 220 460 1670 2020 2840 4190
2020-06-29 14:00 6.61 463 5750 (1947) 3 (1978) 1060 48 75 200 220 460 1670 2020 2840 4190
2020-06-29 13:00 6.61 463 5750 (1947) 3 (1978) 1060 48 75 200 220 460 1670 2020 2840 4190
2020-06-29 12:00 6.62 465 5750 (1947) 3 (1978) 1060 48 75 200 220 460 1670 2020 2840 4190
2020-06-29 11:00 6.62 465 5750 (1947) 3 (1978) 1060 48 75 200 220 460 1670 2020 2840 4190
2020-06-29 10:00 6.62 465 5750 (1947) 3 (1978) 1060 48 75 200 220 460 1670 2020 2840 4190
2020-06-29 09:00 6.62 465 5750 (1947) 3 (1978) 1060 48 75 200 220 460 1670 2020 2840 4190
2020-06-29 08:00 6.62 465 5750 (1947) 3 (1978) 1060 48 75 200 220 460 1670 2020 2840 4190
2020-06-29 07:00 6.62 465 5750 (1947) 3 (1978) 1060 48 75 200 220 460 1670 2020 2840 4190
2020-06-29 06:00 6.62 465 5750 (1947) 3 (1978) 1060 48 75 200 220 460 1670 2020 2840 4190
2020-06-29 05:00 6.62 465 5750 (1947) 3 (1978) 1060 48 75 200 220 460 1670 2020 2840 4190
2020-06-29 04:00 6.62 465 5750 (1947) 3 (1978) 1060 48 75 200 220 460 1670 2020 2840 4190
2020-06-29 03:00 6.62 465 5750 (1947) 3 (1978) 1060 48 75 200 220 460 1670 2020 2840 4190
2020-06-29 02:00 6.62 465 5750 (1947) 3 (1978) 1060 48 75 200 220 460 1670 2020 2840 4190
2020-06-29 01:00 6.62 465 5750 (1947) 3 (1978) 1060 48 75 200 220 460 1670 2020 2840 4190
2020-06-29 00:00 6.62 465 5750 (1947) 3 (1978) 1060 48 75 200 220 460 1670 2020 2840 4190
2020-06-28 22:00 6.62 465 5090 (1945) 7 (1978) 1080 45 88 200 212 414 1790 2140 2820 4260
2020-06-28 21:00 6.62 465 5090 (1945) 7 (1978) 1080 45 88 200 212 414 1790 2140 2820 4260
2020-06-28 20:00 6.62 465 5090 (1945) 7 (1978) 1080 45 88 200 212 414 1790 2140 2820 4260
2020-06-28 19:00 6.62 465 5090 (1945) 7 (1978) 1080 45 88 200 212 414 1790 2140 2820 4260
2020-06-28 18:00 6.62 465 5090 (1945) 7 (1978) 1080 45 88 200 212 414 1790 2140 2820 4260
2020-06-28 17:00 6.62 465 5090 (1945) 7 (1978) 1080 45 88 200 212 414 1790 2140 2820 4260
2020-06-28 16:00 6.62 465 5090 (1945) 7 (1978) 1080 45 88 200 212 414 1790 2140 2820 4260
2020-06-28 15:00 6.62 465 5090 (1945) 7 (1978) 1080 45 88 200 212 414 1790 2140 2820 4260
2020-06-28 14:00 6.62 465 5090 (1945) 7 (1978) 1080 45 88 200 212 414 1790 2140 2820 4260
2020-06-28 13:00 6.62 465 5090 (1945) 7 (1978) 1080 45 88 200 212 414 1790 2140 2820 4260
2020-06-28 12:00 6.63 467 5090 (1945) 7 (1978) 1080 45 88 200 212 414 1790 2140 2820 4260
2020-06-28 11:00 6.63 467 5090 (1945) 7 (1978) 1080 45 88 200 212 414 1790 2140 2820 4260
2020-06-28 10:00 6.64 469 5090 (1945) 7 (1978) 1080 45 88 200 212 414 1790 2140 2820 4260
2020-06-28 09:00 6.63 467 5090 (1945) 7 (1978) 1080 45 88 200 212 414 1790 2140 2820 4260
2020-06-28 08:00 6.64 469 5090 (1945) 7 (1978) 1080 45 88 200 212 414 1790 2140 2820 4260
2020-06-28 07:00 6.64 469 5090 (1945) 7 (1978) 1080 45 88 200 212 414 1790 2140 2820 4260
2020-06-28 06:00 6.64 469 5090 (1945) 7 (1978) 1080 45 88 200 212 414 1790 2140 2820 4260
2020-06-28 05:00 6.64 469 5090 (1945) 7 (1978) 1080 45 88 200 212 414 1790 2140 2820 4260
2020-06-28 04:00 6.64 469 5090 (1945) 7 (1978) 1080 45 88 200 212 414 1790 2140 2820 4260
2020-06-28 03:00 6.64 469 5090 (1945) 7 (1978) 1080 45 88 200 212 414 1790 2140 2820 4260
2020-06-28 02:00 6.63 467 5090 (1945) 7 (1978) 1080 45 88 200 212 414 1790 2140 2820 4260
2020-06-28 01:00 6.63 467 5090 (1945) 7 (1978) 1080 45 88 200 212 414 1790 2140 2820 4260
2020-06-28 00:00 6.63 467 5090 (1945) 7 (1978) 1080 45 88 200 212 414 1790 2140 2820 4260
2020-06-27 23:00 6.63 467 4930 (1945) 5 (1978) 1070 40 42 199 208 383 1810 2080 2980 3760
2020-06-27 22:00 6.63 467 4930 (1945) 5 (1978) 1070 40 42 199 208 383 1810 2080 2980 3760
2020-06-27 20:00 6.63 467 4930 (1945) 5 (1978) 1070 40 42 199 208 383 1810 2080 2980 3760
2020-06-27 19:00 6.64 469 4930 (1945) 5 (1978) 1070 40 42 199 208 383 1810 2080 2980 3760
2020-06-27 18:00 6.64 469 4930 (1945) 5 (1978) 1070 40 42 199 208 383 1810 2080 2980 3760
2020-06-27 17:00 6.64 469 4930 (1945) 5 (1978) 1070 40 42 199 208 383 1810 2080 2980 3760
2020-06-27 16:00 6.65 470 4930 (1945) 5 (1978) 1070 40 42 199 208 383 1810 2080 2980 3760
2020-06-27 15:00 6.65 470 4930 (1945) 5 (1978) 1070 40 42 199 208 383 1810 2080 2980 3760
2020-06-27 14:00 6.66 472 4930 (1945) 5 (1978) 1070 40 42 199 208 383 1810 2080 2980 3760
2020-06-27 13:00 6.66 472 4930 (1945) 5 (1978) 1070 40 42 199 208 383 1810 2080 2980 3760
2020-06-27 12:00 6.67 474 4930 (1945) 5 (1978) 1070 40 42 199 208 383 1810 2080 2980 3760
2020-06-27 11:00 6.68 476 4930 (1945) 5 (1978) 1070 40 42 199 208 383 1810 2080 2980 3760
2020-06-27 10:00 6.68 476 4930 (1945) 5 (1978) 1070 40 42 199 208 383 1810 2080 2980 3760
2020-06-27 09:00 6.69 477 4930 (1945) 5 (1978) 1070 40 42 199 208 383 1810 2080 2980 3760
2020-06-27 08:00 6.70 479 4930 (1945) 5 (1978) 1070 40 42 199 208 383 1810 2080 2980 3760
2020-06-27 07:00 6.70 479 4930 (1945) 5 (1978) 1070 40 42 199 208 383 1810 2080 2980 3760
2020-06-27 06:00 6.71 481 4930 (1945) 5 (1978) 1070 40 42 199 208 383 1810 2080 2980 3760
2020-06-27 05:00 6.72 483 4930 (1945) 5 (1978) 1070 40 42 199 208 383 1810 2080 2980 3760
2020-06-27 04:00 6.73 484 4930 (1945) 5 (1978) 1070 40 42 199 208 383 1810 2080 2980 3760
2020-06-27 03:00 6.74 486 4930 (1945) 5 (1978) 1070 40 42 199 208 383 1810 2080 2980 3760
2020-06-27 02:00 6.75 488 4930 (1945) 5 (1978) 1070 40 42 199 208 383 1810 2080 2980 3760
2020-06-27 01:00 6.76 490 4930 (1945) 5 (1978) 1070 40 42 199 208 383 1810 2080 2980 3760
2020-06-27 00:00 6.78 493 4930 (1945) 5 (1978) 1070 40 42 199 208 383 1810 2080 2980 3760
2020-06-26 23:00 6.80 497 4820 (1943) 0 (1978) 1080 40 40 108 193 410 1840 2140 3080 3980
2020-06-26 22:00 6.82 500 4820 (1943) 0 (1978) 1080 40 40 108 193 410 1840 2140 3080 3980
2020-06-26 21:00 6.83 502 4820 (1943) 0 (1978) 1080 40 40 108 193 410 1840 2140 3080 3980
2020-06-26 20:00 6.87 509 4820 (1943) 0 (1978) 1080 40 40 108 193 410 1840 2140 3080 3980
2020-06-26 19:00 6.91 517 4820 (1943) 0 (1978) 1080 40 40 108 193 410 1840 2140 3080 3980
2020-06-26 18:00 6.94 522 4820 (1943) 0 (1978) 1080 40 40 108 193 410 1840 2140 3080 3980
2020-06-26 17:00 7.00 532 4820 (1943) 0 (1978) 1080 40 40 108 193 410 1840 2140 3080 3980
2020-06-26 16:00 7.05 540 4820 (1943) 0 (1978) 1080 40 40 108 193 410 1840 2140 3080 3980
2020-06-26 15:00 7.12 553 4820 (1943) 0 (1978) 1080 40 40 108 193 410 1840 2140 3080 3980
2020-06-26 14:00 7.21 569 4820 (1943) 0 (1978) 1080 40 40 108 193 410 1840 2140 3080 3980
2020-06-26 13:00 7.32 590 4820 (1943) 0 (1978) 1080 40 40 108 193 410 1840 2140 3080 3980
2020-06-26 12:00 7.50 623 4820 (1943) 0 (1978) 1080 40 40 108 193 410 1840 2140 3080 3980
2020-06-26 11:00 7.50 623 4820 (1943) 0 (1978) 1080 40 40 108 193 410 1840 2140 3080 3980
2020-06-26 10:00 7.50 623 4820 (1943) 0 (1978) 1080 40 40 108 193 410 1840 2140 3080 3980
2020-06-26 09:00 7.50 623 4820 (1943) 0 (1978) 1080 40 40 108 193 410 1840 2140 3080 3980
2020-06-26 08:00 7.51 625 4820 (1943) 0 (1978) 1080 40 40 108 193 410 1840 2140 3080 3980
2020-06-26 07:00 7.51 625 4820 (1943) 0 (1978) 1080 40 40 108 193 410 1840 2140 3080 3980
2020-06-26 06:00 7.51 625 4820 (1943) 0 (1978) 1080 40 40 108 193 410 1840 2140 3080 3980
2020-06-26 05:00 7.51 625 4820 (1943) 0 (1978) 1080 40 40 108 193 410 1840 2140 3080 3980
2020-06-26 04:00 7.51 625 4820 (1943) 0 (1978) 1080 40 40 108 193 410 1840 2140 3080 3980
2020-06-26 03:00 7.51 625 4820 (1943) 0 (1978) 1080 40 40 108 193 410 1840 2140 3080 3980
2020-06-26 02:00 7.52 627 4820 (1943) 0 (1978) 1080 40 40 108 193 410 1840 2140 3080 3980
2020-06-26 01:00 7.51 625 4820 (1943) 0 (1978) 1080 40 40 108 193 410 1840 2140 3080 3980
2020-06-26 00:00 7.51 625 4820 (1943) 0 (1978) 1080 40 40 108 193 410 1840 2140 3080 3980
2020-06-25 23:00 7.51 625 4820 (1943) 0 (1978) 1140 40 42 166 201 507 1680 2450 3130 4000
2020-06-25 22:00 7.51 625 4820 (1943) 0 (1978) 1140 40 42 166 201 507 1680 2450 3130 4000
2020-06-25 21:00 7.51 625 4820 (1943) 0 (1978) 1140 40 42 166 201 507 1680 2450 3130 4000
2020-06-25 20:00 7.51 625 4820 (1943) 0 (1978) 1140 40 42 166 201 507 1680 2450 3130 4000
2020-06-25 19:00 7.51 625 4820 (1943) 0 (1978) 1140 40 42 166 201 507 1680 2450 3130 4000
2020-06-25 18:00 7.51 625 4820 (1943) 0 (1978) 1140 40 42 166 201 507 1680 2450 3130 4000
2020-06-25 17:00 7.51 625 4820 (1943) 0 (1978) 1140 40 42 166 201 507 1680 2450 3130 4000
2020-06-25 16:00 7.51 625 4820 (1943) 0 (1978) 1140 40 42 166 201 507 1680 2450 3130 4000
2020-06-25 15:00 7.52 627 4820 (1943) 0 (1978) 1140 40 42 166 201 507 1680 2450 3130 4000
2020-06-25 14:00 7.52 627 4820 (1943) 0 (1978) 1140 40 42 166 201 507 1680 2450 3130 4000
2020-06-25 13:00 7.53 629 4820 (1943) 0 (1978) 1140 40 42 166 201 507 1680 2450 3130 4000
2020-06-25 12:00 7.53 629 4820 (1943) 0 (1978) 1140 40 42 166 201 507 1680 2450 3130 4000
2020-06-25 11:00 7.54 631 4820 (1943) 0 (1978) 1140 40 42 166 201 507 1680 2450 3130 4000
2020-06-25 10:00 7.55 633 4820 (1943) 0 (1978) 1140 40 42 166 201 507 1680 2450 3130 4000
2020-06-25 09:00 7.55 633 4820 (1943) 0 (1978) 1140 40 42 166 201 507 1680 2450 3130 4000
2020-06-25 08:00 7.56 635 4820 (1943) 0 (1978) 1140 40 42 166 201 507 1680 2450 3130 4000
2020-06-25 07:00 7.57 637 4820 (1943) 0 (1978) 1140 40 42 166 201 507 1680 2450 3130 4000
2020-06-25 06:00 7.57 637 4820 (1943) 0 (1978) 1140 40 42 166 201 507 1680 2450 3130 4000
2020-06-25 05:00 7.58 639 4820 (1943) 0 (1978) 1140 40 42 166 201 507 1680 2450 3130 4000
2020-06-25 04:00 7.58 639 4820 (1943) 0 (1978) 1140 40 42 166 201 507 1680 2450 3130 4000
2020-06-25 03:00 7.59 641 4820 (1943) 0 (1978) 1140 40 42 166 201 507 1680 2450 3130 4000
2020-06-25 02:00 7.60 642 4820 (1943) 0 (1978) 1140 40 42 166 201 507 1680 2450 3130 4000
2020-06-25 01:00 7.61 644 4820 (1943) 0 (1978) 1140 40 42 166 201 507 1680 2450 3130 4000
2020-06-25 00:00 7.62 646 4820 (1943) 0 (1978) 1140 40 42 166 201 507 1680 2450 3130 4000
2020-06-24 23:00 7.63 648 4820 (1943) 0 (1978) 1150 40 43 198 214 455 1750 2570 3250 4040
2020-06-24 22:00 7.65 652 4820 (1943) 0 (1978) 1150 40 43 198 214 455 1750 2570 3250 4040
2020-06-24 21:00 7.65 652 4820 (1943) 0 (1978) 1150 40 43 198 214 455 1750 2570 3250 4040
2020-06-24 20:00 7.68 658 4820 (1943) 0 (1978) 1150 40 43 198 214 455 1750 2570 3250 4040
2020-06-24 19:00 7.70 662 4820 (1943) 0 (1978) 1150 40 43 198 214 455 1750 2570 3250 4040
2020-06-24 18:00 7.72 666 4820 (1943) 0 (1978) 1150 40 43 198 214 455 1750 2570 3250 4040
2020-06-24 17:00 7.75 671 4820 (1943) 0 (1978) 1150 40 43 198 214 455 1750 2570 3250 4040
2020-06-24 16:00 7.79 679 4820 (1943) 0 (1978) 1150 40 43 198 214 455 1750 2570 3250 4040
2020-06-24 15:00 7.83 687 4820 (1943) 0 (1978) 1150 40 43 198 214 455 1750 2570 3250 4040
2020-06-24 14:00 7.88 697 4820 (1943) 0 (1978) 1150 40 43 198 214 455 1750 2570 3250 4040
2020-06-24 13:00 7.94 709 4820 (1943) 0 (1978) 1150 40 43 198 214 455 1750 2570 3250 4040
2020-06-24 12:00 8.00 721 4820 (1943) 0 (1978) 1150 40 43 198 214 455 1750 2570 3250 4040
2020-06-24 11:00 8.08 737 4820 (1943) 0 (1978) 1150 40 43 198 214 455 1750 2570 3250 4040
2020-06-24 10:00 8.21 763 4820 (1943) 0 (1978) 1150 40 43 198 214 455 1750 2570 3250 4040
2020-06-24 09:00 8.40 802 4820 (1943) 0 (1978) 1150 40 43 198 214 455 1750 2570 3250 4040
2020-06-24 08:00 8.41 804 4820 (1943) 0 (1978) 1150 40 43 198 214 455 1750 2570 3250 4040
2020-06-24 07:00 8.40 802 4820 (1943) 0 (1978) 1150 40 43 198 214 455 1750 2570 3250 4040
2020-06-24 06:00 8.41 804 4820 (1943) 0 (1978) 1150 40 43 198 214 455 1750 2570 3250 4040
2020-06-24 05:00 8.41 804 4820 (1943) 0 (1978) 1150 40 43 198 214 455 1750 2570 3250 4040
2020-06-24 04:00 8.41 804 4820 (1943) 0 (1978) 1150 40 43 198 214 455 1750 2570 3250 4040
2020-06-24 03:00 8.41 804 4820 (1943) 0 (1978) 1150 40 43 198 214 455 1750 2570 3250 4040
2020-06-24 02:00 8.41 804 4820 (1943) 0 (1978) 1150 40 43 198 214 455 1750 2570 3250 4040
2020-06-24 01:00 8.42 806 4820 (1943) 0 (1978) 1150 40 43 198 214 455 1750 2570 3250 4040
2020-06-24 00:00 8.41 804 4820 (1943) 0 (1978) 1150 40 43 198 214 455 1750 2570 3250 4040
2020-06-23 23:00 8.41 804 4910 (1943) 0 (1978) 1240 40 93 200 220 510 2050 2750 3470 4070
2020-06-23 22:00 8.41 804 4910 (1943) 0 (1978) 1240 40 93 200 220 510 2050 2750 3470 4070
2020-06-23 21:00 8.41 804 4910 (1943) 0 (1978) 1240 40 93 200 220 510 2050 2750 3470 4070
2020-06-23 20:00 8.41 804 4910 (1943) 0 (1978) 1240 40 93 200 220 510 2050 2750 3470 4070
2020-06-23 19:00 8.41 804 4910 (1943) 0 (1978) 1240 40 93 200 220 510 2050 2750 3470 4070
2020-06-23 18:00 8.42 806 4910 (1943) 0 (1978) 1240 40 93 200 220 510 2050 2750 3470 4070
2020-06-23 17:00 8.42 806 4910 (1943) 0 (1978) 1240 40 93 200 220 510 2050 2750 3470 4070
2020-06-23 16:00 8.42 806 4910 (1943) 0 (1978) 1240 40 93 200 220 510 2050 2750 3470 4070
2020-06-23 15:00 8.43 808 4910 (1943) 0 (1978) 1240 40 93 200 220 510 2050 2750 3470 4070
2020-06-23 14:00 8.43 808 4910 (1943) 0 (1978) 1240 40 93 200 220 510 2050 2750 3470 4070
2020-06-23 13:00 8.43 808 4910 (1943) 0 (1978) 1240 40 93 200 220 510 2050 2750 3470 4070
2020-06-23 12:00 8.43 808 4910 (1943) 0 (1978) 1240 40 93 200 220 510 2050 2750 3470 4070
2020-06-23 11:00 8.44 811 4910 (1943) 0 (1978) 1240 40 93 200 220 510 2050 2750 3470 4070
2020-06-23 10:00 8.44 811 4910 (1943) 0 (1978) 1240 40 93 200 220 510 2050 2750 3470 4070
2020-06-23 09:00 8.44 811 4910 (1943) 0 (1978) 1240 40 93 200 220 510 2050 2750 3470 4070
2020-06-23 08:00 8.45 813 4910 (1943) 0 (1978) 1240 40 93 200 220 510 2050 2750 3470 4070
2020-06-23 07:00 8.44 811 4910 (1943) 0 (1978) 1240 40 93 200 220 510 2050 2750 3470 4070
2020-06-23 06:00 8.45 813 4910 (1943) 0 (1978) 1240 40 93 200 220 510 2050 2750 3470 4070
2020-06-23 05:00 8.45 813 4910 (1943) 0 (1978) 1240 40 93 200 220 510 2050 2750 3470 4070
2020-06-23 04:00 8.45 813 4910 (1943) 0 (1978) 1240 40 93 200 220 510 2050 2750 3470 4070
2020-06-23 03:00 8.46 815 4910 (1943) 0 (1978) 1240 40 93 200 220 510 2050 2750 3470 4070
2020-06-23 02:00 8.46 815 4910 (1943) 0 (1978) 1240 40 93 200 220 510 2050 2750 3470 4070
2020-06-23 01:00 8.45 813 4910 (1943) 0 (1978) 1240 40 93 200 220 510 2050 2750 3470 4070
2020-06-23 00:00 8.46 815 4910 (1943) 0 (1978) 1240 40 93 200 220 510 2050 2750 3470 4070
2020-06-22 23:00 8.46 815 5010 (1943) 0 (1978) 1320 40 64 198 215 515 2460 2940 3530 4020
2020-06-22 22:00 8.46 815 5010 (1943) 0 (1978) 1320 40 64 198 215 515 2460 2940 3530 4020
2020-06-22 21:00 8.46 815 5010 (1943) 0 (1978) 1320 40 64 198 215 515 2460 2940 3530 4020
2020-06-22 20:00 8.46 815 5010 (1943) 0 (1978) 1320 40 64 198 215 515 2460 2940 3530 4020
2020-06-22 19:00 8.46 815 5010 (1943) 0 (1978) 1320 40 64 198 215 515 2460 2940 3530 4020
2020-06-22 18:00 8.47 817 5010 (1943) 0 (1978) 1320 40 64 198 215 515 2460 2940 3530 4020
2020-06-22 17:00 8.48 819 5010 (1943) 0 (1978) 1320 40 64 198 215 515 2460 2940 3530 4020
2020-06-22 16:00 8.48 819 5010 (1943) 0 (1978) 1320 40 64 198 215 515 2460 2940 3530 4020
2020-06-22 15:00 8.48 819 5010 (1943) 0 (1978) 1320 40 64 198 215 515 2460 2940 3530 4020
2020-06-22 13:00 8.48 819 5010 (1943) 0 (1978) 1320 40 64 198 215 515 2460 2940 3530 4020
2020-06-22 12:00 8.44 811 5010 (1943) 0 (1978) 1320 40 64 198 215 515 2460 2940 3530 4020
2020-06-22 09:00 8.44 811 5010 (1943) 0 (1978) 1320 40 64 198 215 515 2460 2940 3530 4020
2020-06-22 08:00 8.45 813 5010 (1943) 0 (1978) 1320 40 64 198 215 515 2460 2940 3530 4020
2020-06-22 07:00 8.45 813 5010 (1943) 0 (1978) 1320 40 64 198 215 515 2460 2940 3530 4020
2020-06-22 06:00 8.45 813 5010 (1943) 0 (1978) 1320 40 64 198 215 515 2460 2940 3530 4020
2020-06-22 05:00 8.45 813 5010 (1943) 0 (1978) 1320 40 64 198 215 515 2460 2940 3530 4020
2020-06-22 04:00 8.46 815 5010 (1943) 0 (1978) 1320 40 64 198 215 515 2460 2940 3530 4020
2020-06-22 03:00 8.45 813 5010 (1943) 0 (1978) 1320 40 64 198 215 515 2460 2940 3530 4020
2020-06-22 02:00 8.45 813 5010 (1943) 0 (1978) 1320 40 64 198 215 515 2460 2940 3530 4020
2020-06-22 01:00 8.46 815 5010 (1943) 0 (1978) 1320 40 64 198 215 515 2460 2940 3530 4020
2020-06-22 00:00 8.46 815 5010 (1943) 0 (1978) 1320 40 64 198 215 515 2460 2940 3530 4020
2020-06-21 23:00 8.46 815 5060 (1943) 0 (1978) 1400 54 161 214 220 590 2580 3150 3630 3930
2020-06-21 22:00 8.46 815 5060 (1943) 0 (1978) 1400 54 161 214 220 590 2580 3150 3630 3930
2020-06-21 21:00 8.46 815 5060 (1943) 0 (1978) 1400 54 161 214 220 590 2580 3150 3630 3930
2020-06-21 20:00 8.46 815 5060 (1943) 0 (1978) 1400 54 161 214 220 590 2580 3150 3630 3930
2020-06-21 19:00 8.46 815 5060 (1943) 0 (1978) 1400 54 161 214 220 590 2580 3150 3630 3930
2020-06-21 18:00 8.47 817 5060 (1943) 0 (1978) 1400 54 161 214 220 590 2580 3150 3630 3930
2020-06-21 17:00 8.47 817 5060 (1943) 0 (1978) 1400 54 161 214 220 590 2580 3150 3630 3930
2020-06-21 16:00 8.48 819 5060 (1943) 0 (1978) 1400 54 161 214 220 590 2580 3150 3630 3930
2020-06-21 15:00 8.48 819 5060 (1943) 0 (1978) 1400 54 161 214 220 590 2580 3150 3630 3930
2020-06-21 14:00 8.49 821 5060 (1943) 0 (1978) 1400 54 161 214 220 590 2580 3150 3630 3930
2020-06-21 13:00 8.49 821 5060 (1943) 0 (1978) 1400 54 161 214 220 590 2580 3150 3630 3930
2020-06-21 12:00 8.50 823 5060 (1943) 0 (1978) 1400 54 161 214 220 590 2580 3150 3630 3930
2020-06-21 11:00 8.51 825 5060 (1943) 0 (1978) 1400 54 161 214 220 590 2580 3150 3630 3930
2020-06-21 10:00 8.51 825 5060 (1943) 0 (1978) 1400 54 161 214 220 590 2580 3150 3630 3930
2020-06-21 09:00 8.52 827 5060 (1943) 0 (1978) 1400 54 161 214 220 590 2580 3150 3630 3930
2020-06-21 08:00 8.52 827 5060 (1943) 0 (1978) 1400 54 161 214 220 590 2580 3150 3630 3930
2020-06-21 07:00 8.52 827 5060 (1943) 0 (1978) 1400 54 161 214 220 590 2580 3150 3630 3930
2020-06-21 06:00 8.54 831 5060 (1943) 0 (1978) 1400 54 161 214 220 590 2580 3150 3630 3930
2020-06-21 05:00 8.54 831 5060 (1943) 0 (1978) 1400 54 161 214 220 590 2580 3150 3630 3930
2020-06-21 04:00 8.54 831 5060 (1943) 0 (1978) 1400 54 161 214 220 590 2580 3150 3630 3930
2020-06-21 03:00 8.55 834 5060 (1943) 0 (1978) 1400 54 161 214 220 590 2580 3150 3630 3930
2020-06-21 02:00 8.55 834 5060 (1943) 0 (1978) 1400 54 161 214 220 590 2580 3150 3630 3930
2020-06-21 01:00 8.55 834 5060 (1943) 0 (1978) 1400 54 161 214 220 590 2580 3150 3630 3930
2020-06-21 00:00 8.55 834 5060 (1943) 0 (1978) 1400 54 161 214 220 590 2580 3150 3630 3930
2020-06-20 23:00 8.56 836 5110 (1943) 0 (1978) 1420 63 161 220 239 590 2830 2970 3710 3930
2020-06-20 22:00 8.58 840 5110 (1943) 0 (1978) 1420 63 161 220 239 590 2830 2970 3710 3930
2020-06-20 21:00 8.58 840 5110 (1943) 0 (1978) 1420 63 161 220 239 590 2830 2970 3710 3930
2020-06-20 20:00 8.60 844 5110 (1943) 0 (1978) 1420 63 161 220 239 590 2830 2970 3710 3930
2020-06-20 19:00 8.61 846 5110 (1943) 0 (1978) 1420 63 161 220 239 590 2830 2970 3710 3930
2020-06-20 18:00 8.62 848 5110 (1943) 0 (1978) 1420 63 161 220 239 590 2830 2970 3710 3930
2020-06-20 17:00 8.63 851 5110 (1943) 0 (1978) 1420 63 161 220 239 590 2830 2970 3710 3930
2020-06-20 16:00 8.64 853 5110 (1943) 0 (1978) 1420 63 161 220 239 590 2830 2970 3710 3930
2020-06-20 15:00 8.67 859 5110 (1943) 0 (1978) 1420 63 161 220 239 590 2830 2970 3710 3930
2020-06-20 14:00 8.71 868 5110 (1943) 0 (1978) 1420 63 161 220 239 590 2830 2970 3710 3930
2020-06-20 13:00 8.73 872 5110 (1943) 0 (1978) 1420 63 161 220 239 590 2830 2970 3710 3930
2020-06-20 12:00 8.78 883 5110 (1943) 0 (1978) 1420 63 161 220 239 590 2830 2970 3710 3930
2020-06-20 11:00 8.83 893 5110 (1943) 0 (1978) 1420 63 161 220 239 590 2830 2970 3710 3930
2020-06-20 10:00 8.92 913 5110 (1943) 0 (1978) 1420 63 161 220 239 590 2830 2970 3710 3930
2020-06-20 09:00 8.97 924 5110 (1943) 0 (1978) 1420 63 161 220 239 590 2830 2970 3710 3930
2020-06-20 08:00 9.06 944 5110 (1943) 0 (1978) 1420 63 161 220 239 590 2830 2970 3710 3930
2020-06-20 07:00 9.05 942 5110 (1943) 0 (1978) 1420 63 161 220 239 590 2830 2970 3710 3930
2020-06-20 06:00 9.06 944 5110 (1943) 0 (1978) 1420 63 161 220 239 590 2830 2970 3710 3930
2020-06-20 05:00 9.06 944 5110 (1943) 0 (1978) 1420 63 161 220 239 590 2830 2970 3710 3930
2020-06-20 04:00 9.07 946 5110 (1943) 0 (1978) 1420 63 161 220 239 590 2830 2970 3710 3930
2020-06-20 03:00 9.08 948 5110 (1943) 0 (1978) 1420 63 161 220 239 590 2830 2970 3710 3930
2020-06-20 02:00 9.09 950 5110 (1943) 0 (1978) 1420 63 161 220 239 590 2830 2970 3710 3930
2020-06-20 01:00 9.10 953 5110 (1943) 0 (1978) 1420 63 161 220 239 590 2830 2970 3710 3930
2020-06-20 00:00 9.10 953 5110 (1943) 0 (1978) 1420 63 161 220 239 590 2830 2970 3710 3930
2020-06-19 23:00 9.10 953 5160 (1943) 0 (1978) 1460 40 58 200 218 613 2890 3140 3790 4050
2020-06-19 22:00 9.12 957 5160 (1943) 0 (1978) 1460 40 58 200 218 613 2890 3140 3790 4050
2020-06-19 21:00 9.13 959 5160 (1943) 0 (1978) 1460 40 58 200 218 613 2890 3140 3790 4050
2020-06-19 20:00 9.14 961 5160 (1943) 0 (1978) 1460 40 58 200 218 613 2890 3140 3790 4050
2020-06-19 19:00 9.16 966 5160 (1943) 0 (1978) 1460 40 58 200 218 613 2890 3140 3790 4050
2020-06-19 18:00 9.18 970 5160 (1943) 0 (1978) 1460 40 58 200 218 613 2890 3140 3790 4050
2020-06-19 17:00 9.20 975 5160 (1943) 0 (1978) 1460 40 58 200 218 613 2890 3140 3790 4050
2020-06-19 16:00 9.22 979 5160 (1943) 0 (1978) 1460 40 58 200 218 613 2890 3140 3790 4050
2020-06-19 15:00 9.25 986 5160 (1943) 0 (1978) 1460 40 58 200 218 613 2890 3140 3790 4050
2020-06-19 14:00 9.29 995 5160 (1943) 0 (1978) 1460 40 58 200 218 613 2890 3140 3790 4050
2020-06-19 13:00 9.33 1000 5160 (1943) 0 (1978) 1460 40 58 200 218 613 2890 3140 3790 4050
2020-06-19 12:00 9.37 1010 5160 (1943) 0 (1978) 1460 40 58 200 218 613 2890 3140 3790 4050
2020-06-19 11:00 9.43 1030 5160 (1943) 0 (1978) 1460 40 58 200 218 613 2890 3140 3790 4050
2020-06-19 10:00 9.51 1050 5160 (1943) 0 (1978) 1460 40 58 200 218 613 2890 3140 3790 4050
2020-06-19 09:00 9.64 1080 5160 (1943) 0 (1978) 1460 40 58 200 218 613 2890 3140 3790 4050
2020-06-19 08:00 9.69 1090 5160 (1943) 0 (1978) 1460 40 58 200 218 613 2890 3140 3790 4050
2020-06-19 07:00 9.69 1090 5160 (1943) 0 (1978) 1460 40 58 200 218 613 2890 3140 3790 4050
2020-06-19 06:00 9.69 1090 5160 (1943) 0 (1978) 1460 40 58 200 218 613 2890 3140 3790 4050
2020-06-19 05:00 9.69 1090 5160 (1943) 0 (1978) 1460 40 58 200 218 613 2890 3140 3790 4050
2020-06-19 04:00 9.70 1090 5160 (1943) 0 (1978) 1460 40 58 200 218 613 2890 3140 3790 4050
2020-06-19 03:00 9.70 1090 5160 (1943) 0 (1978) 1460 40 58 200 218 613 2890 3140 3790 4050
2020-06-19 02:00 9.70 1090 5160 (1943) 0 (1978) 1460 40 58 200 218 613 2890 3140 3790 4050
2020-06-19 01:00 9.70 1090 5160 (1943) 0 (1978) 1460 40 58 200 218 613 2890 3140 3790 4050
2020-06-19 00:00 9.69 1090 5160 (1943) 0 (1978) 1460 40 58 200 218 613 2890 3140 3790 4050
2020-06-18 23:00 9.70 1090 5060 (1943) 0 (1978) 1510 40 43 169 213 590 3000 3480 3900 4170
2020-06-18 22:00 9.70 1090 5060 (1943) 0 (1978) 1510 40 43 169 213 590 3000 3480 3900 4170
2020-06-18 21:00 9.69 1090 5060 (1943) 0 (1978) 1510 40 43 169 213 590 3000 3480 3900 4170
2020-06-18 20:00 9.70 1090 5060 (1943) 0 (1978) 1510 40 43 169 213 590 3000 3480 3900 4170
2020-06-18 19:00 9.70 1090 5060 (1943) 0 (1978) 1510 40 43 169 213 590 3000 3480 3900 4170
2020-06-18 18:00 9.70 1090 5060 (1943) 0 (1978) 1510 40 43 169 213 590 3000 3480 3900 4170
2020-06-18 17:00 9.70 1090 5060 (1943) 0 (1978) 1510 40 43 169 213 590 3000 3480 3900 4170
2020-06-18 16:00 9.70 1090 5060 (1943) 0 (1978) 1510 40 43 169 213 590 3000 3480 3900 4170
2020-06-18 15:00 9.68 1080 5060 (1943) 0 (1978) 1510 40 43 169 213 590 3000 3480 3900 4170
2020-06-18 14:00 9.65 1080 5060 (1943) 0 (1978) 1510 40 43 169 213 590 3000 3480 3900 4170
2020-06-18 13:00 9.68 1080 5060 (1943) 0 (1978) 1510 40 43 169 213 590 3000 3480 3900 4170
2020-06-18 12:00 9.71 1090 5060 (1943) 0 (1978) 1510 40 43 169 213 590 3000 3480 3900 4170
2020-06-18 11:00 9.70 1090 5060 (1943) 0 (1978) 1510 40 43 169 213 590 3000 3480 3900 4170
2020-06-18 10:00 9.74 1100 5060 (1943) 0 (1978) 1510 40 43 169 213 590 3000 3480 3900 4170
2020-06-18 09:00 9.79 1110 5060 (1943) 0 (1978) 1510 40 43 169 213 590 3000 3480 3900 4170
2020-06-18 08:00 9.82 1120 5060 (1943) 0 (1978) 1510 40 43 169 213 590 3000 3480 3900 4170
2020-06-18 07:00 9.82 1120 5060 (1943) 0 (1978) 1510 40 43 169 213 590 3000 3480 3900 4170
2020-06-18 06:00 9.82 1120 5060 (1943) 0 (1978) 1510 40 43 169 213 590 3000 3480 3900 4170
2020-06-18 05:00 9.82 1120 5060 (1943) 0 (1978) 1510 40 43 169 213 590 3000 3480 3900 4170
2020-06-18 04:00 9.82 1120 5060 (1943) 0 (1978) 1510 40 43 169 213 590 3000 3480 3900 4170
2020-06-18 03:00 9.82 1120 5060 (1943) 0 (1978) 1510 40 43 169 213 590 3000 3480 3900 4170
2020-06-18 02:00 9.82 1120 5060 (1943) 0 (1978) 1510 40 43 169 213 590 3000 3480 3900 4170
2020-06-18 01:00 9.82 1120 5060 (1943) 0 (1978) 1510 40 43 169 213 590 3000 3480 3900 4170
2020-06-18 00:00 9.82 1120 5060 (1943) 0 (1978) 1510 40 43 169 213 590 3000 3480 3900 4170
2020-06-17 23:00 9.82 1120 5110 (1943) 0 (1978) 1530 40 40 170 217 628 3010 3530 4040 4580
2020-06-17 22:00 9.82 1120 5110 (1943) 0 (1978) 1530 40 40 170 217 628 3010 3530 4040 4580
2020-06-17 20:00 9.82 1120 5110 (1943) 0 (1978) 1530 40 40 170 217 628 3010 3530 4040 4580
2020-06-17 19:00 9.82 1120 5110 (1943) 0 (1978) 1530 40 40 170 217 628 3010 3530 4040 4580
2020-06-17 18:00 9.82 1120 5110 (1943) 0 (1978) 1530 40 40 170 217 628 3010 3530 4040 4580
2020-06-17 17:00 9.82 1120 5110 (1943) 0 (1978) 1530 40 40 170 217 628 3010 3530 4040 4580
2020-06-17 16:00 9.83 1120 5110 (1943) 0 (1978) 1530 40 40 170 217 628 3010 3530 4040 4580
2020-06-17 15:00 9.83 1120 5110 (1943) 0 (1978) 1530 40 40 170 217 628 3010 3530 4040 4580
2020-06-17 14:00 9.83 1120 5110 (1943) 0 (1978) 1530 40 40 170 217 628 3010 3530 4040 4580
2020-06-17 13:00 9.83 1120 5110 (1943) 0 (1978) 1530 40 40 170 217 628 3010 3530 4040 4580
2020-06-17 12:00 9.84 1120 5110 (1943) 0 (1978) 1530 40 40 170 217 628 3010 3530 4040 4580
2020-06-17 11:00 9.84 1120 5110 (1943) 0 (1978) 1530 40 40 170 217 628 3010 3530 4040 4580
2020-06-17 10:00 9.84 1120 5110 (1943) 0 (1978) 1530 40 40 170 217 628 3010 3530 4040 4580
2020-06-17 09:00 9.85 1120 5110 (1943) 0 (1978) 1530 40 40 170 217 628 3010 3530 4040 4580
2020-06-17 08:00 9.85 1120 5110 (1943) 0 (1978) 1530 40 40 170 217 628 3010 3530 4040 4580
2020-06-17 07:00 9.85 1120 5110 (1943) 0 (1978) 1530 40 40 170 217 628 3010 3530 4040 4580
2020-06-17 06:00 9.85 1120 5110 (1943) 0 (1978) 1530 40 40 170 217 628 3010 3530 4040 4580
2020-06-17 05:00 9.85 1120 5110 (1943) 0 (1978) 1530 40 40 170 217 628 3010 3530 4040 4580
2020-06-17 04:00 9.86 1130 5110 (1943) 0 (1978) 1530 40 40 170 217 628 3010 3530 4040 4580
2020-06-17 03:00 9.86 1130 5110 (1943) 0 (1978) 1530 40 40 170 217 628 3010 3530 4040 4580
2020-06-17 02:00 9.83 1120 5110 (1943) 0 (1978) 1530 40 40 170 217 628 3010 3530 4040 4580
2020-06-17 01:00 9.86 1130 5110 (1943) 0 (1978) 1530 40 40 170 217 628 3010 3530 4040 4580
2020-06-17 00:00 9.85 1120 5110 (1943) 0 (1978) 1530 40 40 170 217 628 3010 3530 4040 4580
2020-06-16 23:00 9.86 1130 5510 (1957) 5 (1978) 1590 40 44 171 217 732 2920 3540 4080 4960
2020-06-16 22:00 9.86 1130 5510 (1957) 5 (1978) 1590 40 44 171 217 732 2920 3540 4080 4960
2020-06-16 21:00 9.85 1120 5510 (1957) 5 (1978) 1590 40 44 171 217 732 2920 3540 4080 4960
2020-06-16 20:00 9.86 1130 5510 (1957) 5 (1978) 1590 40 44 171 217 732 2920 3540 4080 4960
2020-06-16 19:00 9.86 1130 5510 (1957) 5 (1978) 1590 40 44 171 217 732 2920 3540 4080 4960
2020-06-16 18:00 9.86 1130 5510 (1957) 5 (1978) 1590 40 44 171 217 732 2920 3540 4080 4960
2020-06-16 17:00 9.87 1130 5510 (1957) 5 (1978) 1590 40 44 171 217 732 2920 3540 4080 4960
2020-06-16 16:00 9.87 1130 5510 (1957) 5 (1978) 1590 40 44 171 217 732 2920 3540 4080 4960
2020-06-16 15:00 9.87 1130 5510 (1957) 5 (1978) 1590 40 44 171 217 732 2920 3540 4080 4960
2020-06-16 14:00 9.88 1130 5510 (1957) 5 (1978) 1590 40 44 171 217 732 2920 3540 4080 4960
2020-06-16 13:00 9.88 1130 5510 (1957) 5 (1978) 1590 40 44 171 217 732 2920 3540 4080 4960
2020-06-16 12:00 9.89 1130 5510 (1957) 5 (1978) 1590 40 44 171 217 732 2920 3540 4080 4960
2020-06-16 11:00 9.89 1130 5510 (1957) 5 (1978) 1590 40 44 171 217 732 2920 3540 4080 4960
2020-06-16 10:00 9.90 1140 5510 (1957) 5 (1978) 1590 40 44 171 217 732 2920 3540 4080 4960
2020-06-16 09:00 9.91 1140 5510 (1957) 5 (1978) 1590 40 44 171 217 732 2920 3540 4080 4960
2020-06-16 08:00 9.91 1140 5510 (1957) 5 (1978) 1590 40 44 171 217 732 2920 3540 4080 4960
2020-06-16 07:00 9.91 1140 5510 (1957) 5 (1978) 1590 40 44 171 217 732 2920 3540 4080 4960
2020-06-16 06:00 9.93 1140 5510 (1957) 5 (1978) 1590 40 44 171 217 732 2920 3540 4080 4960
2020-06-16 05:00 9.93 1140 5510 (1957) 5 (1978) 1590 40 44 171 217 732 2920 3540 4080 4960
2020-06-16 04:00 9.93 1140 5510 (1957) 5 (1978) 1590 40 44 171 217 732 2920 3540 4080 4960
2020-06-16 03:00 9.94 1150 5510 (1957) 5 (1978) 1590 40 44 171 217 732 2920 3540 4080 4960
2020-06-16 02:00 9.94 1150 5510 (1957) 5 (1978) 1590 40 44 171 217 732 2920 3540 4080 4960
2020-06-16 01:00 9.96 1150 5510 (1957) 5 (1978) 1590 40 44 171 217 732 2920 3540 4080 4960
2020-06-16 00:00 9.96 1150 5510 (1957) 5 (1978) 1590 40 44 171 217 732 2920 3540 4080 4960
2020-06-15 23:00 9.97 1150 6530 (1957) 8 (1978) 1560 40 40 155 174 755 2670 3200 4100 5150
2020-06-15 22:00 9.98 1160 6530 (1957) 8 (1978) 1560 40 40 155 174 755 2670 3200 4100 5150
2020-06-15 21:00 1 1160 6530 (1957) 8 (1978) 1560 40 40 155 174 755 2670 3200 4100 5150
2020-06-15 20:00 10.01 1160 6530 (1957) 8 (1978) 1560 40 40 155 174 755 2670 3200 4100 5150
2020-06-15 19:00 10.02 1160 6530 (1957) 8 (1978) 1560 40 40 155 174 755 2670 3200 4100 5150
2020-06-15 18:00 10.04 1170 6530 (1957) 8 (1978) 1560 40 40 155 174 755 2670 3200 4100 5150
2020-06-15 17:00 10.07 1180 6530 (1957) 8 (1978) 1560 40 40 155 174 755 2670 3200 4100 5150
2020-06-15 16:00 10.09 1180 6530 (1957) 8 (1978) 1560 40 40 155 174 755 2670 3200 4100 5150
2020-06-15 15:00 10.12 1190 6530 (1957) 8 (1978) 1560 40 40 155 174 755 2670 3200 4100 5150
2020-06-15 14:00 10.17 1200 6530 (1957) 8 (1978) 1560 40 40 155 174 755 2670 3200 4100 5150
2020-06-15 13:00 10.21 1210 6530 (1957) 8 (1978) 1560 40 40 155 174 755 2670 3200 4100 5150
2020-06-15 12:00 10.26 1220 6530 (1957) 8 (1978) 1560 40 40 155 174 755 2670 3200 4100 5150
2020-06-15 11:00 10.34 1240 6530 (1957) 8 (1978) 1560 40 40 155 174 755 2670 3200 4100 5150
2020-06-15 10:00 10.43 1260 6530 (1957) 8 (1978) 1560 40 40 155 174 755 2670 3200 4100 5150
2020-06-15 09:00 10.53 1290 6530 (1957) 8 (1978) 1560 40 40 155 174 755 2670 3200 4100 5150
2020-06-15 08:00 10.54 1290 6530 (1957) 8 (1978) 1560 40 40 155 174 755 2670 3200 4100 5150
2020-06-15 07:00 10.55 1290 6530 (1957) 8 (1978) 1560 40 40 155 174 755 2670 3200 4100 5150
2020-06-15 06:00 10.55 1290 6530 (1957) 8 (1978) 1560 40 40 155 174 755 2670 3200 4100 5150
2020-06-15 05:00 10.56 1300 6530 (1957) 8 (1978) 1560 40 40 155 174 755 2670 3200 4100 5150
2020-06-15 04:00 10.55 1290 6530 (1957) 8 (1978) 1560 40 40 155 174 755 2670 3200 4100 5150
2020-06-15 03:00 10.57 1300 6530 (1957) 8 (1978) 1560 40 40 155 174 755 2670 3200 4100 5150
2020-06-15 02:00 10.57 1300 6530 (1957) 8 (1978) 1560 40 40 155 174 755 2670 3200 4100 5150
2020-06-15 01:00 10.57 1300 6530 (1957) 8 (1978) 1560 40 40 155 174 755 2670 3200 4100 5150
2020-06-15 00:00 10.59 1300 6530 (1957) 8 (1978) 1560 40 40 155 174 755 2670 3200 4100 5150
2020-06-14 23:00 10.59 1300 7610 (1957) 11 (1978) 1510 40 40 150 182 600 2500 2880 4080 5100
2020-06-14 22:00 10.60 1310 7610 (1957) 11 (1978) 1510 40 40 150 182 600 2500 2880 4080 5100
2020-06-14 21:00 10.61 1310 7610 (1957) 11 (1978) 1510 40 40 150 182 600 2500 2880 4080 5100
2020-06-14 20:00 10.63 1310 7610 (1957) 11 (1978) 1510 40 40 150 182 600 2500 2880 4080 5100
2020-06-14 19:00 10.64 1320 7610 (1957) 11 (1978) 1510 40 40 150 182 600 2500 2880 4080 5100
2020-06-14 18:00 10.66 1320 7610 (1957) 11 (1978) 1510 40 40 150 182 600 2500 2880 4080 5100
2020-06-14 17:00 10.68 1330 7610 (1957) 11 (1978) 1510 40 40 150 182 600 2500 2880 4080 5100
2020-06-14 16:00 10.70 1330 7610 (1957) 11 (1978) 1510 40 40 150 182 600 2500 2880 4080 5100
2020-06-14 15:00 10.74 1340 7610 (1957) 11 (1978) 1510 40 40 150 182 600 2500 2880 4080 5100
2020-06-14 14:00 10.77 1350 7610 (1957) 11 (1978) 1510 40 40 150 182 600 2500 2880 4080 5100
2020-06-14 13:00 10.80 1360 7610 (1957) 11 (1978) 1510 40 40 150 182 600 2500 2880 4080 5100
2020-06-14 12:00 10.85 1370 7610 (1957) 11 (1978) 1510 40 40 150 182 600 2500 2880 4080 5100
2020-06-14 11:00 10.91 1380 7610 (1957) 11 (1978) 1510 40 40 150 182 600 2500 2880 4080 5100
2020-06-14 10:00 10.99 1400 7610 (1957) 11 (1978) 1510 40 40 150 182 600 2500 2880 4080 5100
2020-06-14 09:00 11.09 1430 7610 (1957) 11 (1978) 1510 40 40 150 182 600 2500 2880 4080 5100
2020-06-14 08:00 11.15 1450 7610 (1957) 11 (1978) 1510 40 40 150 182 600 2500 2880 4080 5100
2020-06-14 07:00 11.16 1450 7610 (1957) 11 (1978) 1510 40 40 150 182 600 2500 2880 4080 5100
2020-06-14 06:00 11.17 1450 7610 (1957) 11 (1978) 1510 40 40 150 182 600 2500 2880 4080 5100
2020-06-14 05:00 11.18 1450 7610 (1957) 11 (1978) 1510 40 40 150 182 600 2500 2880 4080 5100
2020-06-14 04:00 11.19 1460 7610 (1957) 11 (1978) 1510 40 40 150 182 600 2500 2880 4080 5100
2020-06-14 03:00 11.20 1460 7610 (1957) 11 (1978) 1510 40 40 150 182 600 2500 2880 4080 5100
2020-06-14 02:00 11.21 1460 7610 (1957) 11 (1978) 1510 40 40 150 182 600 2500 2880 4080 5100
2020-06-14 01:00 11.23 1470 7610 (1957) 11 (1978) 1510 40 40 150 182 600 2500 2880 4080 5100
2020-06-14 00:00 11.25 1470 7610 (1957) 11 (1978) 1510 40 40 150 182 600 2500 2880 4080 5100
2020-06-13 23:00 11.25 1470 8610 (1957) 15 (1978) 1540 40 60 192 220 600 2620 3020 4010 5390
2020-06-13 22:00 11.27 1480 8610 (1957) 15 (1978) 1540 40 60 192 220 600 2620 3020 4010 5390
2020-06-13 21:00 11.30 1490 8610 (1957) 15 (1978) 1540 40 60 192 220 600 2620 3020 4010 5390
2020-06-13 20:00 11.32 1490 8610 (1957) 15 (1978) 1540 40 60 192 220 600 2620 3020 4010 5390
2020-06-13 19:00 11.34 1500 8610 (1957) 15 (1978) 1540 40 60 192 220 600 2620 3020 4010 5390
2020-06-13 18:00 11.38 1510 8610 (1957) 15 (1978) 1540 40 60 192 220 600 2620 3020 4010 5390
2020-06-13 17:00 11.42 1520 8610 (1957) 15 (1978) 1540 40 60 192 220 600 2620 3020 4010 5390
2020-06-13 16:00 11.45 1520 8610 (1957) 15 (1978) 1540 40 60 192 220 600 2620 3020 4010 5390
2020-06-13 15:00 11.52 1540 8610 (1957) 15 (1978) 1540 40 60 192 220 600 2620 3020 4010 5390
2020-06-13 14:00 11.58 1560 8610 (1957) 15 (1978) 1540 40 60 192 220 600 2620 3020 4010 5390
2020-06-13 13:00 11.64 1580 8610 (1957) 15 (1978) 1540 40 60 192 220 600 2620 3020 4010 5390
2020-06-13 12:00 11.73 1600 8610 (1957) 15 (1978) 1540 40 60 192 220 600 2620 3020 4010 5390
2020-06-13 11:00 11.83 1630 8610 (1957) 15 (1978) 1540 40 60 192 220 600 2620 3020 4010 5390
2020-06-13 10:00 11.96 1660 8610 (1957) 15 (1978) 1540 40 60 192 220 600 2620 3020 4010 5390
2020-06-13 09:00 12.18 1720 8610 (1957) 15 (1978) 1540 40 60 192 220 600 2620 3020 4010 5390
2020-06-13 08:00 12.18 1720 8610 (1957) 15 (1978) 1540 40 60 192 220 600 2620 3020 4010 5390
2020-06-13 07:00 12.20 1730 8610 (1957) 15 (1978) 1540 40 60 192 220 600 2620 3020 4010 5390
2020-06-13 06:00 12.20 1730 8610 (1957) 15 (1978) 1540 40 60 192 220 600 2620 3020 4010 5390
2020-06-13 05:00 12.23 1740 8610 (1957) 15 (1978) 1540 40 60 192 220 600 2620 3020 4010 5390
2020-06-13 04:00 12.24 1740 8610 (1957) 15 (1978) 1540 40 60 192 220 600 2620 3020 4010 5390
2020-06-13 03:00 12.26 1740 8610 (1957) 15 (1978) 1540 40 60 192 220 600 2620 3020 4010 5390
2020-06-13 02:00 12.28 1750 8610 (1957) 15 (1978) 1540 40 60 192 220 600 2620 3020 4010 5390
2020-06-13 01:00 12.31 1760 8610 (1957) 15 (1978) 1540 40 60 192 220 600 2620 3020 4010 5390
2020-06-13 00:00 12.33 1760 8610 (1957) 15 (1978) 1540 40 60 192 220 600 2620 3020 4010 5390
2020-06-12 23:00 12.36 1770 9450 (1957) 14 (1978) 1590 40 43 194 246 740 2200 3410 4060 5760
2020-06-12 22:00 12.39 1780 9450 (1957) 14 (1978) 1590 40 43 194 246 740 2200 3410 4060 5760
2020-06-12 21:00 12.44 1790 9450 (1957) 14 (1978) 1590 40 43 194 246 740 2200 3410 4060 5760
2020-06-12 20:00 12.47 1800 9450 (1957) 14 (1978) 1590 40 43 194 246 740 2200 3410 4060 5760
2020-06-12 19:00 12.51 1810 9450 (1957) 14 (1978) 1590 40 43 194 246 740 2200 3410 4060 5760
2020-06-12 18:00 12.58 1830 9450 (1957) 14 (1978) 1590 40 43 194 246 740 2200 3410 4060 5760
2020-06-12 17:00 12.65 1850 9450 (1957) 14 (1978) 1590 40 43 194 246 740 2200 3410 4060 5760
2020-06-12 16:00 12.74 1880 9450 (1957) 14 (1978) 1590 40 43 194 246 740 2200 3410 4060 5760
2020-06-12 15:00 12.86 1910 9450 (1957) 14 (1978) 1590 40 43 194 246 740 2200 3410 4060 5760
2020-06-12 14:00 13.00 1950 9450 (1957) 14 (1978) 1590 40 43 194 246 740 2200 3410 4060 5760
2020-06-12 13:00 13.01 1960 9450 (1957) 14 (1978) 1590 40 43 194 246 740 2200 3410 4060 5760
2020-06-12 12:00 13.02 1960 9450 (1957) 14 (1978) 1590 40 43 194 246 740 2200 3410 4060 5760
2020-06-12 11:00 13.03 1960 9450 (1957) 14 (1978) 1590 40 43 194 246 740 2200 3410 4060 5760
2020-06-12 10:00 13.04 1970 9450 (1957) 14 (1978) 1590 40 43 194 246 740 2200 3410 4060 5760
2020-06-12 09:00 13.05 1970 9450 (1957) 14 (1978) 1590 40 43 194 246 740 2200 3410 4060 5760
2020-06-12 08:00 13.06 1970 9450 (1957) 14 (1978) 1590 40 43 194 246 740 2200 3410 4060 5760
2020-06-12 07:00 13.08 1980 9450 (1957) 14 (1978) 1590 40 43 194 246 740 2200 3410 4060 5760
2020-06-12 06:00 13.09 1980 9450 (1957) 14 (1978) 1590 40 43 194 246 740 2200 3410 4060 5760
2020-06-12 05:00 13.09 1980 9450 (1957) 14 (1978) 1590 40 43 194 246 740 2200 3410 4060 5760
2020-06-12 04:00 13.11 1990 9450 (1957) 14 (1978) 1590 40 43 194 246 740 2200 3410 4060 5760
2020-06-12 03:00 13.12 1990 9450 (1957) 14 (1978) 1590 40 43 194 246 740 2200 3410 4060 5760
2020-06-12 02:00 13.15 2000 9450 (1957) 14 (1978) 1590 40 43 194 246 740 2200 3410 4060 5760
2020-06-12 01:00 13.16 2000 9450 (1957) 14 (1978) 1590 40 43 194 246 740 2200 3410 4060 5760
2020-06-12 00:00 13.17 2000 9450 (1957) 14 (1978) 1590 40 43 194 246 740 2200 3410 4060 5760
2020-06-11 23:00 13.18 2010 10000 (1957) 11 (1978) 1660 53 114 270 329 820 2490 3160 4030 5990
2020-06-11 22:00 13.19 2010 10000 (1957) 11 (1978) 1660 53 114 270 329 820 2490 3160 4030 5990
2020-06-11 21:00 13.21 2020 10000 (1957) 11 (1978) 1660 53 114 270 329 820 2490 3160 4030 5990
2020-06-11 20:00 13.23 2020 10000 (1957) 11 (1978) 1660 53 114 270 329 820 2490 3160 4030 5990
2020-06-11 19:00 13.24 2020 10000 (1957) 11 (1978) 1660 53 114 270 329 820 2490 3160 4030 5990
2020-06-11 18:00 13.29 2040 10000 (1957) 11 (1978) 1660 53 114 270 329 820 2490 3160 4030 5990
2020-06-11 17:00 13.32 2050 10000 (1957) 11 (1978) 1660 53 114 270 329 820 2490 3160 4030 5990
2020-06-11 16:00 13.35 2060 10000 (1957) 11 (1978) 1660 53 114 270 329 820 2490 3160 4030 5990
2020-06-11 15:00 13.41 2070 10000 (1957) 11 (1978) 1660 53 114 270 329 820 2490 3160 4030 5990
2020-06-11 14:00 13.44 2080 10000 (1957) 11 (1978) 1660 53 114 270 329 820 2490 3160 4030 5990
2020-06-11 13:00 13.50 2100 10000 (1957) 11 (1978) 1660 53 114 270 329 820 2490 3160 4030 5990
2020-06-11 12:00 13.56 2120 10000 (1957) 11 (1978) 1660 53 114 270 329 820 2490 3160 4030 5990
2020-06-11 11:00 13.64 2140 10000 (1957) 11 (1978) 1660 53 114 270 329 820 2490 3160 4030 5990
2020-06-11 10:00 13.74 2170 10000 (1957) 11 (1978) 1660 53 114 270 329 820 2490 3160 4030 5990
2020-06-11 09:00 13.91 2230 10000 (1957) 11 (1978) 1660 53 114 270 329 820 2490 3160 4030 5990
2020-06-11 08:00 13.92 2230 10000 (1957) 11 (1978) 1660 53 114 270 329 820 2490 3160 4030 5990
2020-06-11 07:00 13.93 2230 10000 (1957) 11 (1978) 1660 53 114 270 329 820 2490 3160 4030 5990
2020-06-11 06:00 13.94 2230 10000 (1957) 11 (1978) 1660 53 114 270 329 820 2490 3160 4030 5990
2020-06-11 05:00 13.97 2240 10000 (1957) 11 (1978) 1660 53 114 270 329 820 2490 3160 4030 5990
2020-06-11 04:00 13.96 2240 10000 (1957) 11 (1978) 1660 53 114 270 329 820 2490 3160 4030 5990
2020-06-11 03:00 13.98 2250 10000 (1957) 11 (1978) 1660 53 114 270 329 820 2490 3160 4030 5990
2020-06-11 02:00 13.99 2250 10000 (1957) 11 (1978) 1660 53 114 270 329 820 2490 3160 4030 5990
2020-06-11 01:00 14.01 2260 10000 (1957) 11 (1978) 1660 53 114 270 329 820 2490 3160 4030 5990
2020-06-11 00:00 14.01 2260 10000 (1957) 11 (1978) 1660 53 114 270 329 820 2490 3160 4030 5990
2020-06-10 23:00 14.03 2260 9980 (1957) 10 (1978) 1750 53 176 303 351 880 2820 3230 4030 5730
2020-06-10 22:00 14.05 2270 9980 (1957) 10 (1978) 1750 53 176 303 351 880 2820 3230 4030 5730
2020-06-10 21:00 14.07 2270 9980 (1957) 10 (1978) 1750 53 176 303 351 880 2820 3230 4030 5730
2020-06-10 20:00 14.09 2280 9980 (1957) 10 (1978) 1750 53 176 303 351 880 2820 3230 4030 5730
2020-06-10 19:00 14.12 2290 9980 (1957) 10 (1978) 1750 53 176 303 351 880 2820 3230 4030 5730
2020-06-10 18:00 14.14 2300 9980 (1957) 10 (1978) 1750 53 176 303 351 880 2820 3230 4030 5730
2020-06-10 17:00 14.17 2300 9980 (1957) 10 (1978) 1750 53 176 303 351 880 2820 3230 4030 5730
2020-06-10 16:00 14.21 2320 9980 (1957) 10 (1978) 1750 53 176 303 351 880 2820 3230 4030 5730
2020-06-10 15:00 14.25 2330 9980 (1957) 10 (1978) 1750 53 176 303 351 880 2820 3230 4030 5730
2020-06-10 14:00 14.29 2340 9980 (1957) 10 (1978) 1750 53 176 303 351 880 2820 3230 4030 5730
2020-06-10 13:00 14.34 2360 9980 (1957) 10 (1978) 1750 53 176 303 351 880 2820 3230 4030 5730
2020-06-10 12:00 14.41 2380 9980 (1957) 10 (1978) 1750 53 176 303 351 880 2820 3230 4030 5730
2020-06-10 11:00 14.47 2400 9980 (1957) 10 (1978) 1750 53 176 303 351 880 2820 3230 4030 5730
2020-06-10 10:00 14.57 2430 9980 (1957) 10 (1978) 1750 53 176 303 351 880 2820 3230 4030 5730
2020-06-10 09:00 14.72 2480 9980 (1957) 10 (1978) 1750 53 176 303 351 880 2820 3230 4030 5730
2020-06-10 08:00 14.73 2480 9980 (1957) 10 (1978) 1750 53 176 303 351 880 2820 3230 4030 5730
2020-06-10 07:00 14.72 2480 9980 (1957) 10 (1978) 1750 53 176 303 351 880 2820 3230 4030 5730
2020-06-10 06:00 14.73 2480 9980 (1957) 10 (1978) 1750 53 176 303 351 880 2820 3230 4030 5730
2020-06-10 05:00 14.74 2480 9980 (1957) 10 (1978) 1750 53 176 303 351 880 2820 3230 4030 5730
2020-06-10 04:00 14.73 2480 9980 (1957) 10 (1978) 1750 53 176 303 351 880 2820 3230 4030 5730
2020-06-10 03:00 14.73 2480 9980 (1957) 10 (1978) 1750 53 176 303 351 880 2820 3230 4030 5730
2020-06-10 02:00 14.74 2480 9980 (1957) 10 (1978) 1750 53 176 303 351 880 2820 3230 4030 5730
2020-06-10 01:00 14.75 2490 9980 (1957) 10 (1978) 1750 53 176 303 351 880 2820 3230 4030 5730
2020-06-10 00:00 14.75 2490 9980 (1957) 10 (1978) 1750 53 176 303 351 880 2820 3230 4030 5730
2020-06-09 23:00 14.76 2490 10100 (1957) 9 (1978) 1730 40 71 248 325 804 2930 3490 4060 5140
2020-06-09 22:00 14.75 2490 10100 (1957) 9 (1978) 1730 40 71 248 325 804 2930 3490 4060 5140
2020-06-09 21:00 14.75 2490 10100 (1957) 9 (1978) 1730 40 71 248 325 804 2930 3490 4060 5140
2020-06-09 20:00 14.77 2490 10100 (1957) 9 (1978) 1730 40 71 248 325 804 2930 3490 4060 5140
2020-06-09 19:00 14.76 2490 10100 (1957) 9 (1978) 1730 40 71 248 325 804 2930 3490 4060 5140
2020-06-09 18:00 14.75 2490 10100 (1957) 9 (1978) 1730 40 71 248 325 804 2930 3490 4060 5140
2020-06-09 17:00 14.77 2490 10100 (1957) 9 (1978) 1730 40 71 248 325 804 2930 3490 4060 5140
2020-06-09 16:00 14.76 2490 10100 (1957) 9 (1978) 1730 40 71 248 325 804 2930 3490 4060 5140
2020-06-09 15:00 14.78 2500 10100 (1957) 9 (1978) 1730 40 71 248 325 804 2930 3490 4060 5140
2020-06-09 14:00 14.78 2500 10100 (1957) 9 (1978) 1730 40 71 248 325 804 2930 3490 4060 5140
2020-06-09 13:00 14.75 2490 10100 (1957) 9 (1978) 1730 40 71 248 325 804 2930 3490 4060 5140
2020-06-09 12:00 14.76 2490 10100 (1957) 9 (1978) 1730 40 71 248 325 804 2930 3490 4060 5140
2020-06-09 11:00 14.78 2500 10100 (1957) 9 (1978) 1730 40 71 248 325 804 2930 3490 4060 5140
2020-06-09 10:00 14.78 2500 10100 (1957) 9 (1978) 1730 40 71 248 325 804 2930 3490 4060 5140
2020-06-09 09:00 14.79 2500 10100 (1957) 9 (1978) 1730 40 71 248 325 804 2930 3490 4060 5140
2020-06-09 08:00 14.77 2490 10100 (1957) 9 (1978) 1730 40 71 248 325 804 2930 3490 4060 5140
2020-06-09 07:00 14.77 2490 10100 (1957) 9 (1978) 1730 40 71 248 325 804 2930 3490 4060 5140
2020-06-09 06:00 14.77 2490 10100 (1957) 9 (1978) 1730 40 71 248 325 804 2930 3490 4060 5140
2020-06-09 05:00 14.77 2490 10100 (1957) 9 (1978) 1730 40 71 248 325 804 2930 3490 4060 5140
2020-06-09 04:00 14.77 2490 10100 (1957) 9 (1978) 1730 40 71 248 325 804 2930 3490 4060 5140
2020-06-09 03:00 14.76 2490 10100 (1957) 9 (1978) 1730 40 71 248 325 804 2930 3490 4060 5140
2020-06-09 02:00 14.74 2480 10100 (1957) 9 (1978) 1730 40 71 248 325 804 2930 3490 4060 5140
2020-06-09 01:00 14.74 2480 10100 (1957) 9 (1978) 1730 40 71 248 325 804 2930 3490 4060 5140
2020-06-09 00:00 14.75 2490 10100 (1957) 9 (1978) 1730 40 71 248 325 804 2930 3490 4060 5140
2020-06-08 23:00 14.76 2490 10100 (1957) 10 (1978) 1730 40 66 268 353 800 2980 3380 4380 5190
2020-06-08 22:00 14.74 2480 10100 (1957) 10 (1978) 1730 40 66 268 353 800 2980 3380 4380 5190
2020-06-08 21:00 14.74 2480 10100 (1957) 10 (1978) 1730 40 66 268 353 800 2980 3380 4380 5190
2020-06-08 20:00 14.75 2490 10100 (1957) 10 (1978) 1730 40 66 268 353 800 2980 3380 4380 5190
2020-06-08 19:00 14.74 2480 10100 (1957) 10 (1978) 1730 40 66 268 353 800 2980 3380 4380 5190
2020-06-08 18:00 14.75 2490 10100 (1957) 10 (1978) 1730 40 66 268 353 800 2980 3380 4380 5190
2020-06-08 17:00 14.74 2480 10100 (1957) 10 (1978) 1730 40 66 268 353 800 2980 3380 4380 5190
2020-06-08 16:00 14.75 2490 10100 (1957) 10 (1978) 1730 40 66 268 353 800 2980 3380 4380 5190
2020-06-08 15:00 14.75 2490 10100 (1957) 10 (1978) 1730 40 66 268 353 800 2980 3380 4380 5190
2020-06-08 14:00 14.75 2490 10100 (1957) 10 (1978) 1730 40 66 268 353 800 2980 3380 4380 5190
2020-06-08 13:00 14.76 2490 10100 (1957) 10 (1978) 1730 40 66 268 353 800 2980 3380 4380 5190
2020-06-08 12:00 14.77 2500 10100 (1957) 10 (1978) 1730 40 66 268 353 800 2980 3380 4380 5190
2020-06-08 11:00 14.78 2500 10100 (1957) 10 (1978) 1730 40 66 268 353 800 2980 3380 4380 5190
2020-06-08 10:00 14.79 2500 10100 (1957) 10 (1978) 1730 40 66 268 353 800 2980 3380 4380 5190
2020-06-08 09:00 14.77 2500 10100 (1957) 10 (1978) 1730 40 66 268 353 800 2980 3380 4380 5190
2020-06-08 08:00 14.80 2510 10100 (1957) 10 (1978) 1730 40 66 268 353 800 2980 3380 4380 5190
2020-06-08 07:00 14.81 2510 10100 (1957) 10 (1978) 1730 40 66 268 353 800 2980 3380 4380 5190
2020-06-08 06:00 14.80 2510 10100 (1957) 10 (1978) 1730 40 66 268 353 800 2980 3380 4380 5190
2020-06-08 05:00 14.81 2510 10100 (1957) 10 (1978) 1730 40 66 268 353 800 2980 3380 4380 5190
2020-06-08 04:00 14.82 2510 10100 (1957) 10 (1978) 1730 40 66 268 353 800 2980 3380 4380 5190
2020-06-08 03:00 14.81 2510 10100 (1957) 10 (1978) 1730 40 66 268 353 800 2980 3380 4380 5190
2020-06-08 02:00 14.83 2510 10100 (1957) 10 (1978) 1730 40 66 268 353 800 2980 3380 4380 5190
2020-06-08 01:00 14.83 2510 10100 (1957) 10 (1978) 1730 40 66 268 353 800 2980 3380 4380 5190
2020-06-08 00:00 14.84 2520 10100 (1957) 10 (1978) 1730 40 66 268 353 800 2980 3380 4380 5190
2020-06-07 23:00 14.85 2520 10100 (1957) 10 (1978) 1780 40 66 325 380 773 2910 3390 4740 5380
2020-06-07 21:00 14.86 2520 10100 (1957) 10 (1978) 1780 40 66 325 380 773 2910 3390 4740 5380
2020-06-07 20:00 14.87 2530 10100 (1957) 10 (1978) 1780 40 66 325 380 773 2910 3390 4740 5380
2020-06-07 19:00 14.87 2530 10100 (1957) 10 (1978) 1780 40 66 325 380 773 2910 3390 4740 5380
2020-06-07 18:00 14.87 2530 10100 (1957) 10 (1978) 1780 40 66 325 380 773 2910 3390 4740 5380
2020-06-07 17:00 14.88 2530 10100 (1957) 10 (1978) 1780 40 66 325 380 773 2910 3390 4740 5380
2020-06-07 16:00 14.88 2530 10100 (1957) 10 (1978) 1780 40 66 325 380 773 2910 3390 4740 5380
2020-06-07 15:00 14.89 2530 10100 (1957) 10 (1978) 1780 40 66 325 380 773 2910 3390 4740 5380
2020-06-07 14:00 14.91 2540 10100 (1957) 10 (1978) 1780 40 66 325 380 773 2910 3390 4740 5380
2020-06-07 13:00 14.92 2540 10100 (1957) 10 (1978) 1780 40 66 325 380 773 2910 3390 4740 5380
2020-06-07 12:00 14.92 2540 10100 (1957) 10 (1978) 1780 40 66 325 380 773 2910 3390 4740 5380
2020-06-07 11:00 14.93 2550 10100 (1957) 10 (1978) 1780 40 66 325 380 773 2910 3390 4740 5380
2020-06-07 10:00 14.95 2550 10100 (1957) 10 (1978) 1780 40 66 325 380 773 2910 3390 4740 5380
2020-06-07 09:00 14.96 2560 10100 (1957) 10 (1978) 1780 40 66 325 380 773 2910 3390 4740 5380
2020-06-07 08:00 14.95 2550 10100 (1957) 10 (1978) 1780 40 66 325 380 773 2910 3390 4740 5380
2020-06-07 07:00 14.97 2560 10100 (1957) 10 (1978) 1780 40 66 325 380 773 2910 3390 4740 5380
2020-06-07 06:00 14.98 2560 10100 (1957) 10 (1978) 1780 40 66 325 380 773 2910 3390 4740 5380
2020-06-07 05:00 14.99 2560 10100 (1957) 10 (1978) 1780 40 66 325 380 773 2910 3390 4740 5380
2020-06-07 04:00 15.00 2570 10100 (1957) 10 (1978) 1780 40 66 325 380 773 2910 3390 4740 5380
2020-06-07 03:00 15.01 2570 10100 (1957) 10 (1978) 1780 40 66 325 380 773 2910 3390 4740 5380
2020-06-07 02:00 15.01 2570 10100 (1957) 10 (1978) 1780 40 66 325 380 773 2910 3390 4740 5380
2020-06-07 01:00 15.03 2580 10100 (1957) 10 (1978) 1780 40 66 325 380 773 2910 3390 4740 5380
2020-06-07 00:00 15.05 2580 10100 (1957) 10 (1978) 1780 40 66 325 380 773 2910 3390 4740 5380
2020-06-06 23:00 15.05 2580 9960 (1957) 9 (1978) 1900 40 92 330 401 873 3060 3360 4940 5860
2020-06-06 21:00 15.06 2590 9960 (1957) 9 (1978) 1900 40 92 330 401 873 3060 3360 4940 5860
2020-06-06 20:00 15.07 2590 9960 (1957) 9 (1978) 1900 40 92 330 401 873 3060 3360 4940 5860
2020-06-06 19:00 15.07 2590 9960 (1957) 9 (1978) 1900 40 92 330 401 873 3060 3360 4940 5860
2020-06-06 18:00 15.08 2590 9960 (1957) 9 (1978) 1900 40 92 330 401 873 3060 3360 4940 5860
2020-06-06 17:00 15.09 2600 9960 (1957) 9 (1978) 1900 40 92 330 401 873 3060 3360 4940 5860
2020-06-06 16:00 15.09 2600 9960 (1957) 9 (1978) 1900 40 92 330 401 873 3060 3360 4940 5860
2020-06-06 15:00 15.10 2600 9960 (1957) 9 (1978) 1900 40 92 330 401 873 3060 3360 4940 5860
2020-06-06 14:00 15.12 2610 9960 (1957) 9 (1978) 1900 40 92 330 401 873 3060 3360 4940 5860
2020-06-06 13:00 15.12 2610 9960 (1957) 9 (1978) 1900 40 92 330 401 873 3060 3360 4940 5860
2020-06-06 12:00 15.14 2610 9960 (1957) 9 (1978) 1900 40 92 330 401 873 3060 3360 4940 5860
2020-06-06 11:00 15.15 2620 9960 (1957) 9 (1978) 1900 40 92 330 401 873 3060 3360 4940 5860
2020-06-06 10:00 15.16 2620 9960 (1957) 9 (1978) 1900 40 92 330 401 873 3060 3360 4940 5860
2020-06-06 09:00 15.16 2620 9960 (1957) 9 (1978) 1900 40 92 330 401 873 3060 3360 4940 5860
2020-06-06 08:00 15.18 2630 9960 (1957) 9 (1978) 1900 40 92 330 401 873 3060 3360 4940 5860
2020-06-06 07:00 15.19 2630 9960 (1957) 9 (1978) 1900 40 92 330 401 873 3060 3360 4940 5860
2020-06-06 06:00 15.21 2630 9960 (1957) 9 (1978) 1900 40 92 330 401 873 3060 3360 4940 5860
2020-06-06 05:00 15.20 2630 9960 (1957) 9 (1978) 1900 40 92 330 401 873 3060 3360 4940 5860
2020-06-06 04:00 15.22 2640 9960 (1957) 9 (1978) 1900 40 92 330 401 873 3060 3360 4940 5860
2020-06-06 03:00 15.23 2640 9960 (1957) 9 (1978) 1900 40 92 330 401 873 3060 3360 4940 5860
2020-06-06 02:00 15.25 2650 9960 (1957) 9 (1978) 1900 40 92 330 401 873 3060 3360 4940 5860
2020-06-06 01:00 15.24 2640 9960 (1957) 9 (1978) 1900 40 92 330 401 873 3060 3360 4940 5860
2020-06-06 00:00 15.26 2650 9960 (1957) 9 (1978) 1900 40 92 330 401 873 3060 3360 4940 5860
2020-06-05 23:00 15.26 2650 10000 (1957) 9 (1978) 1990 40 63 273 380 980 3080 3390 4850 6610
2020-06-05 22:00 15.28 2660 10000 (1957) 9 (1978) 1990 40 63 273 380 980 3080 3390 4850 6610
2020-06-05 21:00 15.28 2660 10000 (1957) 9 (1978) 1990 40 63 273 380 980 3080 3390 4850 6610
2020-06-05 20:00 15.29 2660 10000 (1957) 9 (1978) 1990 40 63 273 380 980 3080 3390 4850 6610
2020-06-05 19:00 15.30 2660 10000 (1957) 9 (1978) 1990 40 63 273 380 980 3080 3390 4850 6610
2020-06-05 18:00 15.31 2670 10000 (1957) 9 (1978) 1990 40 63 273 380 980 3080 3390 4850 6610
2020-06-05 17:00 15.31 2670 10000 (1957) 9 (1978) 1990 40 63 273 380 980 3080 3390 4850 6610
2020-06-05 16:00 15.32 2670 10000 (1957) 9 (1978) 1990 40 63 273 380 980 3080 3390 4850 6610
2020-06-05 15:00 15.34 2680 10000 (1957) 9 (1978) 1990 40 63 273 380 980 3080 3390 4850 6610
2020-06-05 14:00 15.35 2680 10000 (1957) 9 (1978) 1990 40 63 273 380 980 3080 3390 4850 6610
2020-06-05 13:00 15.37 2690 10000 (1957) 9 (1978) 1990 40 63 273 380 980 3080 3390 4850 6610
2020-06-05 12:00 15.39 2690 10000 (1957) 9 (1978) 1990 40 63 273 380 980 3080 3390 4850 6610
2020-06-05 11:00 15.41 2700 10000 (1957) 9 (1978) 1990 40 63 273 380 980 3080 3390 4850 6610
2020-06-05 10:00 15.41 2700 10000 (1957) 9 (1978) 1990 40 63 273 380 980 3080 3390 4850 6610
2020-06-05 09:00 15.43 2700 10000 (1957) 9 (1978) 1990 40 63 273 380 980 3080 3390 4850 6610
2020-06-05 08:00 15.46 2710 10000 (1957) 9 (1978) 1990 40 63 273 380 980 3080 3390 4850 6610
2020-06-05 07:00 15.51 2720 10000 (1957) 9 (1978) 1990 40 63 273 380 980 3080 3390 4850 6610
2020-06-05 06:00 15.52 2720 10000 (1957) 9 (1978) 1990 40 63 273 380 980 3080 3390 4850 6610
2020-06-05 05:00 15.57 2740 10000 (1957) 9 (1978) 1990 40 63 273 380 980 3080 3390 4850 6610
2020-06-05 04:00 15.61 2750 10000 (1957) 9 (1978) 1990 40 63 273 380 980 3080 3390 4850 6610
2020-06-05 03:00 15.66 2760 10000 (1957) 9 (1978) 1990 40 63 273 380 980 3080 3390 4850 6610
2020-06-05 02:00 15.69 2770 10000 (1957) 9 (1978) 1990 40 63 273 380 980 3080 3390 4850 6610
2020-06-05 01:00 15.74 2780 10000 (1957) 9 (1978) 1990 40 63 273 380 980 3080 3390 4850 6610
2020-06-05 00:00 15.79 2790 10000 (1957) 9 (1978) 1990 40 63 273 380 980 3080 3390 4850 6610
2020-06-04 23:00 15.85 2810 10000 (1957) 9 (1978) 2080 40 66 272 424 1020 3160 3590 4790 7360
2020-06-04 22:00 15.91 2820 10000 (1957) 9 (1978) 2080 40 66 272 424 1020 3160 3590 4790 7360
2020-06-04 21:00 15.96 2840 10000 (1957) 9 (1978) 2080 40 66 272 424 1020 3160 3590 4790 7360
2020-06-04 20:00 16.02 2850 10000 (1957) 9 (1978) 2080 40 66 272 424 1020 3160 3590 4790 7360
2020-06-04 19:00 16.11 2870 10000 (1957) 9 (1978) 2080 40 66 272 424 1020 3160 3590 4790 7360
2020-06-04 18:00 16.18 2890 10000 (1957) 9 (1978) 2080 40 66 272 424 1020 3160 3590 4790 7360
2020-06-04 17:00 16.27 2910 10000 (1957) 9 (1978) 2080 40 66 272 424 1020 3160 3590 4790 7360
2020-06-04 16:00 16.36 2940 10000 (1957) 9 (1978) 2080 40 66 272 424 1020 3160 3590 4790 7360
2020-06-04 15:00 16.47 2970 10000 (1957) 9 (1978) 2080 40 66 272 424 1020 3160 3590 4790 7360
2020-06-04 14:00 16.57 2990 10000 (1957) 9 (1978) 2080 40 66 272 424 1020 3160 3590 4790 7360
2020-06-04 13:00 16.69 3020 10000 (1957) 9 (1978) 2080 40 66 272 424 1020 3160 3590 4790 7360
2020-06-04 12:00 16.85 3060 10000 (1957) 9 (1978) 2080 40 66 272 424 1020 3160 3590 4790 7360
2020-06-04 11:00 16.91 3080 10000 (1957) 9 (1978) 2080 40 66 272 424 1020 3160 3590 4790 7360
2020-06-04 10:00 16.95 3090 10000 (1957) 9 (1978) 2080 40 66 272 424 1020 3160 3590 4790 7360
2020-06-04 09:00 17.04 3110 10000 (1957) 9 (1978) 2080 40 66 272 424 1020 3160 3590 4790 7360
2020-06-04 08:00 17.00 3100 10000 (1957) 9 (1978) 2080 40 66 272 424 1020 3160 3590 4790 7360
2020-06-04 07:00 16.92 3080 10000 (1957) 9 (1978) 2080 40 66 272 424 1020 3160 3590 4790 7360
2020-06-04 06:00 16.83 3060 10000 (1957) 9 (1978) 2080 40 66 272 424 1020 3160 3590 4790 7360
2020-06-04 05:00 16.82 3060 10000 (1957) 9 (1978) 2080 40 66 272 424 1020 3160 3590 4790 7360
2020-06-04 04:00 16.83 3060 10000 (1957) 9 (1978) 2080 40 66 272 424 1020 3160 3590 4790 7360
2020-06-04 03:00 16.86 3070 10000 (1957) 9 (1978) 2080 40 66 272 424 1020 3160 3590 4790 7360
2020-06-04 02:00 16.88 3070 10000 (1957) 9 (1978) 2080 40 66 272 424 1020 3160 3590 4790 7360
2020-06-04 01:00 16.91 3080 10000 (1957) 9 (1978) 2080 40 66 272 424 1020 3160 3590 4790 7360
2020-06-04 00:00 16.96 3090 10000 (1957) 9 (1978) 2080 40 66 272 424 1020 3160 3590 4790 7360
2020-06-03 23:00 16.99 3100 10000 (1957) 9 (1978) 2100 40 62 262 330 910 3190 3610 5410 7980
2020-06-03 22:00 17.03 3110 10000 (1957) 9 (1978) 2100 40 62 262 330 910 3190 3610 5410 7980
2020-06-03 21:00 17.07 3120 10000 (1957) 9 (1978) 2100 40 62 262 330 910 3190 3610 5410 7980
2020-06-03 20:00 17.12 3130 10000 (1957) 9 (1978) 2100 40 62 262 330 910 3190 3610 5410 7980
2020-06-03 19:00 17.13 3140 10000 (1957) 9 (1978) 2100 40 62 262 330 910 3190 3610 5410 7980
2020-06-03 18:00 17.20 3150 10000 (1957) 9 (1978) 2100 40 62 262 330 910 3190 3610 5410 7980
2020-06-03 17:00 17.24 3170 10000 (1957) 9 (1978) 2100 40 62 262 330 910 3190 3610 5410 7980
2020-06-03 16:00 17.30 3180 10000 (1957) 9 (1978) 2100 40 62 262 330 910 3190 3610 5410 7980
2020-06-03 15:00 17.38 3200 10000 (1957) 9 (1978) 2100 40 62 262 330 910 3190 3610 5410 7980
2020-06-03 14:00 17.48 3230 10000 (1957) 9 (1978) 2100 40 62 262 330 910 3190 3610 5410 7980
2020-06-03 13:00 17.56 3250 10000 (1957) 9 (1978) 2100 40 62 262 330 910 3190 3610 5410 7980
2020-06-03 12:00 17.74 3300 10000 (1957) 9 (1978) 2100 40 62 262 330 910 3190 3610 5410 7980
2020-06-03 11:00 17.84 3320 10000 (1957) 9 (1978) 2100 40 62 262 330 910 3190 3610 5410 7980
2020-06-03 10:00 17.91 3340 10000 (1957) 9 (1978) 2100 40 62 262 330 910 3190 3610 5410 7980
2020-06-03 09:00 18.04 3380 10000 (1957) 9 (1978) 2100 40 62 262 330 910 3190 3610 5410 7980
2020-06-03 08:00 18.06 3380 10000 (1957) 9 (1978) 2100 40 62 262 330 910 3190 3610 5410 7980
2020-06-03 07:00 18.06 3380 10000 (1957) 9 (1978) 2100 40 62 262 330 910 3190 3610 5410 7980
2020-06-03 06:00 18.08 3390 10000 (1957) 9 (1978) 2100 40 62 262 330 910 3190 3610 5410 7980
2020-06-03 05:00 18.08 3390 10000 (1957) 9 (1978) 2100 40 62 262 330 910 3190 3610 5410 7980
2020-06-03 04:00 18.08 3390 10000 (1957) 9 (1978) 2100 40 62 262 330 910 3190 3610 5410 7980
2020-06-03 03:00 18.10 3390 10000 (1957) 9 (1978) 2100 40 62 262 330 910 3190 3610 5410 7980
2020-06-03 02:00 18.12 3400 10000 (1957) 9 (1978) 2100 40 62 262 330 910 3190 3610 5410 7980
2020-06-03 01:00 18.13 3400 10000 (1957) 9 (1978) 2100 40 62 262 330 910 3190 3610 5410 7980
2020-06-03 00:00 18.13 3400 10000 (1957) 9 (1978) 2100 40 62 262 330 910 3190 3610 5410 7980
2020-06-02 23:00 18.13 3400 9980 (1957) 0 (1952) 2150 37 44 262 330 930 3460 3690 5640 8580
2020-06-02 22:00 18.14 3400 9980 (1957) 0 (1952) 2150 37 44 262 330 930 3460 3690 5640 8580
2020-06-02 21:00 18.15 3410 9980 (1957) 0 (1952) 2150 37 44 262 330 930 3460 3690 5640 8580
2020-06-02 20:00 18.14 3400 9980 (1957) 0 (1952) 2150 37 44 262 330 930 3460 3690 5640 8580
2020-06-02 19:00 18.15 3410 9980 (1957) 0 (1952) 2150 37 44 262 330 930 3460 3690 5640 8580
2020-06-02 18:00 18.17 3410 9980 (1957) 0 (1952) 2150 37 44 262 330 930 3460 3690 5640 8580
2020-06-02 17:00 18.17 3410 9980 (1957) 0 (1952) 2150 37 44 262 330 930 3460 3690 5640 8580
2020-06-02 16:00 18.19 3420 9980 (1957) 0 (1952) 2150 37 44 262 330 930 3460 3690 5640 8580
2020-06-02 15:00 18.21 3420 9980 (1957) 0 (1952) 2150 37 44 262 330 930 3460 3690 5640 8580
2020-06-02 14:00 18.21 3420 9980 (1957) 0 (1952) 2150 37 44 262 330 930 3460 3690 5640 8580
2020-06-02 13:00 18.21 3420 9980 (1957) 0 (1952) 2150 37 44 262 330 930 3460 3690 5640 8580
2020-06-02 12:00 18.23 3430 9980 (1957) 0 (1952) 2150 37 44 262 330 930 3460 3690 5640 8580
2020-06-02 11:00 18.23 3430 9980 (1957) 0 (1952) 2150 37 44 262 330 930 3460 3690 5640 8580
2020-06-02 10:00 18.26 3440 9980 (1957) 0 (1952) 2150 37 44 262 330 930 3460 3690 5640 8580
2020-06-02 09:00 18.27 3440 9980 (1957) 0 (1952) 2150 37 44 262 330 930 3460 3690 5640 8580
2020-06-02 08:00 18.28 3440 9980 (1957) 0 (1952) 2150 37 44 262 330 930 3460 3690 5640 8580
2020-06-02 07:00 18.28 3440 9980 (1957) 0 (1952) 2150 37 44 262 330 930 3460 3690 5640 8580
2020-06-02 06:00 18.29 3440 9980 (1957) 0 (1952) 2150 37 44 262 330 930 3460 3690 5640 8580
2020-06-02 05:00 18.29 3440 9980 (1957) 0 (1952) 2150 37 44 262 330 930 3460 3690 5640 8580
2020-06-02 04:00 18.29 3440 9980 (1957) 0 (1952) 2150 37 44 262 330 930 3460 3690 5640 8580
2020-06-02 03:00 18.30 3450 9980 (1957) 0 (1952) 2150 37 44 262 330 930 3460 3690 5640 8580
2020-06-02 02:00 18.31 3450 9980 (1957) 0 (1952) 2150 37 44 262 330 930 3460 3690 5640 8580
2020-06-02 01:00 18.31 3450 9980 (1957) 0 (1952) 2150 37 44 262 330 930 3460 3690 5640 8580
2020-06-02 00:00 18.32 3450 9980 (1957) 0 (1952) 2150 37 44 262 330 930 3460 3690 5640 8580
2020-06-01 23:00 18.33 3460 10100 (1957) 8 (1978) 2260 53 178 355 470 970 3490 3810 6120 9660
2020-06-01 22:00 18.34 3460 10100 (1957) 8 (1978) 2260 53 178 355 470 970 3490 3810 6120 9660
2020-06-01 21:00 18.33 3460 10100 (1957) 8 (1978) 2260 53 178 355 470 970 3490 3810 6120 9660
2020-06-01 20:00 18.34 3460 10100 (1957) 8 (1978) 2260 53 178 355 470 970 3490 3810 6120 9660
2020-06-01 19:00 18.33 3460 10100 (1957) 8 (1978) 2260 53 178 355 470 970 3490 3810 6120 9660
2020-06-01 18:00 18.31 3450 10100 (1957) 8 (1978) 2260 53 178 355 470 970 3490 3810 6120 9660
2020-06-01 17:00 18.35 3460 10100 (1957) 8 (1978) 2260 53 178 355 470 970 3490 3810 6120 9660
2020-06-01 16:00 18.34 3460 10100 (1957) 8 (1978) 2260 53 178 355 470 970 3490 3810 6120 9660
2020-06-01 15:00 18.36 3460 10100 (1957) 8 (1978) 2260 53 178 355 470 970 3490 3810 6120 9660
2020-06-01 14:00 18.34 3460 10100 (1957) 8 (1978) 2260 53 178 355 470 970 3490 3810 6120 9660
2020-06-01 13:00 18.35 3460 10100 (1957) 8 (1978) 2260 53 178 355 470 970 3490 3810 6120 9660
2020-06-01 12:00 18.35 3460 10100 (1957) 8 (1978) 2260 53 178 355 470 970 3490 3810 6120 9660
2020-06-01 11:00 18.36 3460 10100 (1957) 8 (1978) 2260 53 178 355 470 970 3490 3810 6120 9660
2020-06-01 10:00 18.34 3460 10100 (1957) 8 (1978) 2260 53 178 355 470 970 3490 3810 6120 9660
2020-06-01 09:00 18.34 3460 10100 (1957) 8 (1978) 2260 53 178 355 470 970 3490 3810 6120 9660
2020-06-01 08:00 18.36 3460 10100 (1957) 8 (1978) 2260 53 178 355 470 970 3490 3810 6120 9660
2020-06-01 07:00 18.34 3460 10100 (1957) 8 (1978) 2260 53 178 355 470 970 3490 3810 6120 9660
2020-06-01 06:00 18.34 3460 10100 (1957) 8 (1978) 2260 53 178 355 470 970 3490 3810 6120 9660
2020-06-01 05:00 18.34 3460 10100 (1957) 8 (1978) 2260 53 178 355 470 970 3490 3810 6120 9660
2020-06-01 04:00 18.32 3450 10100 (1957) 8 (1978) 2260 53 178 355 470 970 3490 3810 6120 9660
2020-06-01 03:00 18.33 3460 10100 (1957) 8 (1978) 2260 53 178 355 470 970 3490 3810 6120 9660
2020-06-01 02:00 18.30 3450 10100 (1957) 8 (1978) 2260 53 178 355 470 970 3490 3810 6120 9660
2020-06-01 01:00 18.29 3440 10100 (1957) 8 (1978) 2260 53 178 355 470 970 3490 3810 6120 9660
2020-06-01 00:00 18.26 3440 10100 (1957) 8 (1978) 2260 53 178 355 470 970 3490 3810 6120 9660
2020-05-31 23:00 18.22 3430 10400 (1990) 8 (1978) 2380 53 240 404 440 1220 3480 3950 6580 9870
2020-05-31 22:00 18.21 3420 10400 (1990) 8 (1978) 2380 53 240 404 440 1220 3480 3950 6580 9870
2020-05-31 21:00 18.16 3410 10400 (1990) 8 (1978) 2380 53 240 404 440 1220 3480 3950 6580 9870
2020-05-31 20:00 18.14 3400 10400 (1990) 8 (1978) 2380 53 240 404 440 1220 3480 3950 6580 9870
2020-05-31 19:00 18.08 3390 10400 (1990) 8 (1978) 2380 53 240 404 440 1220 3480 3950 6580 9870
2020-05-31 18:00 18.00 3370 10400 (1990) 8 (1978) 2380 53 240 404 440 1220 3480 3950 6580 9870
2020-05-31 17:00 17.86 3330 10400 (1990) 8 (1978) 2380 53 240 404 440 1220 3480 3950 6580 9870
2020-05-31 16:00 17.87 3330 10400 (1990) 8 (1978) 2380 53 240 404 440 1220 3480 3950 6580 9870
2020-05-31 15:00 17.86 3330 10400 (1990) 8 (1978) 2380 53 240 404 440 1220 3480 3950 6580 9870
2020-05-31 14:00 17.84 3320 10400 (1990) 8 (1978) 2380 53 240 404 440 1220 3480 3950 6580 9870
2020-05-31 13:00 17.86 3330 10400 (1990) 8 (1978) 2380 53 240 404 440 1220 3480 3950 6580 9870
2020-05-31 12:00 17.83 3320 10400 (1990) 8 (1978) 2380 53 240 404 440 1220 3480 3950 6580 9870
2020-05-31 11:00 17.85 3330 10400 (1990) 8 (1978) 2380 53 240 404 440 1220 3480 3950 6580 9870
2020-05-31 10:00 17.85 3330 10400 (1990) 8 (1978) 2380 53 240 404 440 1220 3480 3950 6580 9870
2020-05-31 09:00 17.82 3320 10400 (1990) 8 (1978) 2380 53 240 404 440 1220 3480 3950 6580 9870
2020-05-31 08:00 17.82 3320 10400 (1990) 8 (1978) 2380 53 240 404 440 1220 3480 3950 6580 9870
2020-05-31 07:00 17.79 3310 10400 (1990) 8 (1978) 2380 53 240 404 440 1220 3480 3950 6580 9870
2020-05-31 06:00 17.80 3310 10400 (1990) 8 (1978) 2380 53 240 404 440 1220 3480 3950 6580 9870
2020-05-31 05:00 17.76 3300 10400 (1990) 8 (1978) 2380 53 240 404 440 1220 3480 3950 6580 9870
2020-05-31 04:00 17.74 3300 10400 (1990) 8 (1978) 2380 53 240 404 440 1220 3480 3950 6580 9870
2020-05-31 03:00 17.72 3290 10400 (1990) 8 (1978) 2380 53 240 404 440 1220 3480 3950 6580 9870
2020-05-31 02:00 17.72 3290 10400 (1990) 8 (1978) 2380 53 240 404 440 1220 3480 3950 6580 9870
2020-05-31 01:00 17.67 3280 10400 (1990) 8 (1978) 2380 53 240 404 440 1220 3480 3950 6580 9870
2020-05-31 00:00 17.65 3270 10400 (1990) 8 (1978) 2380 53 240 404 440 1220 3480 3950 6580 9870
2020-05-30 23:00 17.60 3260 10300 (1990) 40 (1948) 2440 66 242 398 440 1150 3450 4020 6610 9900
2020-05-30 22:00 17.59 3260 10300 (1990) 40 (1948) 2440 66 242 398 440 1150 3450 4020 6610 9900
2020-05-30 21:00 17.53 3240 10300 (1990) 40 (1948) 2440 66 242 398 440 1150 3450 4020 6610 9900
2020-05-30 20:00 17.47 3230 10300 (1990) 40 (1948) 2440 66 242 398 440 1150 3450 4020 6610 9900
2020-05-30 19:00 17.42 3210 10300 (1990) 40 (1948) 2440 66 242 398 440 1150 3450 4020 6610 9900
2020-05-30 18:00 17.34 3190 10300 (1990) 40 (1948) 2440 66 242 398 440 1150 3450 4020 6610 9900
2020-05-30 17:00 17.27 3170 10300 (1990) 40 (1948) 2440 66 242 398 440 1150 3450 4020 6610 9900
2020-05-30 16:00 17.17 3150 10300 (1990) 40 (1948) 2440 66 242 398 440 1150 3450 4020 6610 9900
2020-05-30 15:00 17.01 3110 10300 (1990) 40 (1948) 2440 66 242 398 440 1150 3450 4020 6610 9900
2020-05-30 14:00 16.89 3070 10300 (1990) 40 (1948) 2440 66 242 398 440 1150 3450 4020 6610 9900
2020-05-30 13:00 16.84 3060 10300 (1990) 40 (1948) 2440 66 242 398 440 1150 3450 4020 6610 9900
2020-05-30 12:00 16.77 3040 10300 (1990) 40 (1948) 2440 66 242 398 440 1150 3450 4020 6610 9900
2020-05-30 11:00 16.66 3010 10300 (1990) 40 (1948) 2440 66 242 398 440 1150 3450 4020 6610 9900
2020-05-30 10:00 16.54 2980 10300 (1990) 40 (1948) 2440 66 242 398 440 1150 3450 4020 6610 9900
2020-05-30 09:00 16.45 2960 10300 (1990) 40 (1948) 2440 66 242 398 440 1150 3450 4020 6610 9900
2020-05-30 08:00 16.42 2950 10300 (1990) 40 (1948) 2440 66 242 398 440 1150 3450 4020 6610 9900
2020-05-30 07:00 16.40 2950 10300 (1990) 40 (1948) 2440 66 242 398 440 1150 3450 4020 6610 9900
2020-05-30 06:00 16.38 2940 10300 (1990) 40 (1948) 2440 66 242 398 440 1150 3450 4020 6610 9900
2020-05-30 05:00 16.34 2930 10300 (1990) 40 (1948) 2440 66 242 398 440 1150 3450 4020 6610 9900
2020-05-30 04:00 16.33 2930 10300 (1990) 40 (1948) 2440 66 242 398 440 1150 3450 4020 6610 9900
2020-05-30 03:00 16.29 2920 10300 (1990) 40 (1948) 2440 66 242 398 440 1150 3450 4020 6610 9900
2020-05-30 02:00 16.27 2910 10300 (1990) 40 (1948) 2440 66 242 398 440 1150 3450 4020 6610 9900
2020-05-30 01:00 16.23 2900 10300 (1990) 40 (1948) 2440 66 242 398 440 1150 3450 4020 6610 9900
2020-05-30 00:00 16.17 2890 10300 (1990) 40 (1948) 2440 66 242 398 440 1150 3450 4020 6610 9900
2020-05-29 23:00 16.13 2880 10200 (1990) 40 (1948) 2540 54 221 422 530 1460 3450 3980 6640 9940
2020-05-29 22:00 16.09 2870 10200 (1990) 40 (1948) 2540 54 221 422 530 1460 3450 3980 6640 9940
2020-05-29 21:00 16.03 2850 10200 (1990) 40 (1948) 2540 54 221 422 530 1460 3450 3980 6640 9940
2020-05-29 20:00 15.95 2830 10200 (1990) 40 (1948) 2540 54 221 422 530 1460 3450 3980 6640 9940
2020-05-29 19:00 15.88 2820 10200 (1990) 40 (1948) 2540 54 221 422 530 1460 3450 3980 6640 9940
2020-05-29 18:00 15.78 2790 10200 (1990) 40 (1948) 2540 54 221 422 530 1460 3450 3980 6640 9940
2020-05-29 17:00 15.66 2760 10200 (1990) 40 (1948) 2540 54 221 422 530 1460 3450 3980 6640 9940
2020-05-29 16:00 15.53 2730 10200 (1990) 40 (1948) 2540 54 221 422 530 1460 3450 3980 6640 9940
2020-05-29 15:00 15.34 2680 10200 (1990) 40 (1948) 2540 54 221 422 530 1460 3450 3980 6640 9940
2020-05-29 14:00 15.08 2590 10200 (1990) 40 (1948) 2540 54 221 422 530 1460 3450 3980 6640 9940
2020-05-29 13:00 14.93 2550 10200 (1990) 40 (1948) 2540 54 221 422 530 1460 3450 3980 6640 9940
2020-05-29 12:00 14.68 2470 10200 (1990) 40 (1948) 2540 54 221 422 530 1460 3450 3980 6640 9940
2020-05-29 11:00 14.70 2470 10200 (1990) 40 (1948) 2540 54 221 422 530 1460 3450 3980 6640 9940
2020-05-29 10:00 14.70 2470 10200 (1990) 40 (1948) 2540 54 221 422 530 1460 3450 3980 6640 9940
2020-05-29 09:00 14.70 2470 10200 (1990) 40 (1948) 2540 54 221 422 530 1460 3450 3980 6640 9940
2020-05-29 08:00 14.70 2470 10200 (1990) 40 (1948) 2540 54 221 422 530 1460 3450 3980 6640 9940
2020-05-29 07:00 14.70 2470 10200 (1990) 40 (1948) 2540 54 221 422 530 1460 3450 3980 6640 9940
2020-05-29 06:00 14.71 2480 10200 (1990) 40 (1948) 2540 54 221 422 530 1460 3450 3980 6640 9940
2020-05-29 05:00 14.71 2480 10200 (1990) 40 (1948) 2540 54 221 422 530 1460 3450 3980 6640 9940
2020-05-29 04:00 14.71 2480 10200 (1990) 40 (1948) 2540 54 221 422 530 1460 3450 3980 6640 9940
2020-05-29 03:00 14.71 2480 10200 (1990) 40 (1948) 2540 54 221 422 530 1460 3450 3980 6640 9940
2020-05-29 02:00 14.72 2480 10200 (1990) 40 (1948) 2540 54 221 422 530 1460 3450 3980 6640 9940
2020-05-29 01:00 14.71 2480 10200 (1990) 40 (1948) 2540 54 221 422 530 1460 3450 3980 6640 9940
2020-05-29 00:00 14.73 2480 10200 (1990) 40 (1948) 2540 54 221 422 530 1460 3450 3980 6640 9940
2020-05-28 23:00 14.73 2480 10000 (1946) 40 (1948) 2610 40 165 390 450 1960 3440 4020 6800 9900
2020-05-28 22:00 14.71 2480 10000 (1946) 40 (1948) 2610 40 165 390 450 1960 3440 4020 6800 9900
2020-05-28 21:00 14.73 2480 10000 (1946) 40 (1948) 2610 40 165 390 450 1960 3440 4020 6800 9900
2020-05-28 20:00 14.73 2480 10000 (1946) 40 (1948) 2610 40 165 390 450 1960 3440 4020 6800 9900
2020-05-28 19:00 14.72 2480 10000 (1946) 40 (1948) 2610 40 165 390 450 1960 3440 4020 6800 9900
2020-05-28 18:00 14.73 2480 10000 (1946) 40 (1948) 2610 40 165 390 450 1960 3440 4020 6800 9900
2020-05-28 17:00 14.72 2480 10000 (1946) 40 (1948) 2610 40 165 390 450 1960 3440 4020 6800 9900
2020-05-28 16:00 14.73 2480 10000 (1946) 40 (1948) 2610 40 165 390 450 1960 3440 4020 6800 9900
2020-05-28 15:00 14.74 2490 10000 (1946) 40 (1948) 2610 40 165 390 450 1960 3440 4020 6800 9900
2020-05-28 14:00 14.73 2480 10000 (1946) 40 (1948) 2610 40 165 390 450 1960 3440 4020 6800 9900
2020-05-28 13:00 14.72 2480 10000 (1946) 40 (1948) 2610 40 165 390 450 1960 3440 4020 6800 9900
2020-05-28 12:00 14.74 2490 10000 (1946) 40 (1948) 2610 40 165 390 450 1960 3440 4020 6800 9900
2020-05-28 11:00 14.75 2490 10000 (1946) 40 (1948) 2610 40 165 390 450 1960 3440 4020 6800 9900
2020-05-28 10:00 14.75 2490 10000 (1946) 40 (1948) 2610 40 165 390 450 1960 3440 4020 6800 9900
2020-05-28 09:00 14.75 2490 10000 (1946) 40 (1948) 2610 40 165 390 450 1960 3440 4020 6800 9900
2020-05-28 08:00 14.77 2500 10000 (1946) 40 (1948) 2610 40 165 390 450 1960 3440 4020 6800 9900
2020-05-28 07:00 14.77 2500 10000 (1946) 40 (1948) 2610 40 165 390 450 1960 3440 4020 6800 9900
2020-05-28 06:00 14.76 2490 10000 (1946) 40 (1948) 2610 40 165 390 450 1960 3440 4020 6800 9900
2020-05-28 05:00 14.76 2490 10000 (1946) 40 (1948) 2610 40 165 390 450 1960 3440 4020 6800 9900
2020-05-28 04:00 14.76 2490 10000 (1946) 40 (1948) 2610 40 165 390 450 1960 3440 4020 6800 9900
2020-05-28 03:00 14.76 2490 10000 (1946) 40 (1948) 2610 40 165 390 450 1960 3440 4020 6800 9900
2020-05-28 02:00 14.74 2490 10000 (1946) 40 (1948) 2610 40 165 390 450 1960 3440 4020 6800 9900
2020-05-28 01:00 14.72 2480 10000 (1946) 40 (1948) 2610 40 165 390 450 1960 3440 4020 6800 9900
2020-05-28 00:00 14.68 2470 10000 (1946) 40 (1948) 2610 40 165 390 450 1960 3440 4020 6800 9900
2020-05-27 23:00 14.69 2470 10000 (1957) 40 (1948) 2650 40 160 377 449 1890 3670 4040 7220 9920
2020-05-27 22:00 14.68 2470 10000 (1957) 40 (1948) 2650 40 160 377 449 1890 3670 4040 7220 9920
2020-05-27 21:00 14.68 2470 10000 (1957) 40 (1948) 2650 40 160 377 449 1890 3670 4040 7220 9920
2020-05-27 20:00 14.69 2470 10000 (1957) 40 (1948) 2650 40 160 377 449 1890 3670 4040 7220 9920
2020-05-27 19:00 14.69 2470 10000 (1957) 40 (1948) 2650 40 160 377 449 1890 3670 4040 7220 9920
2020-05-27 18:00 14.71 2480 10000 (1957) 40 (1948) 2650 40 160 377 449 1890 3670 4040 7220 9920
2020-05-27 17:00 14.71 2480 10000 (1957) 40 (1948) 2650 40 160 377 449 1890 3670 4040 7220 9920
2020-05-27 16:00 14.72 2480 10000 (1957) 40 (1948) 2650 40 160 377 449 1890 3670 4040 7220 9920
2020-05-27 15:00 14.71 2480 10000 (1957) 40 (1948) 2650 40 160 377 449 1890 3670 4040 7220 9920
2020-05-27 14:00 14.70 2470 10000 (1957) 40 (1948) 2650 40 160 377 449 1890 3670 4040 7220 9920
2020-05-27 13:00 14.66 2460 10000 (1957) 40 (1948) 2650 40 160 377 449 1890 3670 4040 7220 9920
2020-05-27 12:00 14.57 2430 10000 (1957) 40 (1948) 2650 40 160 377 449 1890 3670 4040 7220 9920
2020-05-27 11:00 14.58 2440 10000 (1957) 40 (1948) 2650 40 160 377 449 1890 3670 4040 7220 9920
2020-05-27 10:00 14.57 2430 10000 (1957) 40 (1948) 2650 40 160 377 449 1890 3670 4040 7220 9920
2020-05-27 09:00 14.57 2430 10000 (1957) 40 (1948) 2650 40 160 377 449 1890 3670 4040 7220 9920
2020-05-27 08:00 14.59 2440 10000 (1957) 40 (1948) 2650 40 160 377 449 1890 3670 4040 7220 9920
2020-05-27 07:00 14.59 2440 10000 (1957) 40 (1948) 2650 40 160 377 449 1890 3670 4040 7220 9920
2020-05-27 06:00 14.58 2440 10000 (1957) 40 (1948) 2650 40 160 377 449 1890 3670 4040 7220 9920
2020-05-27 05:00 14.58 2440 10000 (1957) 40 (1948) 2650 40 160 377 449 1890 3670 4040 7220 9920
2020-05-27 04:00 14.58 2440 10000 (1957) 40 (1948) 2650 40 160 377 449 1890 3670 4040 7220 9920
2020-05-27 03:00 14.56 2430 10000 (1957) 40 (1948) 2650 40 160 377 449 1890 3670 4040 7220 9920
2020-05-27 02:00 14.56 2430 10000 (1957) 40 (1948) 2650 40 160 377 449 1890 3670 4040 7220 9920
2020-05-27 01:00 14.56 2430 10000 (1957) 40 (1948) 2650 40 160 377 449 1890 3670 4040 7220 9920
2020-05-27 00:00 14.56 2430 10000 (1957) 40 (1948) 2650 40 160 377 449 1890 3670 4040 7220 9920
2020-05-26 23:00 14.56 2430 10200 (1946) 39 (1978) 2720 50 204 391 580 2030 3600 3910 7690 9920
2020-05-26 22:00 14.53 2420 10200 (1946) 39 (1978) 2720 50 204 391 580 2030 3600 3910 7690 9920
2020-05-26 21:00 14.55 2430 10200 (1946) 39 (1978) 2720 50 204 391 580 2030 3600 3910 7690 9920
2020-05-26 20:00 14.55 2430 10200 (1946) 39 (1978) 2720 50 204 391 580 2030 3600 3910 7690 9920
2020-05-26 19:00 14.54 2420 10200 (1946) 39 (1978) 2720 50 204 391 580 2030 3600 3910 7690 9920
2020-05-26 18:00 14.56 2430 10200 (1946) 39 (1978) 2720 50 204 391 580 2030 3600 3910 7690 9920
2020-05-26 17:00 14.56 2430 10200 (1946) 39 (1978) 2720 50 204 391 580 2030 3600 3910 7690 9920
2020-05-26 15:00 14.55 2430 10200 (1946) 39 (1978) 2720 50 204 391 580 2030 3600 3910 7690 9920
2020-05-26 14:00 14.56 2430 10200 (1946) 39 (1978) 2720 50 204 391 580 2030 3600 3910 7690 9920
2020-05-26 13:00 14.56 2430 10200 (1946) 39 (1978) 2720 50 204 391 580 2030 3600 3910 7690 9920
2020-05-26 12:00 14.55 2430 10200 (1946) 39 (1978) 2720 50 204 391 580 2030 3600 3910 7690 9920
2020-05-26 11:00 14.55 2430 10200 (1946) 39 (1978) 2720 50 204 391 580 2030 3600 3910 7690 9920
2020-05-26 10:00 14.56 2430 10200 (1946) 39 (1978) 2720 50 204 391 580 2030 3600 3910 7690 9920
2020-05-26 09:00 14.55 2430 10200 (1946) 39 (1978) 2720 50 204 391 580 2030 3600 3910 7690 9920
2020-05-26 08:00 14.57 2430 10200 (1946) 39 (1978) 2720 50 204 391 580 2030 3600 3910 7690 9920
2020-05-26 07:00 14.57 2430 10200 (1946) 39 (1978) 2720 50 204 391 580 2030 3600 3910 7690 9920
2020-05-26 06:00 14.57 2430 10200 (1946) 39 (1978) 2720 50 204 391 580 2030 3600 3910 7690 9920
2020-05-26 05:00 14.57 2430 10200 (1946) 39 (1978) 2720 50 204 391 580 2030 3600 3910 7690 9920
2020-05-26 04:00 14.58 2440 10200 (1946) 39 (1978) 2720 50 204 391 580 2030 3600 3910 7690 9920
2020-05-26 03:00 14.57 2430 10200 (1946) 39 (1978) 2720 50 204 391 580 2030 3600 3910 7690 9920
2020-05-26 02:00 14.57 2430 10200 (1946) 39 (1978) 2720 50 204 391 580 2030 3600 3910 7690 9920
2020-05-26 01:00 14.57 2430 10200 (1946) 39 (1978) 2720 50 204 391 580 2030 3600 3910 7690 9920
2020-05-26 00:00 14.57 2430 10200 (1946) 39 (1978) 2720 50 204 391 580 2030 3600 3910 7690 9920
2020-05-25 23:00 14.58 2440 10000 (2011) 9 (1978) 2800 53 259 523 742 2250 3620 3810 7750 9810
2020-05-25 22:00 14.57 2430 10000 (2011) 9 (1978) 2800 53 259 523 742 2250 3620 3810 7750 9810
2020-05-25 21:00 14.57 2430 10000 (2011) 9 (1978) 2800 53 259 523 742 2250 3620 3810 7750 9810
2020-05-25 20:00 14.56 2430 10000 (2011) 9 (1978) 2800 53 259 523 742 2250 3620 3810 7750 9810
2020-05-25 19:00 14.56 2430 10000 (2011) 9 (1978) 2800 53 259 523 742 2250 3620 3810 7750 9810
2020-05-25 18:00 14.55 2430 10000 (2011) 9 (1978) 2800 53 259 523 742 2250 3620 3810 7750 9810
2020-05-25 17:00 14.55 2430 10000 (2011) 9 (1978) 2800 53 259 523 742 2250 3620 3810 7750 9810
2020-05-25 16:00 14.56 2430 10000 (2011) 9 (1978) 2800 53 259 523 742 2250 3620 3810 7750 9810
2020-05-25 15:00 14.53 2420 10000 (2011) 9 (1978) 2800 53 259 523 742 2250 3620 3810 7750 9810
2020-05-25 14:00 14.55 2430 10000 (2011) 9 (1978) 2800 53 259 523 742 2250 3620 3810 7750 9810
2020-05-25 13:00 14.56 2430 10000 (2011) 9 (1978) 2800 53 259 523 742 2250 3620 3810 7750 9810
2020-05-25 12:00 14.56 2430 10000 (2011) 9 (1978) 2800 53 259 523 742 2250 3620 3810 7750 9810
2020-05-25 11:00 14.55 2430 10000 (2011) 9 (1978) 2800 53 259 523 742 2250 3620 3810 7750 9810
2020-05-25 10:00 14.57 2430 10000 (2011) 9 (1978) 2800 53 259 523 742 2250 3620 3810 7750 9810
2020-05-25 09:00 14.57 2430 10000 (2011) 9 (1978) 2800 53 259 523 742 2250 3620 3810 7750 9810
2020-05-25 08:00 14.56 2430 10000 (2011) 9 (1978) 2800 53 259 523 742 2250 3620 3810 7750 9810
2020-05-25 07:00 14.57 2430 10000 (2011) 9 (1978) 2800 53 259 523 742 2250 3620 3810 7750 9810
2020-05-25 06:00 14.57 2430 10000 (2011) 9 (1978) 2800 53 259 523 742 2250 3620 3810 7750 9810
2020-05-25 05:00 14.57 2430 10000 (2011) 9 (1978) 2800 53 259 523 742 2250 3620 3810 7750 9810
2020-05-25 04:00 14.56 2430 10000 (2011) 9 (1978) 2800 53 259 523 742 2250 3620 3810 7750 9810
2020-05-25 03:00 14.57 2430 10000 (2011) 9 (1978) 2800 53 259 523 742 2250 3620 3810 7750 9810
2020-05-25 02:00 14.57 2430 10000 (2011) 9 (1978) 2800 53 259 523 742 2250 3620 3810 7750 9810
2020-05-25 01:00 14.57 2430 10000 (2011) 9 (1978) 2800 53 259 523 742 2250 3620 3810 7750 9810
2020-05-25 00:00 14.57 2430 10000 (2011) 9 (1978) 2800 53 259 523 742 2250 3620 3810 7750 9810
2020-05-24 23:00 14.57 2430 10000 (1983) 10 (1978) 2850 51 205 474 635 2410 3690 3840 7930 9910
2020-05-24 22:00 14.57 2430 10000 (1983) 10 (1978) 2850 51 205 474 635 2410 3690 3840 7930 9910
2020-05-24 21:00 14.57 2430 10000 (1983) 10 (1978) 2850 51 205 474 635 2410 3690 3840 7930 9910
2020-05-24 20:00 14.56 2430 10000 (1983) 10 (1978) 2850 51 205 474 635 2410 3690 3840 7930 9910
2020-05-24 19:00 14.57 2430 10000 (1983) 10 (1978) 2850 51 205 474 635 2410 3690 3840 7930 9910
2020-05-24 18:00 14.56 2430 10000 (1983) 10 (1978) 2850 51 205 474 635 2410 3690 3840 7930 9910
2020-05-24 17:00 14.56 2430 10000 (1983) 10 (1978) 2850 51 205 474 635 2410 3690 3840 7930 9910
2020-05-24 16:00 14.57 2430 10000 (1983) 10 (1978) 2850 51 205 474 635 2410 3690 3840 7930 9910
2020-05-24 15:00 14.58 2440 10000 (1983) 10 (1978) 2850 51 205 474 635 2410 3690 3840 7930 9910
2020-05-24 14:00 14.58 2440 10000 (1983) 10 (1978) 2850 51 205 474 635 2410 3690 3840 7930 9910
2020-05-24 13:00 14.58 2440 10000 (1983) 10 (1978) 2850 51 205 474 635 2410 3690 3840 7930 9910
2020-05-24 12:00 14.58 2440 10000 (1983) 10 (1978) 2850 51 205 474 635 2410 3690 3840 7930 9910
2020-05-24 11:00 14.61 2450 10000 (1983) 10 (1978) 2850 51 205 474 635 2410 3690 3840 7930 9910
2020-05-24 09:00 14.60 2440 10000 (1983) 10 (1978) 2850 51 205 474 635 2410 3690 3840 7930 9910
2020-05-24 08:00 14.62 2450 10000 (1983) 10 (1978) 2850 51 205 474 635 2410 3690 3840 7930 9910
2020-05-24 07:00 14.61 2450 10000 (1983) 10 (1978) 2850 51 205 474 635 2410 3690 3840 7930 9910
2020-05-24 06:00 14.63 2450 10000 (1983) 10 (1978) 2850 51 205 474 635 2410 3690 3840 7930 9910
2020-05-24 05:00 14.62 2450 10000 (1983) 10 (1978) 2850 51 205 474 635 2410 3690 3840 7930 9910
2020-05-24 04:00 14.61 2450 10000 (1983) 10 (1978) 2850 51 205 474 635 2410 3690 3840 7930 9910
2020-05-24 03:00 14.63 2450 10000 (1983) 10 (1978) 2850 51 205 474 635 2410 3690 3840 7930 9910
2020-05-24 02:00 14.64 2460 10000 (1983) 10 (1978) 2850 51 205 474 635 2410 3690 3840 7930 9910
2020-05-24 01:00 14.63 2450 10000 (1983) 10 (1978) 2850 51 205 474 635 2410 3690 3840 7930 9910
2020-05-24 00:00 14.65 2460 10000 (1983) 10 (1978) 2850 51 205 474 635 2410 3690 3840 7930 9910
2020-05-23 23:00 14.66 2460 10000 (1957) 13 (1978) 2960 109 212 459 743 2560 3770 4190 8200 9820
2020-05-23 22:00 14.65 2460 10000 (1957) 13 (1978) 2960 109 212 459 743 2560 3770 4190 8200 9820
2020-05-23 21:00 14.65 2460 10000 (1957) 13 (1978) 2960 109 212 459 743 2560 3770 4190 8200 9820
2020-05-23 20:00 14.66 2460 10000 (1957) 13 (1978) 2960 109 212 459 743 2560 3770 4190 8200 9820
2020-05-23 19:00 14.66 2460 10000 (1957) 13 (1978) 2960 109 212 459 743 2560 3770 4190 8200 9820
2020-05-23 18:00 14.67 2460 10000 (1957) 13 (1978) 2960 109 212 459 743 2560 3770 4190 8200 9820
2020-05-23 17:00 14.68 2470 10000 (1957) 13 (1978) 2960 109 212 459 743 2560 3770 4190 8200 9820
2020-05-23 16:00 14.69 2470 10000 (1957) 13 (1978) 2960 109 212 459 743 2560 3770 4190 8200 9820
2020-05-23 15:00 14.69 2470 10000 (1957) 13 (1978) 2960 109 212 459 743 2560 3770 4190 8200 9820
2020-05-23 14:00 14.70 2470 10000 (1957) 13 (1978) 2960 109 212 459 743 2560 3770 4190 8200 9820
2020-05-23 13:00 14.72 2480 10000 (1957) 13 (1978) 2960 109 212 459 743 2560 3770 4190 8200 9820
2020-05-23 12:00 14.73 2480 10000 (1957) 13 (1978) 2960 109 212 459 743 2560 3770 4190 8200 9820
2020-05-23 11:00 14.73 2480 10000 (1957) 13 (1978) 2960 109 212 459 743 2560 3770 4190 8200 9820
2020-05-23 10:00 14.76 2490 10000 (1957) 13 (1978) 2960 109 212 459 743 2560 3770 4190 8200 9820
2020-05-23 09:00 14.78 2500 10000 (1957) 13 (1978) 2960 109 212 459 743 2560 3770 4190 8200 9820
2020-05-23 08:00 14.81 2510 10000 (1957) 13 (1978) 2960 109 212 459 743 2560 3770 4190 8200 9820
2020-05-23 07:00 14.83 2510 10000 (1957) 13 (1978) 2960 109 212 459 743 2560 3770 4190 8200 9820
2020-05-23 06:00 14.83 2510 10000 (1957) 13 (1978) 2960 109 212 459 743 2560 3770 4190 8200 9820
2020-05-23 05:00 14.85 2520 10000 (1957) 13 (1978) 2960 109 212 459 743 2560 3770 4190 8200 9820
2020-05-23 04:00 14.88 2530 10000 (1957) 13 (1978) 2960 109 212 459 743 2560 3770 4190 8200 9820
2020-05-23 03:00 14.90 2540 10000 (1957) 13 (1978) 2960 109 212 459 743 2560 3770 4190 8200 9820
2020-05-23 02:00 14.93 2550 10000 (1957) 13 (1978) 2960 109 212 459 743 2560 3770 4190 8200 9820
2020-05-23 01:00 14.96 2560 10000 (1957) 13 (1978) 2960 109 212 459 743 2560 3770 4190 8200 9820
2020-05-23 00:00 15.00 2570 10000 (1957) 13 (1978) 2960 109 212 459 743 2560 3770 4190 8200 9820
2020-05-22 23:00 15.03 2580 9870 (2002) 29 (1952) 3050 64 157 452 590 2830 3730 4320 8620 9740
2020-05-22 22:00 15.07 2590 9870 (2002) 29 (1952) 3050 64 157 452 590 2830 3730 4320 8620 9740
2020-05-22 21:00 15.13 2610 9870 (2002) 29 (1952) 3050 64 157 452 590 2830 3730 4320 8620 9740
2020-05-22 20:00 15.17 2620 9870 (2002) 29 (1952) 3050 64 157 452 590 2830 3730 4320 8620 9740
2020-05-22 19:00 15.25 2650 9870 (2002) 29 (1952) 3050 64 157 452 590 2830 3730 4320 8620 9740
2020-05-22 18:00 15.31 2670 9870 (2002) 29 (1952) 3050 64 157 452 590 2830 3730 4320 8620 9740
2020-05-22 17:00 15.38 2690 9870 (2002) 29 (1952) 3050 64 157 452 590 2830 3730 4320 8620 9740
2020-05-22 16:00 15.47 2710 9870 (2002) 29 (1952) 3050 64 157 452 590 2830 3730 4320 8620 9740
2020-05-22 15:00 15.53 2730 9870 (2002) 29 (1952) 3050 64 157 452 590 2830 3730 4320 8620 9740
2020-05-22 14:00 15.66 2760 9870 (2002) 29 (1952) 3050 64 157 452 590 2830 3730 4320 8620 9740
2020-05-22 13:00 15.81 2800 9870 (2002) 29 (1952) 3050 64 157 452 590 2830 3730 4320 8620 9740
2020-05-22 12:00 16.07 2860 9870 (2002) 29 (1952) 3050 64 157 452 590 2830 3730 4320 8620 9740
2020-05-22 11:00 16.16 2890 9870 (2002) 29 (1952) 3050 64 157 452 590 2830 3730 4320 8620 9740
2020-05-22 10:00 16.28 2920 9870 (2002) 29 (1952) 3050 64 157 452 590 2830 3730 4320 8620 9740
2020-05-22 09:00 16.52 2980 9870 (2002) 29 (1952) 3050 64 157 452 590 2830 3730 4320 8620 9740
2020-05-22 08:00 16.53 2980 9870 (2002) 29 (1952) 3050 64 157 452 590 2830 3730 4320 8620 9740
2020-05-22 07:00 16.52 2980 9870 (2002) 29 (1952) 3050 64 157 452 590 2830 3730 4320 8620 9740
2020-05-22 06:00 16.52 2980 9870 (2002) 29 (1952) 3050 64 157 452 590 2830 3730 4320 8620 9740
2020-05-22 05:00 16.53 2980 9870 (2002) 29 (1952) 3050 64 157 452 590 2830 3730 4320 8620 9740
2020-05-22 04:00 16.52 2980 9870 (2002) 29 (1952) 3050 64 157 452 590 2830 3730 4320 8620 9740
2020-05-22 03:00 16.53 2980 9870 (2002) 29 (1952) 3050 64 157 452 590 2830 3730 4320 8620 9740
2020-05-22 02:00 16.52 2980 9870 (2002) 29 (1952) 3050 64 157 452 590 2830 3730 4320 8620 9740
2020-05-22 01:00 16.53 2980 9870 (2002) 29 (1952) 3050 64 157 452 590 2830 3730 4320 8620 9740
2020-05-22 00:00 16.53 2980 9870 (2002) 29 (1952) 3050 64 157 452 590 2830 3730 4320 8620 9740
2020-05-21 23:00 16.52 2980 9910 (2011) 30 (1952) 3140 92 212 467 690 2970 3770 4130 9000 9780
2020-05-21 22:00 16.51 2980 9910 (2011) 30 (1952) 3140 92 212 467 690 2970 3770 4130 9000 9780
2020-05-21 21:00 16.53 2980 9910 (2011) 30 (1952) 3140 92 212 467 690 2970 3770 4130 9000 9780
2020-05-21 20:00 16.52 2980 9910 (2011) 30 (1952) 3140 92 212 467 690 2970 3770 4130 9000 9780
2020-05-21 19:00 16.53 2980 9910 (2011) 30 (1952) 3140 92 212 467 690 2970 3770 4130 9000 9780
2020-05-21 18:00 16.51 2980 9910 (2011) 30 (1952) 3140 92 212 467 690 2970 3770 4130 9000 9780
2020-05-21 17:00 16.52 2980 9910 (2011) 30 (1952) 3140 92 212 467 690 2970 3770 4130 9000 9780
2020-05-21 16:00 16.52 2980 9910 (2011) 30 (1952) 3140 92 212 467 690 2970 3770 4130 9000 9780
2020-05-21 15:00 16.53 2980 9910 (2011) 30 (1952) 3140 92 212 467 690 2970 3770 4130 9000 9780
2020-05-21 14:00 16.53 2980 9910 (2011) 30 (1952) 3140 92 212 467 690 2970 3770 4130 9000 9780
2020-05-21 13:00 16.52 2980 9910 (2011) 30 (1952) 3140 92 212 467 690 2970 3770 4130 9000 9780
2020-05-21 12:00 16.52 2980 9910 (2011) 30 (1952) 3140 92 212 467 690 2970 3770 4130 9000 9780
2020-05-21 11:00 16.53 2980 9910 (2011) 30 (1952) 3140 92 212 467 690 2970 3770 4130 9000 9780
2020-05-21 10:00 16.55 2990 9910 (2011) 30 (1952) 3140 92 212 467 690 2970 3770 4130 9000 9780
2020-05-21 09:00 16.54 2980 9910 (2011) 30 (1952) 3140 92 212 467 690 2970 3770 4130 9000 9780
2020-05-21 08:00 16.53 2980 9910 (2011) 30 (1952) 3140 92 212 467 690 2970 3770 4130 9000 9780
2020-05-21 07:00 16.53 2980 9910 (2011) 30 (1952) 3140 92 212 467 690 2970 3770 4130 9000 9780
2020-05-21 06:00 16.55 2990 9910 (2011) 30 (1952) 3140 92 212 467 690 2970 3770 4130 9000 9780
2020-05-21 05:00 16.54 2980 9910 (2011) 30 (1952) 3140 92 212 467 690 2970 3770 4130 9000 9780
2020-05-21 04:00 16.53 2980 9910 (2011) 30 (1952) 3140 92 212 467 690 2970 3770 4130 9000 9780
2020-05-21 03:00 16.54 2980 9910 (2011) 30 (1952) 3140 92 212 467 690 2970 3770 4130 9000 9780
2020-05-21 02:00 16.53 2980 9910 (2011) 30 (1952) 3140 92 212 467 690 2970 3770 4130 9000 9780
2020-05-21 01:00 16.55 2990 9910 (2011) 30 (1952) 3140 92 212 467 690 2970 3770 4130 9000 9780
2020-05-21 00:00 16.55 2990 9910 (2011) 30 (1952) 3140 92 212 467 690 2970 3770 4130 9000 9780
2020-05-20 23:00 16.55 2990 9990 (1946) 30 (1952) 3160 93 212 546 740 2970 3790 4080 8500 9830
2020-05-20 22:00 16.55 2990 9990 (1946) 30 (1952) 3160 93 212 546 740 2970 3790 4080 8500 9830
2020-05-20 21:00 16.53 2980 9990 (1946) 30 (1952) 3160 93 212 546 740 2970 3790 4080 8500 9830
2020-05-20 20:00 16.53 2980 9990 (1946) 30 (1952) 3160 93 212 546 740 2970 3790 4080 8500 9830
2020-05-20 19:00 16.53 2980 9990 (1946) 30 (1952) 3160 93 212 546 740 2970 3790 4080 8500 9830
2020-05-20 18:00 16.53 2980 9990 (1946) 30 (1952) 3160 93 212 546 740 2970 3790 4080 8500 9830
2020-05-20 17:00 16.54 2980 9990 (1946) 30 (1952) 3160 93 212 546 740 2970 3790 4080 8500 9830
2020-05-20 15:00 16.53 2980 9990 (1946) 30 (1952) 3160 93 212 546 740 2970 3790 4080 8500 9830
2020-05-20 14:00 16.54 2980 9990 (1946) 30 (1952) 3160 93 212 546 740 2970 3790 4080 8500 9830
2020-05-20 13:00 16.53 2980 9990 (1946) 30 (1952) 3160 93 212 546 740 2970 3790 4080 8500 9830
2020-05-20 12:00 16.52 2980 9990 (1946) 30 (1952) 3160 93 212 546 740 2970 3790 4080 8500 9830
2020-05-20 11:00 16.54 2980 9990 (1946) 30 (1952) 3160 93 212 546 740 2970 3790 4080 8500 9830
2020-05-20 10:00 16.54 2980 9990 (1946) 30 (1952) 3160 93 212 546 740 2970 3790 4080 8500 9830
2020-05-20 09:00 16.53 2980 9990 (1946) 30 (1952) 3160 93 212 546 740 2970 3790 4080 8500 9830
2020-05-20 08:00 16.53 2980 9990 (1946) 30 (1952) 3160 93 212 546 740 2970 3790 4080 8500 9830
2020-05-20 07:00 16.52 2980 9990 (1946) 30 (1952) 3160 93 212 546 740 2970 3790 4080 8500 9830
2020-05-20 06:00 16.53 2980 9990 (1946) 30 (1952) 3160 93 212 546 740 2970 3790 4080 8500 9830
2020-05-20 05:00 16.51 2980 9990 (1946) 30 (1952) 3160 93 212 546 740 2970 3790 4080 8500 9830
2020-05-20 04:00 16.51 2980 9990 (1946) 30 (1952) 3160 93 212 546 740 2970 3790 4080 8500 9830
2020-05-20 03:00 16.53 2980 9990 (1946) 30 (1952) 3160 93 212 546 740 2970 3790 4080 8500 9830
2020-05-20 02:00 16.51 2980 9990 (1946) 30 (1952) 3160 93 212 546 740 2970 3790 4080 8500 9830
2020-05-20 01:00 16.49 2970 9990 (1946) 30 (1952) 3160 93 212 546 740 2970 3790 4080 8500 9830
2020-05-20 00:00 16.50 2970 9990 (1946) 30 (1952) 3160 93 212 546 740 2970 3790 4080 8500 9830
2020-05-19 23:00 16.50 2970 10100 (1946) 30 (1952) 3130 62 173 436 740 2990 3830 4050 7990 9940
2020-05-19 22:00 16.50 2970 10100 (1946) 30 (1952) 3130 62 173 436 740 2990 3830 4050 7990 9940
2020-05-19 21:00 16.49 2970 10100 (1946) 30 (1952) 3130 62 173 436 740 2990 3830 4050 7990 9940
2020-05-19 20:00 16.47 2970 10100 (1946) 30 (1952) 3130 62 173 436 740 2990 3830 4050 7990 9940
2020-05-19 19:00 16.47 2970 10100 (1946) 30 (1952) 3130 62 173 436 740 2990 3830 4050 7990 9940
2020-05-19 18:00 16.47 2970 10100 (1946) 30 (1952) 3130 62 173 436 740 2990 3830 4050 7990 9940
2020-05-19 17:00 16.46 2960 10100 (1946) 30 (1952) 3130 62 173 436 740 2990 3830 4050 7990 9940
2020-05-19 16:00 16.46 2960 10100 (1946) 30 (1952) 3130 62 173 436 740 2990 3830 4050 7990 9940
2020-05-19 15:00 16.45 2960 10100 (1946) 30 (1952) 3130 62 173 436 740 2990 3830 4050 7990 9940
2020-05-19 14:00 16.43 2960 10100 (1946) 30 (1952) 3130 62 173 436 740 2990 3830 4050 7990 9940
2020-05-19 13:00 16.43 2960 10100 (1946) 30 (1952) 3130 62 173 436 740 2990 3830 4050 7990 9940
2020-05-19 12:00 16.43 2960 10100 (1946) 30 (1952) 3130 62 173 436 740 2990 3830 4050 7990 9940
2020-05-19 11:00 16.43 2960 10100 (1946) 30 (1952) 3130 62 173 436 740 2990 3830 4050 7990 9940
2020-05-19 10:00 16.40 2950 10100 (1946) 30 (1952) 3130 62 173 436 740 2990 3830 4050 7990 9940
2020-05-19 09:00 16.40 2950 10100 (1946) 30 (1952) 3130 62 173 436 740 2990 3830 4050 7990 9940
2020-05-19 08:00 16.37 2940 10100 (1946) 30 (1952) 3130 62 173 436 740 2990 3830 4050 7990 9940
2020-05-19 07:00 16.35 2940 10100 (1946) 30 (1952) 3130 62 173 436 740 2990 3830 4050 7990 9940
2020-05-19 06:00 16.33 2930 10100 (1946) 30 (1952) 3130 62 173 436 740 2990 3830 4050 7990 9940
2020-05-19 05:00 16.31 2930 10100 (1946) 30 (1952) 3130 62 173 436 740 2990 3830 4050 7990 9940
2020-05-19 04:00 16.29 2920 10100 (1946) 30 (1952) 3130 62 173 436 740 2990 3830 4050 7990 9940
2020-05-19 03:00 16.27 2910 10100 (1946) 30 (1952) 3130 62 173 436 740 2990 3830 4050 7990 9940
2020-05-19 02:00 16.24 2910 10100 (1946) 30 (1952) 3130 62 173 436 740 2990 3830 4050 7990 9940
2020-05-19 01:00 16.20 2900 10100 (1946) 30 (1952) 3130 62 173 436 740 2990 3830 4050 7990 9940
2020-05-19 00:00 16.17 2890 10100 (1946) 30 (1952) 3130 62 173 436 740 2990 3830 4050 7990 9940
2020-05-18 23:00 16.15 2880 10400 (1946) 40 (1949) 3040 62 212 483 740 2810 3790 4070 8120 9980
2020-05-18 22:00 16.10 2870 10400 (1946) 40 (1949) 3040 62 212 483 740 2810 3790 4070 8120 9980
2020-05-18 21:00 16.06 2860 10400 (1946) 40 (1949) 3040 62 212 483 740 2810 3790 4070 8120 9980
2020-05-18 20:00 16.01 2850 10400 (1946) 40 (1949) 3040 62 212 483 740 2810 3790 4070 8120 9980
2020-05-18 19:00 15.96 2840 10400 (1946) 40 (1949) 3040 62 212 483 740 2810 3790 4070 8120 9980
2020-05-18 18:00 15.90 2820 10400 (1946) 40 (1949) 3040 62 212 483 740 2810 3790 4070 8120 9980
2020-05-18 17:00 15.82 2800 10400 (1946) 40 (1949) 3040 62 212 483 740 2810 3790 4070 8120 9980
2020-05-18 16:00 15.77 2790 10400 (1946) 40 (1949) 3040 62 212 483 740 2810 3790 4070 8120 9980
2020-05-18 15:00 15.67 2760 10400 (1946) 40 (1949) 3040 62 212 483 740 2810 3790 4070 8120 9980
2020-05-18 14:00 15.54 2730 10400 (1946) 40 (1949) 3040 62 212 483 740 2810 3790 4070 8120 9980
2020-05-18 13:00 15.41 2700 10400 (1946) 40 (1949) 3040 62 212 483 740 2810 3790 4070 8120 9980
2020-05-18 12:00 15.17 2620 10400 (1946) 40 (1949) 3040 62 212 483 740 2810 3790 4070 8120 9980
2020-05-18 11:00 15.09 2600 10400 (1946) 40 (1949) 3040 62 212 483 740 2810 3790 4070 8120 9980
2020-05-18 10:00 14.99 2560 10400 (1946) 40 (1949) 3040 62 212 483 740 2810 3790 4070 8120 9980
2020-05-18 09:00 14.84 2520 10400 (1946) 40 (1949) 3040 62 212 483 740 2810 3790 4070 8120 9980
2020-05-18 08:00 14.79 2500 10400 (1946) 40 (1949) 3040 62 212 483 740 2810 3790 4070 8120 9980
2020-05-18 07:00 14.77 2500 10400 (1946) 40 (1949) 3040 62 212 483 740 2810 3790 4070 8120 9980
2020-05-18 06:00 14.78 2500 10400 (1946) 40 (1949) 3040 62 212 483 740 2810 3790 4070 8120 9980
2020-05-18 05:00 14.77 2500 10400 (1946) 40 (1949) 3040 62 212 483 740 2810 3790 4070 8120 9980
2020-05-18 04:00 14.78 2500 10400 (1946) 40 (1949) 3040 62 212 483 740 2810 3790 4070 8120 9980
2020-05-18 03:00 14.78 2500 10400 (1946) 40 (1949) 3040 62 212 483 740 2810 3790 4070 8120 9980
2020-05-18 02:00 14.77 2500 10400 (1946) 40 (1949) 3040 62 212 483 740 2810 3790 4070 8120 9980
2020-05-18 01:00 14.77 2500 10400 (1946) 40 (1949) 3040 62 212 483 740 2810 3790 4070 8120 9980
2020-05-18 00:00 14.78 2500 10400 (1946) 40 (1949) 3040 62 212 483 740 2810 3790 4070 8120 9980
2020-05-17 23:00 14.78 2500 10200 (1983) 40 (1949) 2960 62 204 498 580 2550 3760 3970 8770 9880
2020-05-17 22:00 14.78 2500 10200 (1983) 40 (1949) 2960 62 204 498 580 2550 3760 3970 8770 9880
2020-05-17 21:00 14.78 2500 10200 (1983) 40 (1949) 2960 62 204 498 580 2550 3760 3970 8770 9880
2020-05-17 20:00 14.78 2500 10200 (1983) 40 (1949) 2960 62 204 498 580 2550 3760 3970 8770 9880
2020-05-17 19:00 14.77 2500 10200 (1983) 40 (1949) 2960 62 204 498 580 2550 3760 3970 8770 9880
2020-05-17 18:00 14.76 2490 10200 (1983) 40 (1949) 2960 62 204 498 580 2550 3760 3970 8770 9880
2020-05-17 17:00 14.76 2490 10200 (1983) 40 (1949) 2960 62 204 498 580 2550 3760 3970 8770 9880
2020-05-17 16:00 14.77 2500 10200 (1983) 40 (1949) 2960 62 204 498 580 2550 3760 3970 8770 9880
2020-05-17 15:00 14.78 2500 10200 (1983) 40 (1949) 2960 62 204 498 580 2550 3760 3970 8770 9880
2020-05-17 14:00 14.79 2500 10200 (1983) 40 (1949) 2960 62 204 498 580 2550 3760 3970 8770 9880
2020-05-17 13:00 14.78 2500 10200 (1983) 40 (1949) 2960 62 204 498 580 2550 3760 3970 8770 9880
2020-05-17 12:00 14.78 2500 10200 (1983) 40 (1949) 2960 62 204 498 580 2550 3760 3970 8770 9880
2020-05-17 11:00 14.78 2500 10200 (1983) 40 (1949) 2960 62 204 498 580 2550 3760 3970 8770 9880
2020-05-17 10:00 14.77 2500 10200 (1983) 40 (1949) 2960 62 204 498 580 2550 3760 3970 8770 9880
2020-05-17 09:00 14.77 2500 10200 (1983) 40 (1949) 2960 62 204 498 580 2550 3760 3970 8770 9880
2020-05-17 08:00 14.76 2490 10200 (1983) 40 (1949) 2960 62 204 498 580 2550 3760 3970 8770 9880
2020-05-17 07:00 14.75 2490 10200 (1983) 40 (1949) 2960 62 204 498 580 2550 3760 3970 8770 9880
2020-05-17 06:00 14.72 2480 10200 (1983) 40 (1949) 2960 62 204 498 580 2550 3760 3970 8770 9880
2020-05-17 05:00 14.70 2470 10200 (1983) 40 (1949) 2960 62 204 498 580 2550 3760 3970 8770 9880
2020-05-17 04:00 14.66 2460 10200 (1983) 40 (1949) 2960 62 204 498 580 2550 3760 3970 8770 9880
2020-05-17 03:00 14.60 2440 10200 (1983) 40 (1949) 2960 62 204 498 580 2550 3760 3970 8770 9880
2020-05-17 02:00 14.56 2430 10200 (1983) 40 (1949) 2960 62 204 498 580 2550 3760 3970 8770 9880
2020-05-17 01:00 14.56 2430 10200 (1983) 40 (1949) 2960 62 204 498 580 2550 3760 3970 8770 9880
2020-05-17 00:00 14.56 2430 10200 (1983) 40 (1949) 2960 62 204 498 580 2550 3760 3970 8770 9880
2020-05-16 23:00 14.56 2430 10300 (1983) 40 (1965) 2900 75 288 538 650 2410 3720 3930 7340 9870
2020-05-16 22:00 14.56 2430 10300 (1983) 40 (1965) 2900 75 288 538 650 2410 3720 3930 7340 9870
2020-05-16 21:00 14.57 2430 10300 (1983) 40 (1965) 2900 75 288 538 650 2410 3720 3930 7340 9870
2020-05-16 20:00 14.57 2430 10300 (1983) 40 (1965) 2900 75 288 538 650 2410 3720 3930 7340 9870
2020-05-16 19:00 14.56 2430 10300 (1983) 40 (1965) 2900 75 288 538 650 2410 3720 3930 7340 9870
2020-05-16 18:00 14.57 2430 10300 (1983) 40 (1965) 2900 75 288 538 650 2410 3720 3930 7340 9870
2020-05-16 17:00 14.54 2420 10300 (1983) 40 (1965) 2900 75 288 538 650 2410 3720 3930 7340 9870
2020-05-16 16:00 14.54 2420 10300 (1983) 40 (1965) 2900 75 288 538 650 2410 3720 3930 7340 9870
2020-05-16 15:00 14.56 2430 10300 (1983) 40 (1965) 2900 75 288 538 650 2410 3720 3930 7340 9870
2020-05-16 14:00 14.55 2430 10300 (1983) 40 (1965) 2900 75 288 538 650 2410 3720 3930 7340 9870
2020-05-16 13:00 14.57 2430 10300 (1983) 40 (1965) 2900 75 288 538 650 2410 3720 3930 7340 9870
2020-05-16 12:00 14.56 2430 10300 (1983) 40 (1965) 2900 75 288 538 650 2410 3720 3930 7340 9870
2020-05-16 11:00 14.58 2440 10300 (1983) 40 (1965) 2900 75 288 538 650 2410 3720 3930 7340 9870
2020-05-16 10:00 14.58 2440 10300 (1983) 40 (1965) 2900 75 288 538 650 2410 3720 3930 7340 9870
2020-05-16 09:00 14.59 2440 10300 (1983) 40 (1965) 2900 75 288 538 650 2410 3720 3930 7340 9870
2020-05-16 08:00 14.58 2440 10300 (1983) 40 (1965) 2900 75 288 538 650 2410 3720 3930 7340 9870
2020-05-16 07:00 14.59 2440 10300 (1983) 40 (1965) 2900 75 288 538 650 2410 3720 3930 7340 9870
2020-05-16 06:00 14.60 2440 10300 (1983) 40 (1965) 2900 75 288 538 650 2410 3720 3930 7340 9870
2020-05-16 05:00 14.60 2440 10300 (1983) 40 (1965) 2900 75 288 538 650 2410 3720 3930 7340 9870
2020-05-16 04:00 14.60 2440 10300 (1983) 40 (1965) 2900 75 288 538 650 2410 3720 3930 7340 9870
2020-05-16 03:00 14.62 2450 10300 (1983) 40 (1965) 2900 75 288 538 650 2410 3720 3930 7340 9870
2020-05-16 02:00 14.62 2450 10300 (1983) 40 (1965) 2900 75 288 538 650 2410 3720 3930 7340 9870
2020-05-16 01:00 14.62 2450 10300 (1983) 40 (1965) 2900 75 288 538 650 2410 3720 3930 7340 9870
2020-05-16 00:00 14.62 2450 10300 (1983) 40 (1965) 2900 75 288 538 650 2410 3720 3930 7340 9870
2020-05-15 23:00 14.63 2450 10300 (1983) 40 (1965) 2870 63 212 506 580 2390 3700 3910 8060 9980
2020-05-15 22:00 14.63 2450 10300 (1983) 40 (1965) 2870 63 212 506 580 2390 3700 3910 8060 9980
2020-05-15 21:00 14.63 2450 10300 (1983) 40 (1965) 2870 63 212 506 580 2390 3700 3910 8060 9980
2020-05-15 20:00 14.63 2450 10300 (1983) 40 (1965) 2870 63 212 506 580 2390 3700 3910 8060 9980
2020-05-15 19:00 14.63 2450 10300 (1983) 40 (1965) 2870 63 212 506 580 2390 3700 3910 8060 9980
2020-05-15 18:00 14.61 2450 10300 (1983) 40 (1965) 2870 63 212 506 580 2390 3700 3910 8060 9980
2020-05-15 17:00 14.61 2450 10300 (1983) 40 (1965) 2870 63 212 506 580 2390 3700 3910 8060 9980
2020-05-15 16:00 14.61 2450 10300 (1983) 40 (1965) 2870 63 212 506 580 2390 3700 3910 8060 9980
2020-05-15 15:00 14.59 2440 10300 (1983) 40 (1965) 2870 63 212 506 580 2390 3700 3910 8060 9980
2020-05-15 14:00 14.58 2440 10300 (1983) 40 (1965) 2870 63 212 506 580 2390 3700 3910 8060 9980
2020-05-15 13:00 14.58 2440 10300 (1983) 40 (1965) 2870 63 212 506 580 2390 3700 3910 8060 9980
2020-05-15 12:00 14.57 2430 10300 (1983) 40 (1965) 2870 63 212 506 580 2390 3700 3910 8060 9980
2020-05-15 11:00 14.56 2430 10300 (1983) 40 (1965) 2870 63 212 506 580 2390 3700 3910 8060 9980
2020-05-15 10:00 14.54 2420 10300 (1983) 40 (1965) 2870 63 212 506 580 2390 3700 3910 8060 9980
2020-05-15 09:00 14.51 2420 10300 (1983) 40 (1965) 2870 63 212 506 580 2390 3700 3910 8060 9980
2020-05-15 08:00 14.50 2410 10300 (1983) 40 (1965) 2870 63 212 506 580 2390 3700 3910 8060 9980
2020-05-15 07:00 14.46 2400 10300 (1983) 40 (1965) 2870 63 212 506 580 2390 3700 3910 8060 9980
2020-05-15 06:00 14.47 2400 10300 (1983) 40 (1965) 2870 63 212 506 580 2390 3700 3910 8060 9980
2020-05-15 05:00 14.46 2400 10300 (1983) 40 (1965) 2870 63 212 506 580 2390 3700 3910 8060 9980
2020-05-15 04:00 14.45 2400 10300 (1983) 40 (1965) 2870 63 212 506 580 2390 3700 3910 8060 9980
2020-05-15 03:00 14.47 2400 10300 (1983) 40 (1965) 2870 63 212 506 580 2390 3700 3910 8060 9980
2020-05-15 02:00 14.47 2400 10300 (1983) 40 (1965) 2870 63 212 506 580 2390 3700 3910 8060 9980
2020-05-15 01:00 14.47 2400 10300 (1983) 40 (1965) 2870 63 212 506 580 2390 3700 3910 8060 9980
2020-05-15 00:00 14.49 2410 10300 (1983) 40 (1965) 2870 63 212 506 580 2390 3700 3910 8060 9980
2020-05-14 23:00 14.48 2410 10200 (1950) 40 (1965) 2850 72 225 522 680 2090 3720 3930 8630 9930
2020-05-14 22:00 14.48 2410 10200 (1950) 40 (1965) 2850 72 225 522 680 2090 3720 3930 8630 9930
2020-05-14 21:00 14.48 2410 10200 (1950) 40 (1965) 2850 72 225 522 680 2090 3720 3930 8630 9930
2020-05-14 20:00 14.48 2410 10200 (1950) 40 (1965) 2850 72 225 522 680 2090 3720 3930 8630 9930
2020-05-14 19:00 14.49 2410 10200 (1950) 40 (1965) 2850 72 225 522 680 2090 3720 3930 8630 9930
2020-05-14 18:00 14.49 2410 10200 (1950) 40 (1965) 2850 72 225 522 680 2090 3720 3930 8630 9930
2020-05-14 17:00 14.52 2420 10200 (1950) 40 (1965) 2850 72 225 522 680 2090 3720 3930 8630 9930
2020-05-14 16:00 14.53 2420 10200 (1950) 40 (1965) 2850 72 225 522 680 2090 3720 3930 8630 9930
2020-05-14 15:00 14.54 2420 10200 (1950) 40 (1965) 2850 72 225 522 680 2090 3720 3930 8630 9930
2020-05-14 14:00 14.57 2430 10200 (1950) 40 (1965) 2850 72 225 522 680 2090 3720 3930 8630 9930
2020-05-14 13:00 14.56 2430 10200 (1950) 40 (1965) 2850 72 225 522 680 2090 3720 3930 8630 9930
2020-05-14 12:00 14.58 2440 10200 (1950) 40 (1965) 2850 72 225 522 680 2090 3720 3930 8630 9930
2020-05-14 11:00 14.62 2450 10200 (1950) 40 (1965) 2850 72 225 522 680 2090 3720 3930 8630 9930
2020-05-14 10:00 14.61 2450 10200 (1950) 40 (1965) 2850 72 225 522 680 2090 3720 3930 8630 9930
2020-05-14 09:00 14.64 2460 10200 (1950) 40 (1965) 2850 72 225 522 680 2090 3720 3930 8630 9930
2020-05-14 08:00 14.66 2460 10200 (1950) 40 (1965) 2850 72 225 522 680 2090 3720 3930 8630 9930
2020-05-14 07:00 14.68 2470 10200 (1950) 40 (1965) 2850 72 225 522 680 2090 3720 3930 8630 9930
2020-05-14 06:00 14.70 2470 10200 (1950) 40 (1965) 2850 72 225 522 680 2090 3720 3930 8630 9930
2020-05-14 05:00 14.72 2480 10200 (1950) 40 (1965) 2850 72 225 522 680 2090 3720 3930 8630 9930
2020-05-14 04:00 14.75 2490 10200 (1950) 40 (1965) 2850 72 225 522 680 2090 3720 3930 8630 9930
2020-05-14 03:00 14.77 2500 10200 (1950) 40 (1965) 2850 72 225 522 680 2090 3720 3930 8630 9930
2020-05-14 02:00 14.80 2510 10200 (1950) 40 (1965) 2850 72 225 522 680 2090 3720 3930 8630 9930
2020-05-14 01:00 14.83 2510 10200 (1950) 40 (1965) 2850 72 225 522 680 2090 3720 3930 8630 9930
2020-05-14 00:00 14.85 2520 10200 (1950) 40 (1965) 2850 72 225 522 680 2090 3720 3930 8630 9930
2020-05-13 23:00 14.88 2530 10100 (1961) 40 (1965) 2850 65 210 424 590 2540 3800 4020 7820 9880
2020-05-13 22:00 14.91 2540 10100 (1961) 40 (1965) 2850 65 210 424 590 2540 3800 4020 7820 9880
2020-05-13 21:00 14.94 2550 10100 (1961) 40 (1965) 2850 65 210 424 590 2540 3800 4020 7820 9880
2020-05-13 20:00 14.96 2560 10100 (1961) 40 (1965) 2850 65 210 424 590 2540 3800 4020 7820 9880
2020-05-13 19:00 14.98 2560 10100 (1961) 40 (1965) 2850 65 210 424 590 2540 3800 4020 7820 9880
2020-05-13 18:00 15.00 2570 10100 (1961) 40 (1965) 2850 65 210 424 590 2540 3800 4020 7820 9880
2020-05-13 17:00 14.98 2560 10100 (1961) 40 (1965) 2850 65 210 424 590 2540 3800 4020 7820 9880
2020-05-13 16:00 14.98 2560 10100 (1961) 40 (1965) 2850 65 210 424 590 2540 3800 4020 7820 9880
2020-05-13 15:00 14.96 2560 10100 (1961) 40 (1965) 2850 65 210 424 590 2540 3800 4020 7820 9880
2020-05-13 14:00 14.91 2540 10100 (1961) 40 (1965) 2850 65 210 424 590 2540 3800 4020 7820 9880
2020-05-13 13:00 14.85 2520 10100 (1961) 40 (1965) 2850 65 210 424 590 2540 3800 4020 7820 9880
2020-05-13 12:00 14.78 2500 10100 (1961) 40 (1965) 2850 65 210 424 590 2540 3800 4020 7820 9880
2020-05-13 11:00 14.69 2470 10100 (1961) 40 (1965) 2850 65 210 424 590 2540 3800 4020 7820 9880
2020-05-13 10:00 14.59 2440 10100 (1961) 40 (1965) 2850 65 210 424 590 2540 3800 4020 7820 9880
2020-05-13 09:00 14.47 2400 10100 (1961) 40 (1965) 2850 65 210 424 590 2540 3800 4020 7820 9880
2020-05-13 08:00 14.35 2370 10100 (1961) 40 (1965) 2850 65 210 424 590 2540 3800 4020 7820 9880
2020-05-13 07:00 14.33 2360 10100 (1961) 40 (1965) 2850 65 210 424 590 2540 3800 4020 7820 9880
2020-05-13 06:00 14.30 2350 10100 (1961) 40 (1965) 2850 65 210 424 590 2540 3800 4020 7820 9880
2020-05-13 05:00 14.29 2350 10100 (1961) 40 (1965) 2850 65 210 424 590 2540 3800 4020 7820 9880
2020-05-13 04:00 14.30 2350 10100 (1961) 40 (1965) 2850 65 210 424 590 2540 3800 4020 7820 9880
2020-05-13 03:00 14.31 2350 10100 (1961) 40 (1965) 2850 65 210 424 590 2540 3800 4020 7820 9880
2020-05-13 02:00 14.31 2350 10100 (1961) 40 (1965) 2850 65 210 424 590 2540 3800 4020 7820 9880
2020-05-13 01:00 14.29 2350 10100 (1961) 40 (1965) 2850 65 210 424 590 2540 3800 4020 7820 9880
2020-05-13 00:00 14.30 2350 10100 (1961) 40 (1965) 2850 65 210 424 590 2540 3800 4020 7820 9880
2020-05-12 23:00 14.31 2350 10100 (1950) 40 (1948) 2910 40 63 330 549 2240 4020 4180 7870 9960
2020-05-12 22:00 14.31 2350 10100 (1950) 40 (1948) 2910 40 63 330 549 2240 4020 4180 7870 9960
2020-05-12 21:00 14.29 2350 10100 (1950) 40 (1948) 2910 40 63 330 549 2240 4020 4180 7870 9960
2020-05-12 20:00 14.30 2350 10100 (1950) 40 (1948) 2910 40 63 330 549 2240 4020 4180 7870 9960
2020-05-12 19:00 14.30 2350 10100 (1950) 40 (1948) 2910 40 63 330 549 2240 4020 4180 7870 9960
2020-05-12 18:00 14.31 2350 10100 (1950) 40 (1948) 2910 40 63 330 549 2240 4020 4180 7870 9960
2020-05-12 17:00 14.30 2350 10100 (1950) 40 (1948) 2910 40 63 330 549 2240 4020 4180 7870 9960
2020-05-12 16:00 14.31 2350 10100 (1950) 40 (1948) 2910 40 63 330 549 2240 4020 4180 7870 9960
2020-05-12 15:00 14.31 2350 10100 (1950) 40 (1948) 2910 40 63 330 549 2240 4020 4180 7870 9960
2020-05-12 14:00 14.32 2360 10100 (1950) 40 (1948) 2910 40 63 330 549 2240 4020 4180 7870 9960
2020-05-12 13:00 14.30 2350 10100 (1950) 40 (1948) 2910 40 63 330 549 2240 4020 4180 7870 9960
2020-05-12 12:00 14.30 2350 10100 (1950) 40 (1948) 2910 40 63 330 549 2240 4020 4180 7870 9960
2020-05-12 11:00 14.31 2350 10100 (1950) 40 (1948) 2910 40 63 330 549 2240 4020 4180 7870 9960
2020-05-12 10:00 14.32 2360 10100 (1950) 40 (1948) 2910 40 63 330 549 2240 4020 4180 7870 9960
2020-05-12 09:00 14.32 2360 10100 (1950) 40 (1948) 2910 40 63 330 549 2240 4020 4180 7870 9960
2020-05-12 08:00 14.32 2360 10100 (1950) 40 (1948) 2910 40 63 330 549 2240 4020 4180 7870 9960
2020-05-12 07:00 14.32 2360 10100 (1950) 40 (1948) 2910 40 63 330 549 2240 4020 4180 7870 9960
2020-05-12 06:00 14.33 2360 10100 (1950) 40 (1948) 2910 40 63 330 549 2240 4020 4180 7870 9960
2020-05-12 05:00 14.32 2360 10100 (1950) 40 (1948) 2910 40 63 330 549 2240 4020 4180 7870 9960
2020-05-12 04:00 14.33 2360 10100 (1950) 40 (1948) 2910 40 63 330 549 2240 4020 4180 7870 9960
2020-05-12 03:00 14.33 2360 10100 (1950) 40 (1948) 2910 40 63 330 549 2240 4020 4180 7870 9960
2020-05-12 02:00 14.32 2360 10100 (1950) 40 (1948) 2910 40 63 330 549 2240 4020 4180 7870 9960
2020-05-12 01:00 14.34 2360 10100 (1950) 40 (1948) 2910 40 63 330 549 2240 4020 4180 7870 9960
2020-05-12 00:00 14.32 2360 10100 (1950) 40 (1948) 2910 40 63 330 549 2240 4020 4180 7870 9960
2020-05-11 23:00 14.33 2360 10100 (2017) 40 (1948) 2930 40 65 418 530 2380 4000 4610 7850 9840
2020-05-11 22:00 14.34 2360 10100 (2017) 40 (1948) 2930 40 65 418 530 2380 4000 4610 7850 9840
2020-05-11 21:00 14.34 2360 10100 (2017) 40 (1948) 2930 40 65 418 530 2380 4000 4610 7850 9840
2020-05-11 20:00 14.35 2370 10100 (2017) 40 (1948) 2930 40 65 418 530 2380 4000 4610 7850 9840
2020-05-11 19:00 14.35 2370 10100 (2017) 40 (1948) 2930 40 65 418 530 2380 4000 4610 7850 9840
2020-05-11 18:00 14.35 2370 10100 (2017) 40 (1948) 2930 40 65 418 530 2380 4000 4610 7850 9840
2020-05-11 17:00 14.34 2360 10100 (2017) 40 (1948) 2930 40 65 418 530 2380 4000 4610 7850 9840
2020-05-11 16:00 14.35 2370 10100 (2017) 40 (1948) 2930 40 65 418 530 2380 4000 4610 7850 9840
2020-05-11 15:00 14.36 2370 10100 (2017) 40 (1948) 2930 40 65 418 530 2380 4000 4610 7850 9840
2020-05-11 14:00 14.35 2370 10100 (2017) 40 (1948) 2930 40 65 418 530 2380 4000 4610 7850 9840
2020-05-11 13:00 14.36 2370 10100 (2017) 40 (1948) 2930 40 65 418 530 2380 4000 4610 7850 9840
2020-05-11 12:00 14.37 2370 10100 (2017) 40 (1948) 2930 40 65 418 530 2380 4000 4610 7850 9840
2020-05-11 11:00 14.37 2370 10100 (2017) 40 (1948) 2930 40 65 418 530 2380 4000 4610 7850 9840
2020-05-11 10:00 14.37 2370 10100 (2017) 40 (1948) 2930 40 65 418 530 2380 4000 4610 7850 9840
2020-05-11 09:00 14.39 2380 10100 (2017) 40 (1948) 2930 40 65 418 530 2380 4000 4610 7850 9840
2020-05-11 08:00 14.39 2380 10100 (2017) 40 (1948) 2930 40 65 418 530 2380 4000 4610 7850 9840
2020-05-11 07:00 14.39 2380 10100 (2017) 40 (1948) 2930 40 65 418 530 2380 4000 4610 7850 9840
2020-05-11 06:00 14.39 2380 10100 (2017) 40 (1948) 2930 40 65 418 530 2380 4000 4610 7850 9840
2020-05-11 05:00 14.40 2380 10100 (2017) 40 (1948) 2930 40 65 418 530 2380 4000 4610 7850 9840
2020-05-11 04:00 14.40 2380 10100 (2017) 40 (1948) 2930 40 65 418 530 2380 4000 4610 7850 9840
2020-05-11 03:00 14.39 2380 10100 (2017) 40 (1948) 2930 40 65 418 530 2380 4000 4610 7850 9840
2020-05-11 02:00 14.40 2380 10100 (2017) 40 (1948) 2930 40 65 418 530 2380 4000 4610 7850 9840
2020-05-11 01:00 14.40 2380 10100 (2017) 40 (1948) 2930 40 65 418 530 2380 4000 4610 7850 9840
2020-05-11 00:00 14.39 2380 10100 (2017) 40 (1948) 2930 40 65 418 530 2380 4000 4610 7850 9840
2020-05-10 23:00 14.41 2380 10200 (2017) 40 (1948) 2820 40 63 379 580 2060 3940 4510 7220 9920
2020-05-10 22:00 14.41 2380 10200 (2017) 40 (1948) 2820 40 63 379 580 2060 3940 4510 7220 9920
2020-05-10 21:00 14.41 2380 10200 (2017) 40 (1948) 2820 40 63 379 580 2060 3940 4510 7220 9920
2020-05-10 20:00 14.40 2380 10200 (2017) 40 (1948) 2820 40 63 379 580 2060 3940 4510 7220 9920
2020-05-10 19:00 14.41 2380 10200 (2017) 40 (1948) 2820 40 63 379 580 2060 3940 4510 7220 9920
2020-05-10 18:00 14.41 2380 10200 (2017) 40 (1948) 2820 40 63 379 580 2060 3940 4510 7220 9920
2020-05-10 17:00 14.41 2380 10200 (2017) 40 (1948) 2820 40 63 379 580 2060 3940 4510 7220 9920
2020-05-10 16:00 14.41 2380 10200 (2017) 40 (1948) 2820 40 63 379 580 2060 3940 4510 7220 9920
2020-05-10 15:00 14.41 2380 10200 (2017) 40 (1948) 2820 40 63 379 580 2060 3940 4510 7220 9920
2020-05-10 14:00 14.42 2390 10200 (2017) 40 (1948) 2820 40 63 379 580 2060 3940 4510 7220 9920
2020-05-10 13:00 14.42 2390 10200 (2017) 40 (1948) 2820 40 63 379 580 2060 3940 4510 7220 9920
2020-05-10 11:00 14.42 2390 10200 (2017) 40 (1948) 2820 40 63 379 580 2060 3940 4510 7220 9920
2020-05-10 10:00 14.43 2390 10200 (2017) 40 (1948) 2820 40 63 379 580 2060 3940 4510 7220 9920
2020-05-10 09:00 14.44 2390 10200 (2017) 40 (1948) 2820 40 63 379 580 2060 3940 4510 7220 9920
2020-05-10 08:00 14.45 2400 10200 (2017) 40 (1948) 2820 40 63 379 580 2060 3940 4510 7220 9920
2020-05-10 07:00 14.45 2400 10200 (2017) 40 (1948) 2820 40 63 379 580 2060 3940 4510 7220 9920
2020-05-10 06:00 14.45 2400 10200 (2017) 40 (1948) 2820 40 63 379 580 2060 3940 4510 7220 9920
2020-05-10 05:00 14.45 2400 10200 (2017) 40 (1948) 2820 40 63 379 580 2060 3940 4510 7220 9920
2020-05-10 04:00 14.46 2400 10200 (2017) 40 (1948) 2820 40 63 379 580 2060 3940 4510 7220 9920
2020-05-10 03:00 14.46 2400 10200 (2017) 40 (1948) 2820 40 63 379 580 2060 3940 4510 7220 9920
2020-05-10 02:00 14.46 2400 10200 (2017) 40 (1948) 2820 40 63 379 580 2060 3940 4510 7220 9920
2020-05-10 01:00 14.46 2400 10200 (2017) 40 (1948) 2820 40 63 379 580 2060 3940 4510 7220 9920
2020-05-10 00:00 14.47 2400 10200 (2017) 40 (1948) 2820 40 63 379 580 2060 3940 4510 7220 9920
2020-05-09 23:00 14.47 2400 10500 (1945) 40 (1948) 2860 40 63 436 580 2120 3860 4200 8010 10000
2020-05-09 22:00 14.46 2400 10500 (1945) 40 (1948) 2860 40 63 436 580 2120 3860 4200 8010 10000
2020-05-09 21:00 14.46 2400 10500 (1945) 40 (1948) 2860 40 63 436 580 2120 3860 4200 8010 10000
2020-05-09 20:00 14.47 2400 10500 (1945) 40 (1948) 2860 40 63 436 580 2120 3860 4200 8010 10000
2020-05-09 19:00 14.47 2400 10500 (1945) 40 (1948) 2860 40 63 436 580 2120 3860 4200 8010 10000
2020-05-09 18:00 14.47 2400 10500 (1945) 40 (1948) 2860 40 63 436 580 2120 3860 4200 8010 10000
2020-05-09 17:00 14.47 2400 10500 (1945) 40 (1948) 2860 40 63 436 580 2120 3860 4200 8010 10000
2020-05-09 16:00 14.48 2410 10500 (1945) 40 (1948) 2860 40 63 436 580 2120 3860 4200 8010 10000
2020-05-09 15:00 14.49 2410 10500 (1945) 40 (1948) 2860 40 63 436 580 2120 3860 4200 8010 10000
2020-05-09 14:00 14.50 2410 10500 (1945) 40 (1948) 2860 40 63 436 580 2120 3860 4200 8010 10000
2020-05-09 12:00 14.50 2410 10500 (1945) 40 (1948) 2860 40 63 436 580 2120 3860 4200 8010 10000
2020-05-09 11:00 14.51 2420 10500 (1945) 40 (1948) 2860 40 63 436 580 2120 3860 4200 8010 10000
2020-05-09 10:00 14.50 2410 10500 (1945) 40 (1948) 2860 40 63 436 580 2120 3860 4200 8010 10000
2020-05-09 09:00 14.52 2420 10500 (1945) 40 (1948) 2860 40 63 436 580 2120 3860 4200 8010 10000
2020-05-09 08:00 14.52 2420 10500 (1945) 40 (1948) 2860 40 63 436 580 2120 3860 4200 8010 10000
2020-05-09 07:00 14.52 2420 10500 (1945) 40 (1948) 2860 40 63 436 580 2120 3860 4200 8010 10000
2020-05-09 06:00 14.53 2420 10500 (1945) 40 (1948) 2860 40 63 436 580 2120 3860 4200 8010 10000
2020-05-09 05:00 14.51 2420 10500 (1945) 40 (1948) 2860 40 63 436 580 2120 3860 4200 8010 10000
2020-05-09 04:00 14.53 2420 10500 (1945) 40 (1948) 2860 40 63 436 580 2120 3860 4200 8010 10000
2020-05-09 03:00 14.54 2420 10500 (1945) 40 (1948) 2860 40 63 436 580 2120 3860 4200 8010 10000
2020-05-09 02:00 14.52 2420 10500 (1945) 40 (1948) 2860 40 63 436 580 2120 3860 4200 8010 10000
2020-05-09 01:00 14.53 2420 10500 (1945) 40 (1948) 2860 40 63 436 580 2120 3860 4200 8010 10000
2020-05-09 00:00 14.53 2420 10500 (1945) 40 (1948) 2860 40 63 436 580 2120 3860 4200 8010 10000
2020-05-08 23:00 14.53 2420 10800 (1945) 40 (1948) 2910 40 56 555 615 2220 3870 4100 8680 10100
2020-05-08 22:00 14.54 2420 10800 (1945) 40 (1948) 2910 40 56 555 615 2220 3870 4100 8680 10100
2020-05-08 21:00 14.52 2420 10800 (1945) 40 (1948) 2910 40 56 555 615 2220 3870 4100 8680 10100
2020-05-08 20:00 14.54 2420 10800 (1945) 40 (1948) 2910 40 56 555 615 2220 3870 4100 8680 10100
2020-05-08 19:00 14.54 2420 10800 (1945) 40 (1948) 2910 40 56 555 615 2220 3870 4100 8680 10100
2020-05-08 18:00 14.52 2420 10800 (1945) 40 (1948) 2910 40 56 555 615 2220 3870 4100 8680 10100
2020-05-08 17:00 14.53 2420 10800 (1945) 40 (1948) 2910 40 56 555 615 2220 3870 4100 8680 10100
2020-05-08 16:00 14.53 2420 10800 (1945) 40 (1948) 2910 40 56 555 615 2220 3870 4100 8680 10100
2020-05-08 15:00 14.53 2420 10800 (1945) 40 (1948) 2910 40 56 555 615 2220 3870 4100 8680 10100
2020-05-08 14:00 14.54 2420 10800 (1945) 40 (1948) 2910 40 56 555 615 2220 3870 4100 8680 10100
2020-05-08 13:00 14.56 2430 10800 (1945) 40 (1948) 2910 40 56 555 615 2220 3870 4100 8680 10100
2020-05-08 12:00 14.55 2430 10800 (1945) 40 (1948) 2910 40 56 555 615 2220 3870 4100 8680 10100
2020-05-08 11:00 14.54 2420 10800 (1945) 40 (1948) 2910 40 56 555 615 2220 3870 4100 8680 10100
2020-05-08 10:00 14.56 2430 10800 (1945) 40 (1948) 2910 40 56 555 615 2220 3870 4100 8680 10100
2020-05-08 09:00 14.53 2420 10800 (1945) 40 (1948) 2910 40 56 555 615 2220 3870 4100 8680 10100
2020-05-08 08:00 14.55 2430 10800 (1945) 40 (1948) 2910 40 56 555 615 2220 3870 4100 8680 10100
2020-05-08 07:00 14.54 2420 10800 (1945) 40 (1948) 2910 40 56 555 615 2220 3870 4100 8680 10100
2020-05-08 06:00 14.54 2420 10800 (1945) 40 (1948) 2910 40 56 555 615 2220 3870 4100 8680 10100
2020-05-08 05:00 14.53 2420 10800 (1945) 40 (1948) 2910 40 56 555 615 2220 3870 4100 8680 10100
2020-05-08 04:00 14.53 2420 10800 (1945) 40 (1948) 2910 40 56 555 615 2220 3870 4100 8680 10100
2020-05-08 03:00 14.51 2420 10800 (1945) 40 (1948) 2910 40 56 555 615 2220 3870 4100 8680 10100
2020-05-08 02:00 14.50 2410 10800 (1945) 40 (1948) 2910 40 56 555 615 2220 3870 4100 8680 10100
2020-05-08 01:00 14.50 2410 10800 (1945) 40 (1948) 2910 40 56 555 615 2220 3870 4100 8680 10100
2020-05-08 00:00 14.50 2410 10800 (1945) 40 (1948) 2910 40 56 555 615 2220 3870 4100 8680 10100
2020-05-07 23:00 14.50 2410 11400 (2017) 40 (1948) 2900 40 47 429 614 2360 3900 4080 8590 9950
2020-05-07 22:00 14.50 2410 11400 (2017) 40 (1948) 2900 40 47 429 614 2360 3900 4080 8590 9950
2020-05-07 21:00 14.49 2410 11400 (2017) 40 (1948) 2900 40 47 429 614 2360 3900 4080 8590 9950
2020-05-07 20:00 14.49 2410 11400 (2017) 40 (1948) 2900 40 47 429 614 2360 3900 4080 8590 9950
2020-05-07 19:00 14.49 2410 11400 (2017) 40 (1948) 2900 40 47 429 614 2360 3900 4080 8590 9950
2020-05-07 18:00 14.48 2410 11400 (2017) 40 (1948) 2900 40 47 429 614 2360 3900 4080 8590 9950
2020-05-07 17:00 14.47 2400 11400 (2017) 40 (1948) 2900 40 47 429 614 2360 3900 4080 8590 9950
2020-05-07 16:00 14.45 2400 11400 (2017) 40 (1948) 2900 40 47 429 614 2360 3900 4080 8590 9950
2020-05-07 15:00 14.43 2390 11400 (2017) 40 (1948) 2900 40 47 429 614 2360 3900 4080 8590 9950
2020-05-07 14:00 14.49 2410 11400 (2017) 40 (1948) 2900 40 47 429 614 2360 3900 4080 8590 9950
2020-05-07 13:00 14.50 2410 11400 (2017) 40 (1948) 2900 40 47 429 614 2360 3900 4080 8590 9950
2020-05-07 12:00 14.51 2420 11400 (2017) 40 (1948) 2900 40 47 429 614 2360 3900 4080 8590 9950
2020-05-07 11:00 14.50 2410 11400 (2017) 40 (1948) 2900 40 47 429 614 2360 3900 4080 8590 9950
2020-05-07 10:00 14.51 2420 11400 (2017) 40 (1948) 2900 40 47 429 614 2360 3900 4080 8590 9950
2020-05-07 09:00 14.52 2420 11400 (2017) 40 (1948) 2900 40 47 429 614 2360 3900 4080 8590 9950
2020-05-07 08:00 14.52 2420 11400 (2017) 40 (1948) 2900 40 47 429 614 2360 3900 4080 8590 9950
2020-05-07 07:00 14.52 2420 11400 (2017) 40 (1948) 2900 40 47 429 614 2360 3900 4080 8590 9950
2020-05-07 06:00 14.52 2420 11400 (2017) 40 (1948) 2900 40 47 429 614 2360 3900 4080 8590 9950
2020-05-07 05:00 14.53 2420 11400 (2017) 40 (1948) 2900 40 47 429 614 2360 3900 4080 8590 9950
2020-05-07 04:00 14.52 2420 11400 (2017) 40 (1948) 2900 40 47 429 614 2360 3900 4080 8590 9950
2020-05-07 03:00 14.52 2420 11400 (2017) 40 (1948) 2900 40 47 429 614 2360 3900 4080 8590 9950
2020-05-07 02:00 14.54 2420 11400 (2017) 40 (1948) 2900 40 47 429 614 2360 3900 4080 8590 9950
2020-05-07 01:00 14.52 2420 11400 (2017) 40 (1948) 2900 40 47 429 614 2360 3900 4080 8590 9950
2020-05-07 00:00 14.53 2420 11400 (2017) 40 (1948) 2900 40 47 429 614 2360 3900 4080 8590 9950

A total of 2175 rows are displayed for years 1942 through 2019.